<?xml version='1.0' encoding='UTF-8'?><gpx version="1.1" creator="JPX - https://github.com/jenetics/jpx" xmlns="http://www.topografix.com/GPX/1/1"><trk><trkseg><trkpt lat="45.617026323565504" lon="9.94395922045463"><ele>212.75</ele><time>2026-04-26T14:44:33.674Z</time></trkpt><trkpt lat="45.616841383729515" lon="9.943746620607385"><ele>212.5</ele><time>2026-04-26T14:44:46.648Z</time></trkpt><trkpt lat="45.61679369839587" lon="9.943871547558272"><ele>212.25</ele><time>2026-04-26T14:44:47.648Z</time></trkpt><trkpt lat="45.61673736043586" lon="9.943960130939768"><ele>212.0</ele><time>2026-04-26T14:44:49.648Z</time></trkpt><trkpt lat="45.61667090382521" lon="9.943868745911107"><ele>212.00000000000003</ele><time>2026-04-26T14:46:22Z</time></trkpt><trkpt lat="45.616606231949405" lon="9.943792674132196"><ele>212.0</ele><time>2026-04-26T14:46:24Z</time></trkpt><trkpt lat="45.61655494310915" lon="9.943727042158317"><ele>212.0</ele><time>2026-04-26T14:46:25Z</time></trkpt><trkpt lat="45.61649156303842" lon="9.94365943129132"><ele>212.0</ele><time>2026-04-26T14:46:26Z</time></trkpt><trkpt lat="45.616422588016235" lon="9.94369886223731"><ele>212.00000000000003</ele><time>2026-04-26T14:46:29Z</time></trkpt><trkpt lat="45.616483504718815" lon="9.943806616950715"><ele>212.0</ele><time>2026-04-26T14:46:31Z</time></trkpt><trkpt lat="45.61655408757173" lon="9.943884071552176"><ele>212.00000000000003</ele><time>2026-04-26T14:46:32Z</time></trkpt><trkpt lat="45.616605588260036" lon="9.943944660676706"><ele>212.0</ele><time>2026-04-26T14:46:34Z</time></trkpt><trkpt lat="45.61667277642615" lon="9.944026490372377"><ele>212.0</ele><time>2026-04-26T14:46:39Z</time></trkpt><trkpt lat="45.61674685094211" lon="9.9440574144925"><ele>212.0</ele><time>2026-04-26T14:46:43Z</time></trkpt><trkpt lat="45.61673326067116" lon="9.943938842618602"><ele>212.00000000000003</ele><time>2026-04-26T14:46:47Z</time></trkpt><trkpt lat="45.61666262565558" lon="9.943862308722522"><ele>212.0</ele><time>2026-04-26T14:46:50Z</time></trkpt><trkpt lat="45.61658607045041" lon="9.943795757532582"><ele>212.00000000000003</ele><time>2026-04-26T14:46:51Z</time></trkpt><trkpt lat="45.616520981712874" lon="9.943744493788719"><ele>212.0</ele><time>2026-04-26T14:46:53Z</time></trkpt><trkpt lat="45.61646770677114" lon="9.943681239712783"><ele>212.0</ele><time>2026-04-26T14:46:57Z</time></trkpt><trkpt lat="45.616533729364455" lon="9.943722345349055"><ele>212.0</ele><time>2026-04-26T14:47:00Z</time></trkpt><trkpt lat="45.616586732966894" lon="9.943794431051733"><ele>212.00000000000003</ele><time>2026-04-26T14:47:03Z</time></trkpt><trkpt lat="45.616696469093014" lon="9.94388581608454"><ele>212.0</ele><time>2026-04-26T14:47:05Z</time></trkpt><trkpt lat="45.616756540495594" lon="9.943955462058335"><ele>212.00000000000003</ele><time>2026-04-26T14:47:06Z</time></trkpt><trkpt lat="45.61667500923946" lon="9.943968683280529"><ele>212.0</ele><time>2026-04-26T14:47:11Z</time></trkpt><trkpt lat="45.61661256690624" lon="9.943882313984199"><ele>212.0</ele><time>2026-04-26T14:47:14Z</time></trkpt><trkpt lat="45.61655954513934" lon="9.94380511964536"><ele>212.0</ele><time>2026-04-26T14:47:16Z</time></trkpt><trkpt lat="45.61650546686637" lon="9.943724529403944"><ele>212.00000000000003</ele><time>2026-04-26T14:47:17Z</time></trkpt><trkpt lat="45.616430117828344" lon="9.943694310721314"><ele>212.0</ele><time>2026-04-26T14:47:21Z</time></trkpt><trkpt lat="45.61644222236069" lon="9.94378805781609"><ele>212.0</ele><time>2026-04-26T14:47:23Z</time></trkpt><trkpt lat="45.61656142756758" lon="9.943887352165811"><ele>212.0</ele><time>2026-04-26T14:47:25Z</time></trkpt><trkpt lat="45.61665440605723" lon="9.943967665701969"><ele>212.0</ele><time>2026-04-26T14:47:27Z</time></trkpt><trkpt lat="45.61671321067151" lon="9.944035843420465"><ele>212.0</ele><time>2026-04-26T14:47:30Z</time></trkpt><trkpt lat="45.61673667396587" lon="9.94393606115552"><ele>212.0</ele><time>2026-04-26T14:47:59Z</time></trkpt><trkpt lat="45.616695785750494" lon="9.94385973854124"><ele>212.00000000000003</ele><time>2026-04-26T14:48:19Z</time></trkpt><trkpt lat="45.616618832734666" lon="9.943803967404918"><ele>212.0</ele><time>2026-04-26T14:49:09Z</time></trkpt><trkpt lat="45.61654891842306" lon="9.943730537932355"><ele>212.0</ele><time>2026-04-26T14:49:12Z</time></trkpt><trkpt lat="45.616508987673114" lon="9.943648270695547"><ele>212.0</ele><time>2026-04-26T14:49:15Z</time></trkpt><trkpt lat="45.61651386779792" lon="9.94352135681945"><ele>212.00000000000003</ele><time>2026-04-26T14:49:18Z</time></trkpt><trkpt lat="45.61652005092676" lon="9.943417365835739"><ele>212.0</ele><time>2026-04-26T14:49:20Z</time></trkpt><trkpt lat="45.61648345829274" lon="9.943510946733285"><ele>212.0</ele><time>2026-04-26T14:49:23Z</time></trkpt><trkpt lat="45.61652640197648" lon="9.943597227799597"><ele>212.0</ele><time>2026-04-26T14:49:27Z</time></trkpt><trkpt lat="45.61656426439793" lon="9.943676135148259"><ele>212.0</ele><time>2026-04-26T14:49:29Z</time></trkpt><trkpt lat="45.6166085255338" lon="9.943752932892279"><ele>212.0</ele><time>2026-04-26T14:49:31Z</time></trkpt><trkpt lat="45.61667593685034" lon="9.943848098946784"><ele>212.0</ele><time>2026-04-26T14:49:34Z</time></trkpt><trkpt lat="45.61661189625689" lon="9.943864333589856"><ele>212.0</ele><time>2026-04-26T14:49:38Z</time></trkpt><trkpt lat="45.61654105454573" lon="9.943902992715982"><ele>212.0</ele><time>2026-04-26T14:50:45Z</time></trkpt><trkpt lat="45.616491224220105" lon="9.94383529518361"><ele>212.0</ele><time>2026-04-26T14:50:46Z</time></trkpt><trkpt lat="45.61644476211559" lon="9.943700427114283"><ele>212.0</ele><time>2026-04-26T14:50:48Z</time></trkpt><trkpt lat="45.616493150960345" lon="9.943561589088114"><ele>212.0</ele><time>2026-04-26T14:50:50Z</time></trkpt><trkpt lat="45.61654485835884" lon="9.943491820071129"><ele>212.0</ele><time>2026-04-26T14:50:52Z</time></trkpt><trkpt lat="45.6166049130792" lon="9.943373438093184"><ele>212.0</ele><time>2026-04-26T14:50:53Z</time></trkpt><trkpt lat="45.61665994050303" lon="9.943270540901242"><ele>212.00000000000003</ele><time>2026-04-26T14:50:54Z</time></trkpt><trkpt lat="45.616734796205485" lon="9.943192864589253"><ele>212.0</ele><time>2026-04-26T14:51:17Z</time></trkpt><trkpt lat="45.61683315803394" lon="9.943269401252985"><ele>212.0</ele><time>2026-04-26T14:51:19Z</time></trkpt><trkpt lat="45.616885177336734" lon="9.943341113187664"><ele>212.0</ele><time>2026-04-26T14:51:20Z</time></trkpt><trkpt lat="45.616945605131164" lon="9.943399508079306"><ele>212.00000000000003</ele><time>2026-04-26T14:51:21Z</time></trkpt><trkpt lat="45.617021653156925" lon="9.94346386682581"><ele>212.0</ele><time>2026-04-26T14:51:22Z</time></trkpt><trkpt lat="45.61708424200326" lon="9.943522504942717"><ele>212.2</ele><time>2026-04-26T14:51:23Z</time></trkpt><trkpt lat="45.61714405282853" lon="9.943599274418444"><ele>212.39999999999998</ele><time>2026-04-26T14:51:24Z</time></trkpt><trkpt lat="45.617197403279086" lon="9.943710997221778"><ele>212.60000000000002</ele><time>2026-04-26T14:51:25Z</time></trkpt><trkpt lat="45.61723066511714" lon="9.943848090859548"><ele>212.8</ele><time>2026-04-26T14:51:26Z</time></trkpt><trkpt lat="45.61723723746866" lon="9.94400590445854"><ele>213.0</ele><time>2026-04-26T14:51:27Z</time></trkpt><trkpt lat="45.6172620026043" lon="9.94416352985854"><ele>213.5</ele><time>2026-04-26T14:51:28Z</time></trkpt><trkpt lat="45.61729954867021" lon="9.944320384656217"><ele>214.0</ele><time>2026-04-26T14:51:29Z</time></trkpt><trkpt lat="45.617339595530034" lon="9.944476134325217"><ele>214.5</ele><time>2026-04-26T14:51:30Z</time></trkpt><trkpt lat="45.6173740744918" lon="9.94463932528935"><ele>215.0</ele><time>2026-04-26T14:51:31Z</time></trkpt><trkpt lat="45.61740255140382" lon="9.94480270279323"><ele>215.0</ele><time>2026-04-26T14:51:32Z</time></trkpt><trkpt lat="45.617428635262534" lon="9.94495690557699"><ele>215.0</ele><time>2026-04-26T14:51:33Z</time></trkpt><trkpt lat="45.6174540838662" lon="9.945100182593743"><ele>215.0</ele><time>2026-04-26T14:51:34Z</time></trkpt><trkpt lat="45.61747597038942" lon="9.945246630331951"><ele>215.0</ele><time>2026-04-26T14:51:35Z</time></trkpt><trkpt lat="45.61749736180537" lon="9.945398033748228"><ele>215.0</ele><time>2026-04-26T14:51:36Z</time></trkpt><trkpt lat="45.617526273844895" lon="9.945556908228692"><ele>215.0</ele><time>2026-04-26T14:51:37Z</time></trkpt><trkpt lat="45.617562775511395" lon="9.945722440558363"><ele>215.0</ele><time>2026-04-26T14:51:38Z</time></trkpt><trkpt lat="45.61759994524643" lon="9.945903479699808"><ele>215.0</ele><time>2026-04-26T14:51:39Z</time></trkpt><trkpt lat="45.61763563106814" lon="9.946095401539791"><ele>215.0</ele><time>2026-04-26T14:51:40Z</time></trkpt><trkpt lat="45.61767317022241" lon="9.946287621517513"><ele>215.0</ele><time>2026-04-26T14:51:41Z</time></trkpt><trkpt lat="45.61770874925926" lon="9.946481419950887"><ele>215.0</ele><time>2026-04-26T14:51:42Z</time></trkpt><trkpt lat="45.6177423901656" lon="9.94668507175757"><ele>215.0</ele><time>2026-04-26T14:51:43Z</time></trkpt><trkpt lat="45.61777952176643" lon="9.946894897267914"><ele>215.0</ele><time>2026-04-26T14:51:44Z</time></trkpt><trkpt lat="45.61782191554689" lon="9.947110081829539"><ele>215.33333333333334</ele><time>2026-04-26T14:51:45Z</time></trkpt><trkpt lat="45.61786509267" lon="9.947330838481768"><ele>215.66666666666669</ele><time>2026-04-26T14:51:46Z</time></trkpt><trkpt lat="45.61790464180571" lon="9.947554297083759"><ele>216.0</ele><time>2026-04-26T14:51:47Z</time></trkpt><trkpt lat="45.617960099653814" lon="9.947769121201024"><ele>216.66666666666669</ele><time>2026-04-26T14:51:48Z</time></trkpt><trkpt lat="45.618032291301496" lon="9.947973918446644"><ele>217.33333333333334</ele><time>2026-04-26T14:51:49Z</time></trkpt><trkpt lat="45.618119065243214" lon="9.948171187710381"><ele>218.0</ele><time>2026-04-26T14:51:50Z</time></trkpt><trkpt lat="45.618211691181784" lon="9.948354557690747"><ele>218.5</ele><time>2026-04-26T14:51:51Z</time></trkpt><trkpt lat="45.61829892485681" lon="9.948509770998132"><ele>219.0</ele><time>2026-04-26T14:51:52Z</time></trkpt><trkpt lat="45.61837868108334" lon="9.948645423691175"><ele>219.5</ele><time>2026-04-26T14:51:53Z</time></trkpt><trkpt lat="45.618448178578305" lon="9.948785440531681"><ele>220.0</ele><time>2026-04-26T14:51:54Z</time></trkpt><trkpt lat="45.61852486241314" lon="9.948937876203805"><ele>220.0</ele><time>2026-04-26T14:51:55Z</time></trkpt><trkpt lat="45.61860107136249" lon="9.949080127362402"><ele>220.0</ele><time>2026-04-26T14:51:56Z</time></trkpt><trkpt lat="45.61866724838737" lon="9.94922490715648"><ele>220.0</ele><time>2026-04-26T14:51:57Z</time></trkpt><trkpt lat="45.61872960321507" lon="9.949361474715142"><ele>220.0</ele><time>2026-04-26T14:51:58Z</time></trkpt><trkpt lat="45.618800155191074" lon="9.949483666371233"><ele>220.5</ele><time>2026-04-26T14:51:59Z</time></trkpt><trkpt lat="45.6188664841433" lon="9.94961120325527"><ele>221.0</ele><time>2026-04-26T14:52:00Z</time></trkpt><trkpt lat="45.618927610812264" lon="9.949741735317563"><ele>221.5</ele><time>2026-04-26T14:52:01Z</time></trkpt><trkpt lat="45.618974480199334" lon="9.949890808071421"><ele>222.0</ele><time>2026-04-26T14:52:02Z</time></trkpt><trkpt lat="45.61896846304374" lon="9.950061052798368"><ele>222.25</ele><time>2026-04-26T14:52:03Z</time></trkpt><trkpt lat="45.61898820280756" lon="9.950238379655074"><ele>222.5</ele><time>2026-04-26T14:52:04Z</time></trkpt><trkpt lat="45.61898693277868" lon="9.950419860421983"><ele>222.75</ele><time>2026-04-26T14:52:05Z</time></trkpt><trkpt lat="45.61897573741106" lon="9.950613621137965"><ele>223.0</ele><time>2026-04-26T14:52:06Z</time></trkpt><trkpt lat="45.61893444294911" lon="9.950822549944562"><ele>223.33333333333331</ele><time>2026-04-26T14:52:07Z</time></trkpt><trkpt lat="45.618879453776614" lon="9.951029067849634"><ele>223.66666666666669</ele><time>2026-04-26T14:52:08Z</time></trkpt><trkpt lat="45.618837501288155" lon="9.951250224154776"><ele>224.0</ele><time>2026-04-26T14:52:09Z</time></trkpt><trkpt lat="45.61880174296124" lon="9.951475187668182"><ele>224.0</ele><time>2026-04-26T14:52:10Z</time></trkpt><trkpt lat="45.61876475071136" lon="9.951686493148369"><ele>224.0</ele><time>2026-04-26T14:52:11Z</time></trkpt><trkpt lat="45.618728072621224" lon="9.951899349569555"><ele>224.0</ele><time>2026-04-26T14:52:12Z</time></trkpt><trkpt lat="45.61868593362207" lon="9.952112848559892"><ele>224.0</ele><time>2026-04-26T14:52:13Z</time></trkpt><trkpt lat="45.61865073001251" lon="9.952328242426526"><ele>224.0</ele><time>2026-04-26T14:52:14Z</time></trkpt><trkpt lat="45.61861699814555" lon="9.952548124777804"><ele>224.0</ele><time>2026-04-26T14:52:15Z</time></trkpt><trkpt lat="45.61857980030973" lon="9.952768410062166"><ele>225.0</ele><time>2026-04-26T14:52:16Z</time></trkpt><trkpt lat="45.61854627125585" lon="9.952961883002724"><ele>225.99999999999997</ele><time>2026-04-26T14:52:17Z</time></trkpt><trkpt lat="45.6185231189266" lon="9.953116934780354"><ele>226.99999999999997</ele><time>2026-04-26T14:52:18Z</time></trkpt><trkpt lat="45.61849825735886" lon="9.953248782784954"><ele>228.0</ele><time>2026-04-26T14:52:19Z</time></trkpt><trkpt lat="45.61847766175838" lon="9.953366616568982"><ele>229.0</ele><time>2026-04-26T14:52:20Z</time></trkpt><trkpt lat="45.61846226629045" lon="9.953470566272662"><ele>229.49999999999997</ele><time>2026-04-26T14:52:21Z</time></trkpt><trkpt lat="45.61844375536901" lon="9.953556813925305"><ele>230.0</ele><time>2026-04-26T14:52:26Z</time></trkpt><trkpt lat="45.61841423939765" lon="9.953645016292576"><ele>230.5</ele><time>2026-04-26T14:52:29Z</time></trkpt><trkpt lat="45.61841916668668" lon="9.953741677110722"><ele>231.0</ele><time>2026-04-26T14:52:31Z</time></trkpt><trkpt lat="45.61841934171647" lon="9.95385190679795"><ele>231.49999999999997</ele><time>2026-04-26T14:52:33Z</time></trkpt><trkpt lat="45.6184244841865" lon="9.95400863304923"><ele>232.0</ele><time>2026-04-26T14:52:35Z</time></trkpt><trkpt lat="45.61841401791706" lon="9.9542238016383"><ele>232.0</ele><time>2026-04-26T14:52:37Z</time></trkpt><trkpt lat="45.61841095728381" lon="9.95442483720969"><ele>232.0</ele><time>2026-04-26T14:52:38Z</time></trkpt><trkpt lat="45.61838803571332" lon="9.954631730513654"><ele>232.0</ele><time>2026-04-26T14:52:39Z</time></trkpt><trkpt lat="45.618389704530266" lon="9.95475812334432"><ele>232.0</ele><time>2026-04-26T14:52:40Z</time></trkpt><trkpt lat="45.61840520696301" lon="9.954885786670568"><ele>232.0</ele><time>2026-04-26T14:52:41Z</time></trkpt><trkpt lat="45.61843191691121" lon="9.955035069174256"><ele>232.0</ele><time>2026-04-26T14:52:42Z</time></trkpt><trkpt lat="45.61846721846682" lon="9.955173478992037"><ele>232.0</ele><time>2026-04-26T14:52:43Z</time></trkpt><trkpt lat="45.61850455346432" lon="9.955309091921313"><ele>232.0</ele><time>2026-04-26T14:52:44Z</time></trkpt><trkpt lat="45.61854273274411" lon="9.95545173626263"><ele>232.0</ele><time>2026-04-26T14:52:45Z</time></trkpt><trkpt lat="45.6186113316868" lon="9.955588528002208"><ele>232.5</ele><time>2026-04-26T14:52:46Z</time></trkpt><trkpt lat="45.61867122017903" lon="9.955761482901663"><ele>233.0</ele><time>2026-04-26T14:52:47Z</time></trkpt><trkpt lat="45.61873209854598" lon="9.955934389338925"><ele>233.5</ele><time>2026-04-26T14:52:48Z</time></trkpt><trkpt lat="45.61879548674534" lon="9.956110768118736"><ele>234.0</ele><time>2026-04-26T14:52:49Z</time></trkpt><trkpt lat="45.61886261574699" lon="9.956283921872101"><ele>234.5</ele><time>2026-04-26T14:52:50Z</time></trkpt><trkpt lat="45.61892263370551" lon="9.956439143409167"><ele>235.0</ele><time>2026-04-26T14:52:51Z</time></trkpt><trkpt lat="45.618984995314605" lon="9.956596847716238"><ele>235.5</ele><time>2026-04-26T14:52:52Z</time></trkpt><trkpt lat="45.61903394202384" lon="9.956762766802964"><ele>236.0</ele><time>2026-04-26T14:52:53Z</time></trkpt><trkpt lat="45.61911124875884" lon="9.956906732097202"><ele>236.0</ele><time>2026-04-26T14:52:54Z</time></trkpt><trkpt lat="45.61917405308266" lon="9.957058648196186"><ele>236.0</ele><time>2026-04-26T14:52:55Z</time></trkpt><trkpt lat="45.61921744056832" lon="9.95720506583721"><ele>236.0</ele><time>2026-04-26T14:52:56Z</time></trkpt><trkpt lat="45.61928506293613" lon="9.957327593312673"><ele>236.0</ele><time>2026-04-26T14:52:57Z</time></trkpt><trkpt lat="45.61933861846381" lon="9.957480138931357"><ele>236.0</ele><time>2026-04-26T14:52:58Z</time></trkpt><trkpt lat="45.619374784902085" lon="9.957639498637999"><ele>236.00000000000003</ele><time>2026-04-26T14:52:59Z</time></trkpt><trkpt lat="45.61941118801022" lon="9.957776195525343"><ele>236.00000000000003</ele><time>2026-04-26T14:53:00Z</time></trkpt><trkpt lat="45.619451326328885" lon="9.957851487361717"><ele>236.0</ele><time>2026-04-26T14:53:01Z</time></trkpt><trkpt lat="45.61954962905358" lon="9.957905160167789"><ele>236.0</ele><time>2026-04-26T14:53:02Z</time></trkpt><trkpt lat="45.619535429891535" lon="9.958201172295352"><ele>236.0</ele><time>2026-04-26T14:53:04Z</time></trkpt><trkpt lat="45.619327382459865" lon="9.958164454401595"><ele>236.0</ele><time>2026-04-26T14:53:05Z</time></trkpt><trkpt lat="45.619216165870256" lon="9.958227725129035"><ele>236.0</ele><time>2026-04-26T14:53:06Z</time></trkpt><trkpt lat="45.61908480717286" lon="9.958340797518241"><ele>236.5</ele><time>2026-04-26T14:53:07Z</time></trkpt><trkpt lat="45.618930849761725" lon="9.958462061170328"><ele>237.0</ele><time>2026-04-26T14:53:08Z</time></trkpt><trkpt lat="45.618813906726565" lon="9.958561840177149"><ele>237.5</ele><time>2026-04-26T14:53:09Z</time></trkpt><trkpt lat="45.61870599588716" lon="9.95865617523847"><ele>238.0</ele><time>2026-04-26T14:53:10Z</time></trkpt><trkpt lat="45.6185925387113" lon="9.958742584487984"><ele>238.0</ele><time>2026-04-26T14:53:11Z</time></trkpt><trkpt lat="45.61848022474975" lon="9.958846600022701"><ele>238.0</ele><time>2026-04-26T14:53:12Z</time></trkpt><trkpt lat="45.61836292847213" lon="9.958953484498274"><ele>238.0</ele><time>2026-04-26T14:53:13Z</time></trkpt><trkpt lat="45.618239968771796" lon="9.959061970067921"><ele>238.0</ele><time>2026-04-26T14:53:14Z</time></trkpt><trkpt lat="45.61812004457508" lon="9.959157427517836"><ele>238.0</ele><time>2026-04-26T14:53:15Z</time></trkpt><trkpt lat="45.61799844457894" lon="9.959255069264625"><ele>238.0</ele><time>2026-04-26T14:53:16Z</time></trkpt><trkpt lat="45.617881581605225" lon="9.95936128141493"><ele>238.0</ele><time>2026-04-26T14:53:17Z</time></trkpt><trkpt lat="45.617761266564074" lon="9.959470986115901"><ele>238.0</ele><time>2026-04-26T14:53:18Z</time></trkpt><trkpt lat="45.6176377479073" lon="9.959571633212834"><ele>237.25</ele><time>2026-04-26T14:53:19Z</time></trkpt><trkpt lat="45.617510400772574" lon="9.959664578236127"><ele>236.5</ele><time>2026-04-26T14:53:20Z</time></trkpt><trkpt lat="45.617374856093996" lon="9.959749525766268"><ele>235.75</ele><time>2026-04-26T14:53:21Z</time></trkpt><trkpt lat="45.617233157628476" lon="9.959825398243158"><ele>235.0</ele><time>2026-04-26T14:53:22Z</time></trkpt><trkpt lat="45.61708886838252" lon="9.959891338127207"><ele>235.2</ele><time>2026-04-26T14:53:23Z</time></trkpt><trkpt lat="45.6169618056373" lon="9.959947816712791"><ele>235.4</ele><time>2026-04-26T14:53:24Z</time></trkpt><trkpt lat="45.616850260860076" lon="9.95998269315665"><ele>235.60000000000002</ele><time>2026-04-26T14:53:25Z</time></trkpt><trkpt lat="45.616750566697974" lon="9.960021916248007"><ele>235.8</ele><time>2026-04-26T14:53:26Z</time></trkpt><trkpt lat="45.616658159819146" lon="9.960061194772875"><ele>236.0</ele><time>2026-04-26T14:53:27Z</time></trkpt><trkpt lat="45.61656807028142" lon="9.960085238450567"><ele>236.16666666666669</ele><time>2026-04-26T14:53:28Z</time></trkpt><trkpt lat="45.616483449394046" lon="9.960100494241313"><ele>236.33333333333334</ele><time>2026-04-26T14:53:29Z</time></trkpt><trkpt lat="45.61640314785585" lon="9.960114825942506"><ele>236.5</ele><time>2026-04-26T14:53:30Z</time></trkpt><trkpt lat="45.616336488540746" lon="9.960146202314501"><ele>236.66666666666669</ele><time>2026-04-26T14:53:31Z</time></trkpt><trkpt lat="45.61627967701582" lon="9.960190414043549"><ele>236.83333333333334</ele><time>2026-04-26T14:53:32Z</time></trkpt><trkpt lat="45.616223023129066" lon="9.960294199488523"><ele>237.0</ele><time>2026-04-26T14:53:34Z</time></trkpt><trkpt lat="45.61619867864528" lon="9.960138861661001"><ele>237.0</ele><time>2026-04-26T14:53:35Z</time></trkpt><trkpt lat="45.616181500275225" lon="9.96031182098349"><ele>237.0</ele><time>2026-04-26T14:53:37Z</time></trkpt><trkpt lat="45.61629672948901" lon="9.960265809757889"><ele>237.0</ele><time>2026-04-26T14:57:32Z</time></trkpt><trkpt lat="45.616397314146255" lon="9.96019061257518"><ele>237.0</ele><time>2026-04-26T14:57:34Z</time></trkpt><trkpt lat="45.6164664580641" lon="9.960161172107128"><ele>237.0</ele><time>2026-04-26T14:57:35Z</time></trkpt><trkpt lat="45.61656091467566" lon="9.960144286249669"><ele>237.0</ele><time>2026-04-26T14:57:36Z</time></trkpt><trkpt lat="45.61664415175164" lon="9.960126678808027"><ele>237.0</ele><time>2026-04-26T14:57:37Z</time></trkpt><trkpt lat="45.61671364610714" lon="9.960106236148905"><ele>237.0</ele><time>2026-04-26T14:57:38Z</time></trkpt><trkpt lat="45.61680639566254" lon="9.960078674298277"><ele>237.0</ele><time>2026-04-26T14:57:39Z</time></trkpt><trkpt lat="45.61690945870111" lon="9.960038184714358"><ele>237.0</ele><time>2026-04-26T14:57:40Z</time></trkpt><trkpt lat="45.617025178519825" lon="9.959990323435145"><ele>236.33333333333331</ele><time>2026-04-26T14:57:41Z</time></trkpt><trkpt lat="45.617148504427945" lon="9.959926273298631"><ele>235.66666666666666</ele><time>2026-04-26T14:57:42Z</time></trkpt><trkpt lat="45.61729688266392" lon="9.959848987863712"><ele>235.0</ele><time>2026-04-26T14:57:43Z</time></trkpt><trkpt lat="45.61745924272116" lon="9.959745797378737"><ele>235.0</ele><time>2026-04-26T14:57:44Z</time></trkpt><trkpt lat="45.61762968426168" lon="9.959630516434293"><ele>235.0</ele><time>2026-04-26T14:57:45Z</time></trkpt><trkpt lat="45.61777733020314" lon="9.95952653795041"><ele>235.0</ele><time>2026-04-26T14:57:46Z</time></trkpt><trkpt lat="45.61789112031806" lon="9.959426388831496"><ele>235.6</ele><time>2026-04-26T14:57:47Z</time></trkpt><trkpt lat="45.61799180040029" lon="9.959344637760188"><ele>236.2</ele><time>2026-04-26T14:57:48Z</time></trkpt><trkpt lat="45.61808727398487" lon="9.959280861611328"><ele>236.8</ele><time>2026-04-26T14:57:49Z</time></trkpt><trkpt lat="45.61818078244208" lon="9.959219048560891"><ele>237.4</ele><time>2026-04-26T14:57:50Z</time></trkpt><trkpt lat="45.61827598510648" lon="9.959177530490095"><ele>238.0</ele><time>2026-04-26T14:57:51Z</time></trkpt><trkpt lat="45.61841482722379" lon="9.959276870907823"><ele>238.0</ele><time>2026-04-26T14:57:52Z</time></trkpt><trkpt lat="45.618552812794086" lon="9.959300192409232"><ele>238.0</ele><time>2026-04-26T14:57:53Z</time></trkpt><trkpt lat="45.61871957691852" lon="9.959312438533642"><ele>238.0</ele><time>2026-04-26T14:57:54Z</time></trkpt><trkpt lat="45.618872086343686" lon="9.95929575856013"><ele>238.60000000000002</ele><time>2026-04-26T14:57:55Z</time></trkpt><trkpt lat="45.618984866470235" lon="9.959282971515211"><ele>239.20000000000002</ele><time>2026-04-26T14:57:56Z</time></trkpt><trkpt lat="45.61907754547644" lon="9.959305854026203"><ele>239.8</ele><time>2026-04-26T14:57:57Z</time></trkpt><trkpt lat="45.61917530337806" lon="9.959333417796481"><ele>240.4</ele><time>2026-04-26T14:57:58Z</time></trkpt><trkpt lat="45.619259495011335" lon="9.959373335520757"><ele>241.0</ele><time>2026-04-26T14:57:59Z</time></trkpt><trkpt lat="45.6193447981026" lon="9.959409346601348"><ele>241.0</ele><time>2026-04-26T14:58:00Z</time></trkpt><trkpt lat="45.61945337089024" lon="9.959519775722201"><ele>241.0</ele><time>2026-04-26T14:58:01Z</time></trkpt><trkpt lat="45.619553773665736" lon="9.959623880692206"><ele>241.0</ele><time>2026-04-26T14:58:02Z</time></trkpt><trkpt lat="45.61965618909371" lon="9.959717751866354"><ele>241.0</ele><time>2026-04-26T14:58:03Z</time></trkpt><trkpt lat="45.61974601605053" lon="9.959805152250645"><ele>241.25</ele><time>2026-04-26T14:58:04Z</time></trkpt><trkpt lat="45.619856411520615" lon="9.959901048514775"><ele>241.5</ele><time>2026-04-26T14:58:05Z</time></trkpt><trkpt lat="45.619970321751644" lon="9.960004372759434"><ele>241.75</ele><time>2026-04-26T14:58:06Z</time></trkpt><trkpt lat="45.62009101420929" lon="9.960111589523432"><ele>242.0</ele><time>2026-04-26T14:58:07Z</time></trkpt><trkpt lat="45.62022755026604" lon="9.960219941785542"><ele>243.25</ele><time>2026-04-26T14:58:08Z</time></trkpt><trkpt lat="45.620348510465625" lon="9.96031954233511"><ele>244.5</ele><time>2026-04-26T14:58:09Z</time></trkpt><trkpt lat="45.62047332300181" lon="9.960413379806523"><ele>245.75</ele><time>2026-04-26T14:58:10Z</time></trkpt><trkpt lat="45.620597719914514" lon="9.960537011313777"><ele>247.0</ele><time>2026-04-26T14:58:11Z</time></trkpt><trkpt lat="45.620708918437685" lon="9.960669424480123"><ele>247.0</ele><time>2026-04-26T14:58:12Z</time></trkpt><trkpt lat="45.62080833979788" lon="9.96077597377847"><ele>247.0</ele><time>2026-04-26T14:58:13Z</time></trkpt><trkpt lat="45.62090524947782" lon="9.960856546453748"><ele>247.0</ele><time>2026-04-26T14:58:14Z</time></trkpt><trkpt lat="45.62101347692817" lon="9.9609361849447"><ele>247.0</ele><time>2026-04-26T14:58:15Z</time></trkpt><trkpt lat="45.62111824797577" lon="9.96102561495148"><ele>247.75</ele><time>2026-04-26T14:58:16Z</time></trkpt><trkpt lat="45.621216973570135" lon="9.961145341484809"><ele>248.5</ele><time>2026-04-26T14:58:17Z</time></trkpt><trkpt lat="45.621319464357754" lon="9.961282161639152"><ele>249.25</ele><time>2026-04-26T14:58:18Z</time></trkpt><trkpt lat="45.621419084841655" lon="9.96142225934135"><ele>250.0</ele><time>2026-04-26T14:58:19Z</time></trkpt><trkpt lat="45.621538292682686" lon="9.961560479219889"><ele>250.0</ele><time>2026-04-26T14:58:20Z</time></trkpt><trkpt lat="45.62166624796543" lon="9.961648272969425"><ele>250.0</ele><time>2026-04-26T14:58:21Z</time></trkpt><trkpt lat="45.62174587609777" lon="9.961679429017478"><ele>250.0</ele><time>2026-04-26T14:58:22Z</time></trkpt><trkpt lat="45.621861838069584" lon="9.961589540658233"><ele>250.0</ele><time>2026-04-26T14:58:26Z</time></trkpt><trkpt lat="45.621886175060865" lon="9.961440291709048"><ele>250.0</ele><time>2026-04-26T14:58:28Z</time></trkpt><trkpt lat="45.62191375789326" lon="9.961337978006139"><ele>250.0</ele><time>2026-04-26T14:58:29Z</time></trkpt><trkpt lat="45.62195146539371" lon="9.961223689189618"><ele>250.0</ele><time>2026-04-26T14:58:30Z</time></trkpt><trkpt lat="45.6219985041226" lon="9.961092489535798"><ele>250.0</ele><time>2026-04-26T14:58:31Z</time></trkpt><trkpt lat="45.62205645954377" lon="9.96095015870244"><ele>250.0</ele><time>2026-04-26T14:58:32Z</time></trkpt><trkpt lat="45.622148028346366" lon="9.960793586845837"><ele>251.25</ele><time>2026-04-26T14:58:33Z</time></trkpt><trkpt lat="45.622228930424534" lon="9.96066505122391"><ele>252.5</ele><time>2026-04-26T14:58:34Z</time></trkpt><trkpt lat="45.62226995118346" lon="9.96050379315562"><ele>253.75</ele><time>2026-04-26T14:58:35Z</time></trkpt><trkpt lat="45.622376331888034" lon="9.96033252110397"><ele>255.0</ele><time>2026-04-26T14:58:36Z</time></trkpt><trkpt lat="45.62238998880272" lon="9.96019944871336"><ele>255.0</ele><time>2026-04-26T14:58:37Z</time></trkpt><trkpt lat="45.62241725281558" lon="9.960051850005607"><ele>255.0</ele><time>2026-04-26T14:58:38Z</time></trkpt><trkpt lat="45.62244718093962" lon="9.959895465793176"><ele>255.0</ele><time>2026-04-26T14:58:39Z</time></trkpt><trkpt lat="45.62247975065719" lon="9.959751087222644"><ele>255.0</ele><time>2026-04-26T14:58:40Z</time></trkpt><trkpt lat="45.622534712692534" lon="9.959611055320833"><ele>255.0</ele><time>2026-04-26T14:58:41Z</time></trkpt><trkpt lat="45.6225900607218" lon="9.959469617022659"><ele>255.2</ele><time>2026-04-26T14:58:42Z</time></trkpt><trkpt lat="45.622626162044654" lon="9.959354466184651"><ele>255.4</ele><time>2026-04-26T14:58:43Z</time></trkpt><trkpt lat="45.62266760911774" lon="9.95921838722391"><ele>255.60000000000002</ele><time>2026-04-26T14:58:44Z</time></trkpt><trkpt lat="45.622707885524086" lon="9.959107977996828"><ele>255.8</ele><time>2026-04-26T14:58:45Z</time></trkpt><trkpt lat="45.62275602155024" lon="9.958961573831553"><ele>256.0</ele><time>2026-04-26T14:58:46Z</time></trkpt><trkpt lat="45.6228019784135" lon="9.958815402699022"><ele>255.0</ele><time>2026-04-26T14:58:47Z</time></trkpt><trkpt lat="45.622851453298736" lon="9.9586671542352"><ele>254.00000000000003</ele><time>2026-04-26T14:58:48Z</time></trkpt><trkpt lat="45.62289979466869" lon="9.958524892718968"><ele>253.00000000000003</ele><time>2026-04-26T14:58:49Z</time></trkpt><trkpt lat="45.622947001314174" lon="9.958391231283787"><ele>252.0</ele><time>2026-04-26T14:58:50Z</time></trkpt><trkpt lat="45.622995697539174" lon="9.958254257425034"><ele>251.0</ele><time>2026-04-26T14:58:51Z</time></trkpt><trkpt lat="45.62303569171789" lon="9.958135182268531"><ele>251.0</ele><time>2026-04-26T14:58:52Z</time></trkpt><trkpt lat="45.623068474004924" lon="9.958007484766396"><ele>251.00000000000003</ele><time>2026-04-26T14:58:53Z</time></trkpt><trkpt lat="45.62310336730929" lon="9.957866357747317"><ele>251.00000000000003</ele><time>2026-04-26T14:58:54Z</time></trkpt><trkpt lat="45.62319115723713" lon="9.957768184715329"><ele>251.0</ele><time>2026-04-26T14:58:55Z</time></trkpt><trkpt lat="45.623257896844876" lon="9.957614882857047"><ele>251.0</ele><time>2026-04-26T14:58:56Z</time></trkpt><trkpt lat="45.62333061207257" lon="9.957482632759726"><ele>250.8</ele><time>2026-04-26T14:58:57Z</time></trkpt><trkpt lat="45.62338430401826" lon="9.957370165561457"><ele>250.60000000000002</ele><time>2026-04-26T14:58:58Z</time></trkpt><trkpt lat="45.62346207818902" lon="9.957293721403454"><ele>250.4</ele><time>2026-04-26T14:58:59Z</time></trkpt><trkpt lat="45.62353301425718" lon="9.957206032904143"><ele>250.2</ele><time>2026-04-26T14:59:00Z</time></trkpt><trkpt lat="45.62364421897423" lon="9.957075817341838"><ele>250.0</ele><time>2026-04-26T14:59:01Z</time></trkpt><trkpt lat="45.62373336225298" lon="9.956948718478657"><ele>250.0</ele><time>2026-04-26T14:59:02Z</time></trkpt><trkpt lat="45.623828666847906" lon="9.956844299314609"><ele>250.0</ele><time>2026-04-26T14:59:03Z</time></trkpt><trkpt lat="45.623906163389506" lon="9.956745020132296"><ele>250.0</ele><time>2026-04-26T14:59:04Z</time></trkpt><trkpt lat="45.62397160728738" lon="9.956685759030359"><ele>250.0</ele><time>2026-04-26T14:59:05Z</time></trkpt><trkpt lat="45.62404641660799" lon="9.95660823295557"><ele>250.0</ele><time>2026-04-26T14:59:06Z</time></trkpt><trkpt lat="45.62409557719216" lon="9.95652948202079"><ele>250.0</ele><time>2026-04-26T14:59:07Z</time></trkpt><trkpt lat="45.624142171783554" lon="9.956466962099631"><ele>250.0</ele><time>2026-04-26T14:59:08Z</time></trkpt><trkpt lat="45.624173759152676" lon="9.956388561463966"><ele>250.0</ele><time>2026-04-26T14:59:10Z</time></trkpt><trkpt lat="45.62431206854018" lon="9.956577633198817"><ele>250.0</ele><time>2026-04-26T14:59:12Z</time></trkpt><trkpt lat="45.62438529376512" lon="9.956659682389486"><ele>250.0</ele><time>2026-04-26T14:59:13Z</time></trkpt><trkpt lat="45.62446013078889" lon="9.956744842611798"><ele>249.75</ele><time>2026-04-26T14:59:14Z</time></trkpt><trkpt lat="45.62454088538764" lon="9.95684403754192"><ele>249.5</ele><time>2026-04-26T14:59:15Z</time></trkpt><trkpt lat="45.62465029785859" lon="9.956966559278653"><ele>249.25</ele><time>2026-04-26T14:59:16Z</time></trkpt><trkpt lat="45.624741735224966" lon="9.957063480832813"><ele>249.0</ele><time>2026-04-26T14:59:17Z</time></trkpt><trkpt lat="45.624827835272576" lon="9.95715323838115"><ele>249.0</ele><time>2026-04-26T14:59:18Z</time></trkpt><trkpt lat="45.624904156655354" lon="9.957206073797916"><ele>248.99999999999997</ele><time>2026-04-26T14:59:19Z</time></trkpt><trkpt lat="45.62498991713765" lon="9.957235106434695"><ele>248.99999999999997</ele><time>2026-04-26T14:59:20Z</time></trkpt><trkpt lat="45.62510819546201" lon="9.957260662527093"><ele>249.0</ele><time>2026-04-26T14:59:21Z</time></trkpt><trkpt lat="45.62522286316966" lon="9.957246330517277"><ele>249.0</ele><time>2026-04-26T14:59:23Z</time></trkpt><trkpt lat="45.62528615252407" lon="9.957069565781685"><ele>250.79999999999998</ele><time>2026-04-26T14:59:25Z</time></trkpt><trkpt lat="45.62538788033241" lon="9.957056804906658"><ele>252.59999999999997</ele><time>2026-04-26T14:59:26Z</time></trkpt><trkpt lat="45.62548332854719" lon="9.957163739061546"><ele>254.4</ele><time>2026-04-26T14:59:27Z</time></trkpt><trkpt lat="45.625560323168166" lon="9.957305039978447"><ele>256.2</ele><time>2026-04-26T14:59:29Z</time></trkpt><trkpt lat="45.625647534889595" lon="9.957285907322335"><ele>258.0</ele><time>2026-04-26T14:59:30Z</time></trkpt><trkpt lat="45.625710608443406" lon="9.957266577749111"><ele>258.0</ele><time>2026-04-26T14:59:31Z</time></trkpt><trkpt lat="45.62579436570882" lon="9.957202072972601"><ele>258.0</ele><time>2026-04-26T14:59:33Z</time></trkpt><trkpt lat="45.62589153195902" lon="9.957132076214306"><ele>258.0</ele><time>2026-04-26T14:59:35Z</time></trkpt><trkpt lat="45.62595295655823" lon="9.95709503968775"><ele>258.0</ele><time>2026-04-26T14:59:36Z</time></trkpt><trkpt lat="45.626022200541975" lon="9.95705916654277"><ele>258.0</ele><time>2026-04-26T14:59:37Z</time></trkpt><trkpt lat="45.62608979582378" lon="9.957023357427978"><ele>258.0</ele><time>2026-04-26T14:59:38Z</time></trkpt><trkpt lat="45.62619872106355" lon="9.956986545287357"><ele>260.6</ele><time>2026-04-26T14:59:40Z</time></trkpt><trkpt lat="45.6262635306964" lon="9.956958193083592"><ele>263.20000000000005</ele><time>2026-04-26T14:59:41Z</time></trkpt><trkpt lat="45.626370326492825" lon="9.956904138935526"><ele>265.8</ele><time>2026-04-26T14:59:43Z</time></trkpt><trkpt lat="45.62629358503932" lon="9.957042922733864"><ele>268.40000000000003</ele><time>2026-04-26T14:59:49Z</time></trkpt><trkpt lat="45.626316635075575" lon="9.957167852512482"><ele>271.0</ele><time>2026-04-26T14:59:52Z</time></trkpt><trkpt lat="45.62635530229506" lon="9.95730639535412"><ele>271.0</ele><time>2026-04-26T14:59:54Z</time></trkpt><trkpt lat="45.62639390761393" lon="9.957471601502814"><ele>271.0</ele><time>2026-04-26T14:59:56Z</time></trkpt><trkpt lat="45.62633876301347" lon="9.957612887570155"><ele>271.0</ele><time>2026-04-26T14:59:58Z</time></trkpt><trkpt lat="45.62629288809044" lon="9.957676741987424"><ele>271.0</ele><time>2026-04-26T14:59:59Z</time></trkpt><trkpt lat="45.62624284849005" lon="9.95775134531533"><ele>271.0</ele><time>2026-04-26T15:00:00Z</time></trkpt><trkpt lat="45.62618367784621" lon="9.957820281089122"><ele>271.0</ele><time>2026-04-26T15:00:01Z</time></trkpt><trkpt lat="45.626108618925734" lon="9.957879709639405"><ele>272.8333333333333</ele><time>2026-04-26T15:00:02Z</time></trkpt><trkpt lat="45.62603869285374" lon="9.957940032092816"><ele>274.66666666666663</ele><time>2026-04-26T15:00:03Z</time></trkpt><trkpt lat="45.625982581102825" lon="9.957989673593383"><ele>276.5</ele><time>2026-04-26T15:00:04Z</time></trkpt><trkpt lat="45.62590867433092" lon="9.958051761869925"><ele>278.3333333333333</ele><time>2026-04-26T15:00:05Z</time></trkpt><trkpt lat="45.62582193043855" lon="9.958120878733531"><ele>280.1666666666667</ele><time>2026-04-26T15:00:06Z</time></trkpt><trkpt lat="45.62572382200413" lon="9.958206924184969"><ele>282.0</ele><time>2026-04-26T15:00:07Z</time></trkpt><trkpt lat="45.62561922020477" lon="9.95830612429343"><ele>284.6</ele><time>2026-04-26T15:00:08Z</time></trkpt><trkpt lat="45.62551947869258" lon="9.95836810177309"><ele>287.2</ele><time>2026-04-26T15:00:09Z</time></trkpt><trkpt lat="45.62542933992797" lon="9.958406145207999"><ele>289.8</ele><time>2026-04-26T15:00:10Z</time></trkpt><trkpt lat="45.625357397847175" lon="9.95844318758345"><ele>292.4</ele><time>2026-04-26T15:00:11Z</time></trkpt><trkpt lat="45.62526474387623" lon="9.958554378857832"><ele>295.0</ele><time>2026-04-26T15:00:13Z</time></trkpt><trkpt lat="45.62515057647092" lon="9.95862917725869"><ele>295.0</ele><time>2026-04-26T15:00:15Z</time></trkpt><trkpt lat="45.62508194689005" lon="9.958665169196403"><ele>295.0</ele><time>2026-04-26T15:00:16Z</time></trkpt><trkpt lat="45.625015900803156" lon="9.958729555524712"><ele>295.0</ele><time>2026-04-26T15:00:17Z</time></trkpt><trkpt lat="45.624934134315275" lon="9.958797913156344"><ele>295.0</ele><time>2026-04-26T15:00:18Z</time></trkpt><trkpt lat="45.62485536906105" lon="9.9588619795575"><ele>295.0</ele><time>2026-04-26T15:00:19Z</time></trkpt><trkpt lat="45.624794707538584" lon="9.958946418784835"><ele>295.0</ele><time>2026-04-26T15:00:20Z</time></trkpt><trkpt lat="45.624706673322414" lon="9.95902315278244"><ele>295.0</ele><time>2026-04-26T15:00:22Z</time></trkpt><trkpt lat="45.62465912238428" lon="9.959141138313118"><ele>295.0</ele><time>2026-04-26T15:00:24Z</time></trkpt><trkpt lat="45.624557397891344" lon="9.959123475900372"><ele>295.0</ele><time>2026-04-26T15:00:26Z</time></trkpt><trkpt lat="45.62450345773971" lon="9.959052798783773"><ele>295.0</ele><time>2026-04-26T15:00:27Z</time></trkpt><trkpt lat="45.62457997534044" lon="9.959225842891598"><ele>295.0</ele><time>2026-04-26T15:00:36Z</time></trkpt><trkpt lat="45.62460158534322" lon="9.959326844987286"><ele>297.5</ele><time>2026-04-26T15:00:37Z</time></trkpt><trkpt lat="45.62462494097593" lon="9.959421803701941"><ele>300.0</ele><time>2026-04-26T15:00:38Z</time></trkpt><trkpt lat="45.624672210421764" lon="9.959584715928361"><ele>302.5</ele><time>2026-04-26T15:00:40Z</time></trkpt><trkpt lat="45.62468854013569" lon="9.959707197997002"><ele>305.0</ele><time>2026-04-26T15:00:42Z</time></trkpt><trkpt lat="45.62477656406145" lon="9.960011702947977"><ele>305.0</ele><time>2026-04-26T15:00:44Z</time></trkpt><trkpt lat="45.62483942604623" lon="9.960048683777162"><ele>305.0</ele><time>2026-04-26T15:00:45Z</time></trkpt><trkpt lat="45.624727303157975" lon="9.95963565633932"><ele>305.0</ele><time>2026-04-26T15:00:49Z</time></trkpt><trkpt lat="45.624659423043504" lon="9.959564016321092"><ele>305.0</ele><time>2026-04-26T15:00:56Z</time></trkpt><trkpt lat="45.624609722866374" lon="9.959411850841013"><ele>305.0</ele><time>2026-04-26T15:00:58Z</time></trkpt><trkpt lat="45.624583200441926" lon="9.959320166084314"><ele>305.0</ele><time>2026-04-26T15:00:59Z</time></trkpt><trkpt lat="45.62456103953947" lon="9.95922566332918"><ele>305.0</ele><time>2026-04-26T15:01:00Z</time></trkpt><trkpt lat="45.624535352554815" lon="9.959122816667447"><ele>305.0</ele><time>2026-04-26T15:01:02Z</time></trkpt><trkpt lat="45.624707289236675" lon="9.95907857350961"><ele>303.0</ele><time>2026-04-26T15:01:17Z</time></trkpt><trkpt lat="45.62477831756995" lon="9.958987913653052"><ele>301.0</ele><time>2026-04-26T15:01:19Z</time></trkpt><trkpt lat="45.62484634444568" lon="9.958870815460529"><ele>299.0</ele><time>2026-04-26T15:01:21Z</time></trkpt><trkpt lat="45.62492275122354" lon="9.9587628281283"><ele>297.0</ele><time>2026-04-26T15:01:23Z</time></trkpt><trkpt lat="45.62503798670376" lon="9.958662055842685"><ele>295.0</ele><time>2026-04-26T15:01:25Z</time></trkpt><trkpt lat="45.62509017557184" lon="9.958609355045242"><ele>295.0</ele><time>2026-04-26T15:01:26Z</time></trkpt><trkpt lat="45.62515333583213" lon="9.958571923552444"><ele>295.0</ele><time>2026-04-26T15:01:27Z</time></trkpt><trkpt lat="45.625214736269115" lon="9.958549685571414"><ele>295.0</ele><time>2026-04-26T15:01:28Z</time></trkpt><trkpt lat="45.62531365010747" lon="9.958465874783275"><ele>295.0</ele><time>2026-04-26T15:01:30Z</time></trkpt><trkpt lat="45.625418228361966" lon="9.95837808489325"><ele>295.0</ele><time>2026-04-26T15:01:32Z</time></trkpt><trkpt lat="45.62550076223546" lon="9.958345838760517"><ele>291.75</ele><time>2026-04-26T15:01:33Z</time></trkpt><trkpt lat="45.62559980217276" lon="9.958305084637415"><ele>288.5</ele><time>2026-04-26T15:01:34Z</time></trkpt><trkpt lat="45.625691645152685" lon="9.958245910747081"><ele>285.25</ele><time>2026-04-26T15:01:35Z</time></trkpt><trkpt lat="45.62579706777738" lon="9.958141161953437"><ele>282.0</ele><time>2026-04-26T15:01:36Z</time></trkpt><trkpt lat="45.625913606350835" lon="9.958025039016896"><ele>282.0</ele><time>2026-04-26T15:01:37Z</time></trkpt><trkpt lat="45.62600551726212" lon="9.957947296545317"><ele>282.0</ele><time>2026-04-26T15:01:38Z</time></trkpt><trkpt lat="45.62608294009864" lon="9.957890665739054"><ele>282.0</ele><time>2026-04-26T15:01:39Z</time></trkpt><trkpt lat="45.62614570626384" lon="9.957834436539027"><ele>282.0</ele><time>2026-04-26T15:01:40Z</time></trkpt><trkpt lat="45.62620053011881" lon="9.957777265106731"><ele>282.0</ele><time>2026-04-26T15:01:41Z</time></trkpt><trkpt lat="45.626277262716336" lon="9.957709232499107"><ele>282.0</ele><time>2026-04-26T15:01:43Z</time></trkpt><trkpt lat="45.62632513127243" lon="9.957616472973706"><ele>280.1666666666667</ele><time>2026-04-26T15:01:46Z</time></trkpt><trkpt lat="45.62637948285021" lon="9.957512844850902"><ele>278.3333333333333</ele><time>2026-04-26T15:01:49Z</time></trkpt><trkpt lat="45.62635736441588" lon="9.957385340421173"><ele>276.5</ele><time>2026-04-26T15:01:51Z</time></trkpt><trkpt lat="45.6263146852909" lon="9.957256309040755"><ele>274.66666666666663</ele><time>2026-04-26T15:01:53Z</time></trkpt><trkpt lat="45.62627679618429" lon="9.957147813538684"><ele>272.8333333333333</ele><time>2026-04-26T15:01:55Z</time></trkpt><trkpt lat="45.62629623904608" lon="9.957035455450239"><ele>271.0</ele><time>2026-04-26T15:01:59Z</time></trkpt><trkpt lat="45.626515430559316" lon="9.956911758695906"><ele>271.0</ele><time>2026-04-26T15:02:02Z</time></trkpt><trkpt lat="45.626622732599145" lon="9.95687429073459"><ele>271.0</ele><time>2026-04-26T15:02:04Z</time></trkpt><trkpt lat="45.62671073697818" lon="9.956853927976011"><ele>271.0</ele><time>2026-04-26T15:02:06Z</time></trkpt><trkpt lat="45.62680973785283" lon="9.95696842685287"><ele>271.0</ele><time>2026-04-26T15:02:09Z</time></trkpt><trkpt lat="45.62686525505366" lon="9.95702094665743"><ele>271.0</ele><time>2026-04-26T15:02:10Z</time></trkpt><trkpt lat="45.62692501678029" lon="9.957064654759812"><ele>268.8333333333333</ele><time>2026-04-26T15:02:11Z</time></trkpt><trkpt lat="45.62698626864936" lon="9.957093656475347"><ele>266.66666666666663</ele><time>2026-04-26T15:02:12Z</time></trkpt><trkpt lat="45.62704922356239" lon="9.957128880159297"><ele>264.5</ele><time>2026-04-26T15:02:13Z</time></trkpt><trkpt lat="45.62713267330018" lon="9.957198284743983"><ele>262.3333333333333</ele><time>2026-04-26T15:02:15Z</time></trkpt><trkpt lat="45.62720243395184" lon="9.957309367016606"><ele>260.1666666666667</ele><time>2026-04-26T15:02:17Z</time></trkpt><trkpt lat="45.62723564738557" lon="9.957399692607174"><ele>258.0</ele><time>2026-04-26T15:02:19Z</time></trkpt><trkpt lat="45.62722725696188" lon="9.957519261196868"><ele>260.5</ele><time>2026-04-26T15:02:21Z</time></trkpt><trkpt lat="45.62721466626858" lon="9.957632389559581"><ele>263.0</ele><time>2026-04-26T15:03:01.001Z</time></trkpt><trkpt lat="45.62722317386449" lon="9.9577408581432"><ele>265.5</ele><time>2026-04-26T15:03:03.001Z</time></trkpt><trkpt lat="45.6272184566401" lon="9.957851716540963"><ele>268.0</ele><time>2026-04-26T15:03:05.001Z</time></trkpt><trkpt lat="45.62725103235855" lon="9.957936439950233"><ele>270.5</ele><time>2026-04-26T15:03:11.001Z</time></trkpt><trkpt lat="45.627260111863535" lon="9.958055325464414"><ele>273.0</ele><time>2026-04-26T15:03:19.001Z</time></trkpt><trkpt lat="45.62725618096721" lon="9.958156900504349"><ele>273.0</ele><time>2026-04-26T15:03:21.001Z</time></trkpt><trkpt lat="45.62725116201929" lon="9.958315934609987"><ele>273.0</ele><time>2026-04-26T15:03:23.001Z</time></trkpt><trkpt lat="45.62725246857112" lon="9.95847350327178"><ele>273.0</ele><time>2026-04-26T15:03:25.001Z</time></trkpt><trkpt lat="45.627249135713804" lon="9.958634418450156"><ele>273.0</ele><time>2026-04-26T15:03:27.001Z</time></trkpt><trkpt lat="45.62725354074911" lon="9.958773014366933"><ele>273.0</ele><time>2026-04-26T15:03:29.001Z</time></trkpt><trkpt lat="45.62724876581236" lon="9.958926297139135"><ele>275.8333333333333</ele><time>2026-04-26T15:03:31.001Z</time></trkpt><trkpt lat="45.62725302056191" lon="9.959076296358768"><ele>278.6666666666667</ele><time>2026-04-26T15:03:33.001Z</time></trkpt><trkpt lat="45.62721435013427" lon="9.959164224045024"><ele>281.5</ele><time>2026-04-26T15:03:35.001Z</time></trkpt><trkpt lat="45.62714351567581" lon="9.959190767397262"><ele>284.33333333333337</ele><time>2026-04-26T15:03:38.001Z</time></trkpt><trkpt lat="45.62708310378665" lon="9.959119695625853"><ele>287.1666666666667</ele><time>2026-04-26T15:03:40.001Z</time></trkpt><trkpt lat="45.62699771848464" lon="9.959065312928109"><ele>290.0</ele><time>2026-04-26T15:03:42.001Z</time></trkpt><trkpt lat="45.626903174000915" lon="9.959060166924328"><ele>295.5</ele><time>2026-04-26T15:03:44.001Z</time></trkpt><trkpt lat="45.626810823617284" lon="9.959043131809835"><ele>301.0</ele><time>2026-04-26T15:03:46.001Z</time></trkpt><trkpt lat="45.62672104084882" lon="9.959036040163962"><ele>306.5</ele><time>2026-04-26T15:03:48.001Z</time></trkpt><trkpt lat="45.62662773857671" lon="9.959039020326575"><ele>312.0</ele><time>2026-04-26T15:03:50.001Z</time></trkpt><trkpt lat="45.626613164290625" lon="9.959364154895724"><ele>315.1666666666667</ele><time>2026-04-26T15:04:00.001Z</time></trkpt><trkpt lat="45.62661388356784" lon="9.959491670611325"><ele>318.3333333333333</ele><time>2026-04-26T15:04:01.001Z</time></trkpt><trkpt lat="45.626629584257" lon="9.959612428204975"><ele>321.5</ele><time>2026-04-26T15:04:02.001Z</time></trkpt><trkpt lat="45.62668331200567" lon="9.959697550262062"><ele>324.66666666666663</ele><time>2026-04-26T15:04:05.001Z</time></trkpt><trkpt lat="45.626691802766494" lon="9.959792955926815"><ele>327.8333333333333</ele><time>2026-04-26T15:04:07.001Z</time></trkpt><trkpt lat="45.62675077886007" lon="9.959935377397723"><ele>331.0</ele><time>2026-04-26T15:04:09.001Z</time></trkpt><trkpt lat="45.62679287736708" lon="9.960020778893137"><ele>331.20000000000005</ele><time>2026-04-26T15:04:10.001Z</time></trkpt><trkpt lat="45.62682922672818" lon="9.960098412451005"><ele>331.40000000000003</ele><time>2026-04-26T15:04:11.001Z</time></trkpt><trkpt lat="45.6268888049856" lon="9.960251748942625"><ele>331.6</ele><time>2026-04-26T15:04:13.001Z</time></trkpt><trkpt lat="45.626967309726226" lon="9.960416892635175"><ele>331.8</ele><time>2026-04-26T15:04:15.001Z</time></trkpt><trkpt lat="45.6270062157494" lon="9.960490741559957"><ele>332.0</ele><time>2026-04-26T15:04:16.001Z</time></trkpt><trkpt lat="45.62705528460169" lon="9.960569770210823"><ele>332.6666666666667</ele><time>2026-04-26T15:04:17.001Z</time></trkpt><trkpt lat="45.62711806565957" lon="9.960648527694197"><ele>333.33333333333337</ele><time>2026-04-26T15:04:18.001Z</time></trkpt><trkpt lat="45.62716419285017" lon="9.960758864592396"><ele>334.0</ele><time>2026-04-26T15:04:19.001Z</time></trkpt><trkpt lat="45.62720774938401" lon="9.960832740692041"><ele>334.6666666666667</ele><time>2026-04-26T15:04:20.001Z</time></trkpt><trkpt lat="45.62731238972998" lon="9.960926547836227"><ele>335.3333333333333</ele><time>2026-04-26T15:04:22.001Z</time></trkpt><trkpt lat="45.627385113024026" lon="9.960976759440172"><ele>336.0</ele><time>2026-04-26T15:04:23.001Z</time></trkpt><trkpt lat="45.62747042941313" lon="9.961065214901891"><ele>338.20000000000005</ele><time>2026-04-26T15:04:24.001Z</time></trkpt><trkpt lat="45.62755323708502" lon="9.961142053496163"><ele>340.40000000000003</ele><time>2026-04-26T15:04:25.001Z</time></trkpt><trkpt lat="45.62763127015511" lon="9.96121825894215"><ele>342.6</ele><time>2026-04-26T15:04:26.001Z</time></trkpt><trkpt lat="45.62770915717318" lon="9.961298518571372"><ele>344.8</ele><time>2026-04-26T15:04:27.001Z</time></trkpt><trkpt lat="45.62778097624536" lon="9.961377227429272"><ele>347.0</ele><time>2026-04-26T15:04:28.001Z</time></trkpt><trkpt lat="45.62786357669453" lon="9.961463627058835"><ele>348.0</ele><time>2026-04-26T15:04:29.001Z</time></trkpt><trkpt lat="45.62793610158055" lon="9.961546060673161"><ele>349.0</ele><time>2026-04-26T15:04:30.001Z</time></trkpt><trkpt lat="45.628008753498264" lon="9.961623290867077"><ele>350.0</ele><time>2026-04-26T15:04:31.001Z</time></trkpt><trkpt lat="45.628083520798334" lon="9.961727761750518"><ele>351.0</ele><time>2026-04-26T15:04:32.001Z</time></trkpt><trkpt lat="45.628155839378124" lon="9.961842465718588"><ele>352.0</ele><time>2026-04-26T15:04:33.001Z</time></trkpt><trkpt lat="45.62821880813935" lon="9.961908107005305"><ele>355.5</ele><time>2026-04-26T15:04:34.001Z</time></trkpt><trkpt lat="45.62829549414957" lon="9.961924258277257"><ele>359.0</ele><time>2026-04-26T15:04:35.001Z</time></trkpt><trkpt lat="45.628469741447866" lon="9.961944554599851"><ele>362.5</ele><time>2026-04-26T15:04:37.001Z</time></trkpt><trkpt lat="45.62854909855086" lon="9.962003075209248"><ele>366.0</ele><time>2026-04-26T15:04:38.001Z</time></trkpt><trkpt lat="45.62864480809071" lon="9.962090779637258"><ele>366.2857142857143</ele><time>2026-04-26T15:04:40.001Z</time></trkpt><trkpt lat="45.628688070153544" lon="9.962164114765393"><ele>366.57142857142856</ele><time>2026-04-26T15:04:41.001Z</time></trkpt><trkpt lat="45.62872041641918" lon="9.962256928236783"><ele>366.8571428571429</ele><time>2026-04-26T15:04:42.001Z</time></trkpt><trkpt lat="45.62875399093663" lon="9.962351414316759"><ele>367.1428571428571</ele><time>2026-04-26T15:04:43.001Z</time></trkpt><trkpt lat="45.62877588872574" lon="9.962451450470583"><ele>367.4285714285714</ele><time>2026-04-26T15:04:44.001Z</time></trkpt><trkpt lat="45.62880796841043" lon="9.962583934677298"><ele>367.7142857142857</ele><time>2026-04-26T15:04:46.001Z</time></trkpt><trkpt lat="45.628867266617" lon="9.962614260876192"><ele>368.0</ele><time>2026-04-26T15:04:47.001Z</time></trkpt><trkpt lat="45.62892963277699" lon="9.962636086065693"><ele>374.0</ele><time>2026-04-26T15:04:48.001Z</time></trkpt><trkpt lat="45.62909990210356" lon="9.962651581343481"><ele>380.0</ele><time>2026-04-26T15:04:50.001Z</time></trkpt><trkpt lat="45.629177340336575" lon="9.962683738350163"><ele>386.0</ele><time>2026-04-26T15:04:51.001Z</time></trkpt><trkpt lat="45.629240840510064" lon="9.962725838842262"><ele>392.0</ele><time>2026-04-26T15:04:52.001Z</time></trkpt><trkpt lat="45.629305917775575" lon="9.96276180736244"><ele>398.0</ele><time>2026-04-26T15:04:53.001Z</time></trkpt><trkpt lat="45.62942320652445" lon="9.962825547523542"><ele>400.85714285714283</ele><time>2026-04-26T15:04:55.001Z</time></trkpt><trkpt lat="45.629481375952516" lon="9.962864703537408"><ele>403.7142857142857</ele><time>2026-04-26T15:04:56.001Z</time></trkpt><trkpt lat="45.629552031883954" lon="9.962867493853949"><ele>406.57142857142856</ele><time>2026-04-26T15:04:57.001Z</time></trkpt><trkpt lat="45.62961314661498" lon="9.962845026467463"><ele>409.42857142857144</ele><time>2026-04-26T15:04:58.001Z</time></trkpt><trkpt lat="45.629677399843175" lon="9.962787255962674"><ele>412.2857142857143</ele><time>2026-04-26T15:04:59Z</time></trkpt><trkpt lat="45.629734878553556" lon="9.962704590502334"><ele>415.1428571428571</ele><time>2026-04-26T15:05:00Z</time></trkpt><trkpt lat="45.62978686827783" lon="9.962648686625897"><ele>418.0</ele><time>2026-04-26T15:05:01Z</time></trkpt><trkpt lat="45.62983653271327" lon="9.962585525111189"><ele>418.0</ele><time>2026-04-26T15:05:02Z</time></trkpt><trkpt lat="45.62994485440093" lon="9.96256002506859"><ele>418.0</ele><time>2026-04-26T15:05:04Z</time></trkpt><trkpt lat="45.63003047603357" lon="9.962505660322032"><ele>418.0</ele><time>2026-04-26T15:05:06Z</time></trkpt><trkpt lat="45.63009568307446" lon="9.962479775149081"><ele>418.0</ele><time>2026-04-26T15:05:07Z</time></trkpt><trkpt lat="45.63019736801217" lon="9.96249284234022"><ele>418.0</ele><time>2026-04-26T15:05:09Z</time></trkpt><trkpt lat="45.630321646283434" lon="9.962527948070106"><ele>417.2</ele><time>2026-04-26T15:05:11Z</time></trkpt><trkpt lat="45.63044430234945" lon="9.962538181392958"><ele>416.4</ele><time>2026-04-26T15:05:13Z</time></trkpt><trkpt lat="45.630550709816234" lon="9.962541657613158"><ele>415.59999999999997</ele><time>2026-04-26T15:05:15Z</time></trkpt><trkpt lat="45.63061798679609" lon="9.96253272268665"><ele>414.79999999999995</ele><time>2026-04-26T15:05:17Z</time></trkpt><trkpt lat="45.63072350249095" lon="9.962477899246023"><ele>414.0</ele><time>2026-04-26T15:05:19Z</time></trkpt><trkpt lat="45.63082747664188" lon="9.962405586830528"><ele>414.0</ele><time>2026-04-26T15:05:21.001Z</time></trkpt><trkpt lat="45.630961541106295" lon="9.962424737866565"><ele>414.0</ele><time>2026-04-26T15:05:23.001Z</time></trkpt><trkpt lat="45.63104934247416" lon="9.96246373024682"><ele>414.0</ele><time>2026-04-26T15:05:24.001Z</time></trkpt><trkpt lat="45.63113097016146" lon="9.962506577198047"><ele>414.0</ele><time>2026-04-26T15:05:25.001Z</time></trkpt><trkpt lat="45.631227142001435" lon="9.962514995778651"><ele>414.0</ele><time>2026-04-26T15:05:26.001Z</time></trkpt><trkpt lat="45.631297302300155" lon="9.962488308871666"><ele>415.5714285714286</ele><time>2026-04-26T15:05:27.001Z</time></trkpt><trkpt lat="45.63137243097472" lon="9.96249753338477"><ele>417.14285714285717</ele><time>2026-04-26T15:05:28.001Z</time></trkpt><trkpt lat="45.63144355271873" lon="9.962509685318498"><ele>418.7142857142857</ele><time>2026-04-26T15:05:29.001Z</time></trkpt><trkpt lat="45.63150686946358" lon="9.962523980587656"><ele>420.28571428571433</ele><time>2026-04-26T15:05:30.001Z</time></trkpt><trkpt lat="45.63158341076272" lon="9.962489716278041"><ele>421.85714285714283</ele><time>2026-04-26T15:05:32.001Z</time></trkpt><trkpt lat="45.63153924514349" lon="9.962425131543005"><ele>423.42857142857144</ele><time>2026-04-26T15:05:38.001Z</time></trkpt><trkpt lat="45.631492223840624" lon="9.962489004100906"><ele>425.0</ele><time>2026-04-26T15:08:25.001Z</time></trkpt><trkpt lat="45.631407131322995" lon="9.962525840177552"><ele>424.99999999999994</ele><time>2026-04-26T15:08:27.001Z</time></trkpt><trkpt lat="45.63134107053194" lon="9.96252252632331"><ele>425.0</ele><time>2026-04-26T15:08:29.001Z</time></trkpt><trkpt lat="45.63123175737606" lon="9.962559988796942"><ele>425.0</ele><time>2026-04-26T15:08:31.001Z</time></trkpt><trkpt lat="45.6311751628969" lon="9.962695931793654"><ele>425.0</ele><time>2026-04-26T15:08:33.001Z</time></trkpt><trkpt lat="45.631129330303544" lon="9.962786804519876"><ele>424.99999999999994</ele><time>2026-04-26T15:08:35.001Z</time></trkpt><trkpt lat="45.631069087354" lon="9.962850479170026"><ele>425.0</ele><time>2026-04-26T15:08:37.001Z</time></trkpt><trkpt lat="45.630995700913516" lon="9.962884570266342"><ele>428.2</ele><time>2026-04-26T15:08:38.001Z</time></trkpt><trkpt lat="45.63090175714839" lon="9.962988867367"><ele>431.4</ele><time>2026-04-26T15:08:40.001Z</time></trkpt><trkpt lat="45.63081752998814" lon="9.963071093767722"><ele>434.6</ele><time>2026-04-26T15:08:42.001Z</time></trkpt><trkpt lat="45.630713817189715" lon="9.96307216765459"><ele>437.8</ele><time>2026-04-26T15:08:44.001Z</time></trkpt><trkpt lat="45.630637774163034" lon="9.963046711646523"><ele>441.0</ele><time>2026-04-26T15:08:45.001Z</time></trkpt><trkpt lat="45.63052734759013" lon="9.963042157745052"><ele>441.0</ele><time>2026-04-26T15:08:47.001Z</time></trkpt><trkpt lat="45.63045481723282" lon="9.963104701506362"><ele>441.0</ele><time>2026-04-26T15:08:49.001Z</time></trkpt><trkpt lat="45.630376927294584" lon="9.96315245244781"><ele>441.0</ele><time>2026-04-26T15:08:51.001Z</time></trkpt><trkpt lat="45.63032146944035" lon="9.963203589963978"><ele>441.0</ele><time>2026-04-26T15:08:53.001Z</time></trkpt><trkpt lat="45.6302565528643" lon="9.963253915527202"><ele>441.0</ele><time>2026-04-26T15:08:57.001Z</time></trkpt><trkpt lat="45.63017691643849" lon="9.963253696137539"><ele>441.0</ele><time>2026-04-26T15:09:03.001Z</time></trkpt><trkpt lat="45.63009690035644" lon="9.963210456798224"><ele>442.3333333333333</ele><time>2026-04-26T15:09:05.001Z</time></trkpt><trkpt lat="45.630011930066274" lon="9.96321106892456"><ele>443.66666666666663</ele><time>2026-04-26T15:09:08.001Z</time></trkpt><trkpt lat="45.62993869973943" lon="9.963227432548805"><ele>445.0</ele><time>2026-04-26T15:09:10.001Z</time></trkpt><trkpt lat="45.62989439749666" lon="9.963308322137733"><ele>446.3333333333333</ele><time>2026-04-26T15:09:14Z</time></trkpt><trkpt lat="45.62983180834255" lon="9.963397918822006"><ele>447.66666666666663</ele><time>2026-04-26T15:09:17Z</time></trkpt><trkpt lat="45.62973924680014" lon="9.963420968358369"><ele>449.0</ele><time>2026-04-26T15:09:20Z</time></trkpt><trkpt lat="45.629662273437404" lon="9.963448759733215"><ele>448.99999999999994</ele><time>2026-04-26T15:09:21Z</time></trkpt><trkpt lat="45.62959799238837" lon="9.963544490372827"><ele>449.0</ele><time>2026-04-26T15:09:23Z</time></trkpt><trkpt lat="45.62950679767883" lon="9.963559720954175"><ele>449.0</ele><time>2026-04-26T15:09:25Z</time></trkpt><trkpt lat="45.62943686868233" lon="9.963525210112461"><ele>449.0</ele><time>2026-04-26T15:09:28Z</time></trkpt><trkpt lat="45.62936647073365" lon="9.963501027865043"><ele>448.99999999999994</ele><time>2026-04-26T15:09:33Z</time></trkpt><trkpt lat="45.629298717650634" lon="9.96348838453613"><ele>449.0</ele><time>2026-04-26T15:09:35Z</time></trkpt><trkpt lat="45.629213571221385" lon="9.963472184875581"><ele>444.66666666666663</ele><time>2026-04-26T15:09:37Z</time></trkpt><trkpt lat="45.62914666902816" lon="9.963476573868519"><ele>440.3333333333333</ele><time>2026-04-26T15:09:39Z</time></trkpt><trkpt lat="45.6290356041521" lon="9.963522277902516"><ele>436.0</ele><time>2026-04-26T15:09:43Z</time></trkpt><trkpt lat="45.628964688668496" lon="9.963492595195467"><ele>431.66666666666663</ele><time>2026-04-26T15:09:45Z</time></trkpt><trkpt lat="45.628959166298394" lon="9.96359246545849"><ele>427.3333333333333</ele><time>2026-04-26T15:09:54Z</time></trkpt><trkpt lat="45.628944231726855" lon="9.963689144950001"><ele>423.0</ele><time>2026-04-26T15:09:56Z</time></trkpt><trkpt lat="45.62891165210511" lon="9.963774530870204"><ele>423.0</ele><time>2026-04-26T15:09:59.001Z</time></trkpt><trkpt lat="45.62883101670611" lon="9.963762252675126"><ele>423.0</ele><time>2026-04-26T15:10:02.001Z</time></trkpt><trkpt lat="45.628754232751255" lon="9.963737922897765"><ele>423.0</ele><time>2026-04-26T15:10:04.001Z</time></trkpt><trkpt lat="45.62868294021634" lon="9.963768963489315"><ele>423.0</ele><time>2026-04-26T15:10:26.001Z</time></trkpt><trkpt lat="45.62860062930457" lon="9.963765635936698"><ele>423.0</ele><time>2026-04-26T15:10:38.001Z</time></trkpt><trkpt lat="45.62860532177501" lon="9.964033480608983"><ele>425.59999999999997</ele><time>2026-04-26T15:10:53.001Z</time></trkpt><trkpt lat="45.62861986627795" lon="9.964207207298676"><ele>428.2</ele><time>2026-04-26T15:10:55.001Z</time></trkpt><trkpt lat="45.62863142867187" lon="9.964309704562808"><ele>430.8</ele><time>2026-04-26T15:10:56.001Z</time></trkpt><trkpt lat="45.628639555793356" lon="9.964419701514625"><ele>433.4</ele><time>2026-04-26T15:10:58.001Z</time></trkpt><trkpt lat="45.62865697418217" lon="9.964531393719087"><ele>436.0</ele><time>2026-04-26T15:11:00.001Z</time></trkpt><trkpt lat="45.628678694500046" lon="9.96469890601628"><ele>436.0</ele><time>2026-04-26T15:11:02.001Z</time></trkpt><trkpt lat="45.628785227453406" lon="9.96491576670074"><ele>436.0</ele><time>2026-04-26T15:11:05.001Z</time></trkpt><trkpt lat="45.62881857392968" lon="9.965014351901509"><ele>436.0</ele><time>2026-04-26T15:11:06.001Z</time></trkpt><trkpt lat="45.62885502881939" lon="9.965175913298985"><ele>436.0</ele><time>2026-04-26T15:11:08.001Z</time></trkpt><trkpt lat="45.62886504532592" lon="9.965270445160089"><ele>436.0</ele><time>2026-04-26T15:11:09.001Z</time></trkpt><trkpt lat="45.628872186985895" lon="9.965386490871118"><ele>437.4</ele><time>2026-04-26T15:11:10.001Z</time></trkpt><trkpt lat="45.62887090101478" lon="9.965527719999535"><ele>438.8</ele><time>2026-04-26T15:11:11.001Z</time></trkpt><trkpt lat="45.6288634301823" lon="9.965759729735844"><ele>440.19999999999993</ele><time>2026-04-26T15:11:13.001Z</time></trkpt><trkpt lat="45.62885508454483" lon="9.965879287654932"><ele>441.59999999999997</ele><time>2026-04-26T15:11:14.001Z</time></trkpt><trkpt lat="45.62884771059788" lon="9.9659849263944"><ele>443.0</ele><time>2026-04-26T15:11:15.001Z</time></trkpt><trkpt lat="45.628837284664506" lon="9.966134289588185"><ele>443.59999999999997</ele><time>2026-04-26T15:11:16.001Z</time></trkpt><trkpt lat="45.62881553361115" lon="9.966218965068872"><ele>444.19999999999993</ele><time>2026-04-26T15:11:18Z</time></trkpt><trkpt lat="45.62879295044462" lon="9.96633559710055"><ele>444.8</ele><time>2026-04-26T15:11:21Z</time></trkpt><trkpt lat="45.62876312162198" lon="9.966505897991173"><ele>445.4</ele><time>2026-04-26T15:11:23Z</time></trkpt><trkpt lat="45.62876826015887" lon="9.966640922750468"><ele>446.0</ele><time>2026-04-26T15:11:24Z</time></trkpt><trkpt lat="45.628884367608784" lon="9.966661165869107"><ele>445.99999999999994</ele><time>2026-04-26T15:11:25Z</time></trkpt><trkpt lat="45.62890833375286" lon="9.966798232383708"><ele>446.0</ele><time>2026-04-26T15:11:26Z</time></trkpt><trkpt lat="45.62898313628644" lon="9.966811844381683"><ele>446.0</ele><time>2026-04-26T15:11:27Z</time></trkpt><trkpt lat="45.629085208119136" lon="9.966808106303528"><ele>446.0</ele><time>2026-04-26T15:11:28Z</time></trkpt><trkpt lat="45.629185010773476" lon="9.966761009822056"><ele>445.99999999999994</ele><time>2026-04-26T15:11:29Z</time></trkpt><trkpt lat="45.62924598672298" lon="9.966720445897316"><ele>446.0</ele><time>2026-04-26T15:11:30Z</time></trkpt><trkpt lat="45.62931966110005" lon="9.966665372388464"><ele>445.99999999999994</ele><time>2026-04-26T15:11:32Z</time></trkpt><trkpt lat="45.629371980128106" lon="9.966612230990606"><ele>446.0</ele><time>2026-04-26T15:11:33Z</time></trkpt><trkpt lat="45.62944397574233" lon="9.966540139662897"><ele>446.0</ele><time>2026-04-26T15:11:34Z</time></trkpt><trkpt lat="45.62952807302309" lon="9.96645328672928"><ele>446.0</ele><time>2026-04-26T15:11:35Z</time></trkpt><trkpt lat="45.62959417309691" lon="9.96638502076131"><ele>445.99999999999994</ele><time>2026-04-26T15:11:36Z</time></trkpt><trkpt lat="45.62965802526818" lon="9.966309126419143"><ele>446.0</ele><time>2026-04-26T15:11:37Z</time></trkpt><trkpt lat="45.62972879138146" lon="9.966246025953996"><ele>446.6</ele><time>2026-04-26T15:11:38Z</time></trkpt><trkpt lat="45.629830624433716" lon="9.966142837440703"><ele>447.20000000000005</ele><time>2026-04-26T15:11:39Z</time></trkpt><trkpt lat="45.629911022730745" lon="9.966036081792444"><ele>447.79999999999995</ele><time>2026-04-26T15:11:40Z</time></trkpt><trkpt lat="45.629994840106114" lon="9.965970399344101"><ele>448.4</ele><time>2026-04-26T15:11:41Z</time></trkpt><trkpt lat="45.63004921609889" lon="9.965919561978836"><ele>449.0</ele><time>2026-04-26T15:11:42Z</time></trkpt><trkpt lat="45.63010613481904" lon="9.965852743709224"><ele>453.2</ele><time>2026-04-26T15:11:43Z</time></trkpt><trkpt lat="45.63019961317569" lon="9.965820282687158"><ele>457.4</ele><time>2026-04-26T15:11:44Z</time></trkpt><trkpt lat="45.630284404587535" lon="9.965779644424492"><ele>461.6</ele><time>2026-04-26T15:11:45Z</time></trkpt><trkpt lat="45.630399387545744" lon="9.965734100380864"><ele>465.8</ele><time>2026-04-26T15:11:46Z</time></trkpt><trkpt lat="45.63049034177302" lon="9.965716097445268"><ele>470.0</ele><time>2026-04-26T15:11:47Z</time></trkpt><trkpt lat="45.63059443756722" lon="9.965695604124571"><ele>471.8</ele><time>2026-04-26T15:11:48Z</time></trkpt><trkpt lat="45.63069076492516" lon="9.96567177155872"><ele>473.6</ele><time>2026-04-26T15:11:49Z</time></trkpt><trkpt lat="45.630750501593106" lon="9.965591768313859"><ele>475.4</ele><time>2026-04-26T15:11:50Z</time></trkpt><trkpt lat="45.630820136696734" lon="9.965551140617404"><ele>477.2</ele><time>2026-04-26T15:11:51Z</time></trkpt><trkpt lat="45.63090512757475" lon="9.965473894292279"><ele>479.0</ele><time>2026-04-26T15:11:52Z</time></trkpt><trkpt lat="45.63100962296789" lon="9.965389343701386"><ele>478.99999999999994</ele><time>2026-04-26T15:11:53Z</time></trkpt><trkpt lat="45.63108342648085" lon="9.965348907042477"><ele>479.0</ele><time>2026-04-26T15:11:54Z</time></trkpt><trkpt lat="45.631149927034194" lon="9.965315850607025"><ele>479.0</ele><time>2026-04-26T15:11:55Z</time></trkpt><trkpt lat="45.63121944975683" lon="9.965284399414168"><ele>479.0</ele><time>2026-04-26T15:11:56Z</time></trkpt><trkpt lat="45.63128846060836" lon="9.96525046680441"><ele>478.99999999999994</ele><time>2026-04-26T15:11:57Z</time></trkpt><trkpt lat="45.63138572929199" lon="9.96517315149232"><ele>479.0</ele><time>2026-04-26T15:11:59Z</time></trkpt><trkpt lat="45.63148828982308" lon="9.965253848085434"><ele>479.0</ele><time>2026-04-26T15:12:01Z</time></trkpt><trkpt lat="45.63158498192328" lon="9.96536538175348"><ele>479.0</ele><time>2026-04-26T15:12:02Z</time></trkpt><trkpt lat="45.631711182645" lon="9.965410819461473"><ele>479.0</ele><time>2026-04-26T15:12:03Z</time></trkpt><trkpt lat="45.6318340367085" lon="9.965448019310237"><ele>479.0</ele><time>2026-04-26T15:12:04Z</time></trkpt><trkpt lat="45.63196433869092" lon="9.965474885260964"><ele>479.79999999999995</ele><time>2026-04-26T15:12:05Z</time></trkpt><trkpt lat="45.63211275235534" lon="9.96549037317558"><ele>480.59999999999997</ele><time>2026-04-26T15:12:06Z</time></trkpt><trkpt lat="45.632226068695736" lon="9.965505657328455"><ele>481.4</ele><time>2026-04-26T15:12:07Z</time></trkpt><trkpt lat="45.632316979651385" lon="9.965521024327918"><ele>482.2</ele><time>2026-04-26T15:12:08Z</time></trkpt><trkpt lat="45.632403642162366" lon="9.965558541656776"><ele>483.0</ele><time>2026-04-26T15:12:09Z</time></trkpt><trkpt lat="45.63246428447603" lon="9.965621830480053"><ele>483.0</ele><time>2026-04-26T15:12:10Z</time></trkpt><trkpt lat="45.632531787528286" lon="9.965679161762937"><ele>483.0</ele><time>2026-04-26T15:12:11Z</time></trkpt><trkpt lat="45.63259033360349" lon="9.965720455932257"><ele>483.0</ele><time>2026-04-26T15:12:12Z</time></trkpt><trkpt lat="45.63264930689305" lon="9.96576732387131"><ele>483.0</ele><time>2026-04-26T15:12:13Z</time></trkpt><trkpt lat="45.63271805307419" lon="9.965818939663674"><ele>483.0</ele><time>2026-04-26T15:12:14Z</time></trkpt><trkpt lat="45.632843123060944" lon="9.965860172132517"><ele>483.0</ele><time>2026-04-26T15:12:16Z</time></trkpt><trkpt lat="45.632927204435646" lon="9.965880608162301"><ele>484.3333333333333</ele><time>2026-04-26T15:12:17Z</time></trkpt><trkpt lat="45.63300882748112" lon="9.965873847847721"><ele>485.66666666666663</ele><time>2026-04-26T15:12:18.001Z</time></trkpt><trkpt lat="45.63309846906579" lon="9.965864048199974"><ele>487.0</ele><time>2026-04-26T15:12:19.001Z</time></trkpt><trkpt lat="45.63318056634582" lon="9.965837813592808"><ele>488.3333333333333</ele><time>2026-04-26T15:12:20.001Z</time></trkpt><trkpt lat="45.63326657427212" lon="9.965832084448135"><ele>489.66666666666663</ele><time>2026-04-26T15:12:21.001Z</time></trkpt><trkpt lat="45.63336178133179" lon="9.965819348098421"><ele>491.0</ele><time>2026-04-26T15:12:22.001Z</time></trkpt><trkpt lat="45.63347699645822" lon="9.965784782508424"><ele>491.0</ele><time>2026-04-26T15:12:23.001Z</time></trkpt><trkpt lat="45.63360740052918" lon="9.965731349606685"><ele>491.0</ele><time>2026-04-26T15:12:24.001Z</time></trkpt><trkpt lat="45.63375749178188" lon="9.96570297273357"><ele>491.0</ele><time>2026-04-26T15:12:25.001Z</time></trkpt><trkpt lat="45.633870517815716" lon="9.965733964923729"><ele>491.0</ele><time>2026-04-26T15:12:26.001Z</time></trkpt><trkpt lat="45.633946539837765" lon="9.965729851002116"><ele>492.0</ele><time>2026-04-26T15:12:27.001Z</time></trkpt><trkpt lat="45.63402128797362" lon="9.965725542856129"><ele>493.0</ele><time>2026-04-26T15:12:28.001Z</time></trkpt><trkpt lat="45.634107021837465" lon="9.965772182995554"><ele>494.0</ele><time>2026-04-26T15:12:29.001Z</time></trkpt><trkpt lat="45.63420448866843" lon="9.965873570383296"><ele>495.0</ele><time>2026-04-26T15:12:30.001Z</time></trkpt><trkpt lat="45.63432463364403" lon="9.966020842994261"><ele>496.0</ele><time>2026-04-26T15:12:31.001Z</time></trkpt><trkpt lat="45.63442524942913" lon="9.966128380965669"><ele>497.4</ele><time>2026-04-26T15:12:32.001Z</time></trkpt><trkpt lat="45.63450362047852" lon="9.966214848524167"><ele>498.8</ele><time>2026-04-26T15:12:33.001Z</time></trkpt><trkpt lat="45.63456215003782" lon="9.966352124124395"><ele>500.19999999999993</ele><time>2026-04-26T15:12:34.001Z</time></trkpt><trkpt lat="45.63463408276828" lon="9.966481433650213"><ele>501.59999999999997</ele><time>2026-04-26T15:12:35.001Z</time></trkpt><trkpt lat="45.63470329126219" lon="9.96654776127514"><ele>503.0</ele><time>2026-04-26T15:12:36.001Z</time></trkpt><trkpt lat="45.63478012010585" lon="9.966601813763095"><ele>503.0</ele><time>2026-04-26T15:12:37.001Z</time></trkpt><trkpt lat="45.6348710680221" lon="9.966638934290138"><ele>502.99999999999994</ele><time>2026-04-26T15:12:38.001Z</time></trkpt><trkpt lat="45.63496678504952" lon="9.966675618104526"><ele>502.99999999999994</ele><time>2026-04-26T15:12:39.001Z</time></trkpt><trkpt lat="45.63506663346446" lon="9.966726451059687"><ele>503.0</ele><time>2026-04-26T15:12:40.001Z</time></trkpt><trkpt lat="45.63517124195902" lon="9.966795039434825"><ele>503.0</ele><time>2026-04-26T15:12:41.001Z</time></trkpt><trkpt lat="45.635267793257405" lon="9.966866024643512"><ele>502.59999999999997</ele><time>2026-04-26T15:12:42.001Z</time></trkpt><trkpt lat="45.63534439819565" lon="9.96693371128791"><ele>502.19999999999993</ele><time>2026-04-26T15:12:43.001Z</time></trkpt><trkpt lat="45.63543014154965" lon="9.966995874176195"><ele>501.8</ele><time>2026-04-26T15:12:44.001Z</time></trkpt><trkpt lat="45.63552507229228" lon="9.967058216329763"><ele>501.4</ele><time>2026-04-26T15:12:45.001Z</time></trkpt><trkpt lat="45.63562653065695" lon="9.967100165026718"><ele>501.0</ele><time>2026-04-26T15:12:46.001Z</time></trkpt><trkpt lat="45.635713894354865" lon="9.967160058225602"><ele>501.0</ele><time>2026-04-26T15:12:47.001Z</time></trkpt><trkpt lat="45.6357830969223" lon="9.967217457436998"><ele>501.0</ele><time>2026-04-26T15:12:48.001Z</time></trkpt><trkpt lat="45.63585957613368" lon="9.967283531815331"><ele>501.0</ele><time>2026-04-26T15:12:49.001Z</time></trkpt><trkpt lat="45.63597226776396" lon="9.967358374362284"><ele>501.0</ele><time>2026-04-26T15:12:50.001Z</time></trkpt><trkpt lat="45.63609650011415" lon="9.967422882605032"><ele>501.0</ele><time>2026-04-26T15:12:51.001Z</time></trkpt><trkpt lat="45.636234893333445" lon="9.967488858192343"><ele>501.25</ele><time>2026-04-26T15:12:52.001Z</time></trkpt><trkpt lat="45.636356995913864" lon="9.96758207199531"><ele>501.5</ele><time>2026-04-26T15:12:53.001Z</time></trkpt><trkpt lat="45.63647021082875" lon="9.967660740751658"><ele>501.75</ele><time>2026-04-26T15:12:54.001Z</time></trkpt><trkpt lat="45.63656877795797" lon="9.967750436269142"><ele>502.0</ele><time>2026-04-26T15:12:55.001Z</time></trkpt><trkpt lat="45.63665762351175" lon="9.9678464327678"><ele>502.0</ele><time>2026-04-26T15:12:56.001Z</time></trkpt><trkpt lat="45.63673888905919" lon="9.967944190076764"><ele>502.00000000000006</ele><time>2026-04-26T15:12:57.001Z</time></trkpt><trkpt lat="45.636810304138045" lon="9.968036053061835"><ele>502.00000000000006</ele><time>2026-04-26T15:12:58.001Z</time></trkpt><trkpt lat="45.6368785114139" lon="9.968114406707377"><ele>502.0</ele><time>2026-04-26T15:12:59.001Z</time></trkpt><trkpt lat="45.636943116704934" lon="9.968183002281615"><ele>502.0</ele><time>2026-04-26T15:13:00.001Z</time></trkpt><trkpt lat="45.637016321724055" lon="9.968256328586595"><ele>504.50000000000006</ele><time>2026-04-26T15:13:01.001Z</time></trkpt><trkpt lat="45.637073008607885" lon="9.96833078312153"><ele>507.0</ele><time>2026-04-26T15:13:02.001Z</time></trkpt><trkpt lat="45.63714569118234" lon="9.968395542432882"><ele>509.5</ele><time>2026-04-26T15:13:03.001Z</time></trkpt><trkpt lat="45.63722615157794" lon="9.968453751625077"><ele>512.0</ele><time>2026-04-26T15:13:04.001Z</time></trkpt><trkpt lat="45.63729172002949" lon="9.968501274418818"><ele>514.5</ele><time>2026-04-26T15:13:05.001Z</time></trkpt><trkpt lat="45.63737525116473" lon="9.968562285202923"><ele>517.0</ele><time>2026-04-26T15:13:06.001Z</time></trkpt><trkpt lat="45.63746345975837" lon="9.968617933801458"><ele>517.0</ele><time>2026-04-26T15:13:07.001Z</time></trkpt><trkpt lat="45.637546448023194" lon="9.968675150641188"><ele>517.0</ele><time>2026-04-26T15:13:08.001Z</time></trkpt><trkpt lat="45.63762874291117" lon="9.968733708266821"><ele>517.0</ele><time>2026-04-26T15:13:09.001Z</time></trkpt><trkpt lat="45.63771517808127" lon="9.96878020354458"><ele>517.0</ele><time>2026-04-26T15:13:10.001Z</time></trkpt><trkpt lat="45.637778701888465" lon="9.968840366912593"><ele>517.0</ele><time>2026-04-26T15:13:11.001Z</time></trkpt><trkpt lat="45.63783825240035" lon="9.968944324518441"><ele>517.0</ele><time>2026-04-26T15:13:13.001Z</time></trkpt><trkpt lat="45.63795471447422" lon="9.968982114179997"><ele>522.3333333333334</ele><time>2026-04-26T15:13:15.001Z</time></trkpt><trkpt lat="45.63802781929275" lon="9.969062050422732"><ele>527.6666666666666</ele><time>2026-04-26T15:13:17.001Z</time></trkpt><trkpt lat="45.63806740388121" lon="9.96916263894754"><ele>533.0</ele><time>2026-04-26T15:13:19.001Z</time></trkpt><trkpt lat="45.63851701016898" lon="9.969592837782288"><ele>533.0</ele><time>2026-04-26T15:13:26Z</time></trkpt><trkpt lat="45.638626735467696" lon="9.969704451064297"><ele>533.0</ele><time>2026-04-26T15:13:27Z</time></trkpt><trkpt lat="45.63872682645918" lon="9.969787754389161"><ele>533.0</ele><time>2026-04-26T15:13:28Z</time></trkpt><trkpt lat="45.63880792254917" lon="9.969871842282826"><ele>533.0</ele><time>2026-04-26T15:13:29Z</time></trkpt><trkpt lat="45.638891633122505" lon="9.96993809695013"><ele>533.0</ele><time>2026-04-26T15:13:30Z</time></trkpt><trkpt lat="45.638971937972244" lon="9.96999621362975"><ele>539.1999999999999</ele><time>2026-04-26T15:13:31Z</time></trkpt><trkpt lat="45.63906140770266" lon="9.970083929898717"><ele>545.4</ele><time>2026-04-26T15:13:32Z</time></trkpt><trkpt lat="45.6391534524679" lon="9.97015323630311"><ele>551.5999999999999</ele><time>2026-04-26T15:13:33Z</time></trkpt><trkpt lat="45.63922056477368" lon="9.970245973102303"><ele>557.8</ele><time>2026-04-26T15:13:34Z</time></trkpt><trkpt lat="45.639268398454924" lon="9.970363155383698"><ele>564.0</ele><time>2026-04-26T15:13:36Z</time></trkpt><trkpt lat="45.63930227239061" lon="9.970485752530491"><ele>564.0</ele><time>2026-04-26T15:13:54Z</time></trkpt><trkpt lat="45.63941415123062" lon="9.970638600820159"><ele>564.0</ele><time>2026-04-26T15:13:56Z</time></trkpt><trkpt lat="45.63947719679457" lon="9.970755948105918"><ele>564.0</ele><time>2026-04-26T15:13:57Z</time></trkpt><trkpt lat="45.63936728730024" lon="9.971083787970416"><ele>564.0</ele><time>2026-04-26T15:13:58Z</time></trkpt><trkpt lat="45.63939053276381" lon="9.971219363958786"><ele>564.0</ele><time>2026-04-26T15:13:59Z</time></trkpt><trkpt lat="45.63939333678271" lon="9.971323700579275"><ele>564.0</ele><time>2026-04-26T15:14:00Z</time></trkpt><trkpt lat="45.639404035850085" lon="9.971474863144678"><ele>564.0</ele><time>2026-04-26T15:14:02Z</time></trkpt><trkpt lat="45.639436293296825" lon="9.971613777285437"><ele>564.0</ele><time>2026-04-26T15:14:04Z</time></trkpt><trkpt lat="45.639522177249845" lon="9.971757185976612"><ele>568.2</ele><time>2026-04-26T15:14:06Z</time></trkpt><trkpt lat="45.63961668837456" lon="9.97185705477818"><ele>572.4</ele><time>2026-04-26T15:14:07Z</time></trkpt><trkpt lat="45.639708757299026" lon="9.971955883247704"><ele>576.6</ele><time>2026-04-26T15:14:08Z</time></trkpt><trkpt lat="45.63977952403374" lon="9.972025104734124"><ele>580.8</ele><time>2026-04-26T15:14:09Z</time></trkpt><trkpt lat="45.639833202633014" lon="9.972086360051117"><ele>585.0</ele><time>2026-04-26T15:14:10Z</time></trkpt><trkpt lat="45.63989428884672" lon="9.97214736150509"><ele>585.0</ele><time>2026-04-26T15:14:11Z</time></trkpt><trkpt lat="45.63997668433756" lon="9.972216202631625"><ele>585.0</ele><time>2026-04-26T15:14:12Z</time></trkpt><trkpt lat="45.64005183015013" lon="9.972302257968932"><ele>585.0</ele><time>2026-04-26T15:14:13Z</time></trkpt><trkpt lat="45.640122796955424" lon="9.972416283369718"><ele>585.0</ele><time>2026-04-26T15:14:14Z</time></trkpt><trkpt lat="45.640192500273244" lon="9.972547520391132"><ele>585.0</ele><time>2026-04-26T15:14:15Z</time></trkpt><trkpt lat="45.64024810563894" lon="9.972676876888247"><ele>593.0</ele><time>2026-04-26T15:14:16Z</time></trkpt><trkpt lat="45.640314013856475" lon="9.972848730179715"><ele>601.0</ele><time>2026-04-26T15:14:17Z</time></trkpt><trkpt lat="45.640368925341484" lon="9.972991348777766"><ele>609.0</ele><time>2026-04-26T15:14:18Z</time></trkpt><trkpt lat="45.640429315174444" lon="9.973159110747156"><ele>617.0</ele><time>2026-04-26T15:14:19Z</time></trkpt><trkpt lat="45.640479169403314" lon="9.973324092410076"><ele>617.2</ele><time>2026-04-26T15:14:20Z</time></trkpt><trkpt lat="45.64053974216858" lon="9.973491632969234"><ele>617.4000000000001</ele><time>2026-04-26T15:14:21Z</time></trkpt><trkpt lat="45.64057249518906" lon="9.973625270994082"><ele>617.5999999999999</ele><time>2026-04-26T15:14:22Z</time></trkpt><trkpt lat="45.64059921898362" lon="9.973714056056467"><ele>617.8</ele><time>2026-04-26T15:14:23Z</time></trkpt><trkpt lat="45.64070179227813" lon="9.97383996320303"><ele>618.0</ele><time>2026-04-26T15:14:25Z</time></trkpt><trkpt lat="45.640769726889374" lon="9.973909759487697"><ele>618.0</ele><time>2026-04-26T15:14:26Z</time></trkpt><trkpt lat="45.64085910032744" lon="9.973993104206087"><ele>618.0</ele><time>2026-04-26T15:14:27Z</time></trkpt><trkpt lat="45.64095179122704" lon="9.974089594508358"><ele>618.0</ele><time>2026-04-26T15:14:28Z</time></trkpt><trkpt lat="45.6410322086851" lon="9.974194263346451"><ele>618.0</ele><time>2026-04-26T15:14:29Z</time></trkpt><trkpt lat="45.641096868527725" lon="9.974291041357734"><ele>618.0</ele><time>2026-04-26T15:14:30Z</time></trkpt><trkpt lat="45.641155436650166" lon="9.974401183360508"><ele>621.75</ele><time>2026-04-26T15:14:31Z</time></trkpt><trkpt lat="45.641224934641855" lon="9.974530035752425"><ele>625.5</ele><time>2026-04-26T15:14:32Z</time></trkpt><trkpt lat="45.64131176606943" lon="9.974669524409032"><ele>629.25</ele><time>2026-04-26T15:14:33.001Z</time></trkpt><trkpt lat="45.64141833405142" lon="9.97482005078899"><ele>633.0</ele><time>2026-04-26T15:14:34.001Z</time></trkpt><trkpt lat="45.64152162837581" lon="9.97496244929191"><ele>628.75</ele><time>2026-04-26T15:14:35.001Z</time></trkpt><trkpt lat="45.641621061482255" lon="9.97507504134167"><ele>624.5</ele><time>2026-04-26T15:14:36.001Z</time></trkpt><trkpt lat="45.64172467836369" lon="9.975165075710793"><ele>620.25</ele><time>2026-04-26T15:14:37.001Z</time></trkpt><trkpt lat="45.64181303093786" lon="9.975263921253267"><ele>616.0</ele><time>2026-04-26T15:14:38.001Z</time></trkpt><trkpt lat="45.64190197504659" lon="9.975370173858705"><ele>618.8</ele><time>2026-04-26T15:14:39.001Z</time></trkpt><trkpt lat="45.64198252080355" lon="9.975479382227933"><ele>621.6</ele><time>2026-04-26T15:14:40.001Z</time></trkpt><trkpt lat="45.64206514147999" lon="9.975572211418873"><ele>624.4</ele><time>2026-04-26T15:14:41.001Z</time></trkpt><trkpt lat="45.6421539660553" lon="9.975666813497801"><ele>627.2</ele><time>2026-04-26T15:14:42.001Z</time></trkpt><trkpt lat="45.6422402993084" lon="9.975776250193613"><ele>630.0</ele><time>2026-04-26T15:14:43.001Z</time></trkpt><trkpt lat="45.64232266792778" lon="9.975891727622807"><ele>630.0</ele><time>2026-04-26T15:14:44.001Z</time></trkpt><trkpt lat="45.642408781274504" lon="9.97600382572018"><ele>630.0</ele><time>2026-04-26T15:14:45.001Z</time></trkpt><trkpt lat="45.64248650666819" lon="9.976106386202286"><ele>630.0</ele><time>2026-04-26T15:14:46.001Z</time></trkpt><trkpt lat="45.64253317468223" lon="9.976207193634274"><ele>630.0</ele><time>2026-04-26T15:14:47.001Z</time></trkpt><trkpt lat="45.642567248711735" lon="9.976292482971928"><ele>630.0</ele><time>2026-04-26T15:14:48.001Z</time></trkpt><trkpt lat="45.64262163414711" lon="9.976364863701152"><ele>630.0</ele><time>2026-04-26T15:14:51.001Z</time></trkpt><trkpt lat="45.64265675683334" lon="9.97628978834743"><ele>630.0</ele><time>2026-04-26T15:21:54Z</time></trkpt><trkpt lat="45.64263731089663" lon="9.97620186171662"><ele>630.0</ele><time>2026-04-26T15:22:07Z</time></trkpt><trkpt lat="45.64261212474805" lon="9.976329058208933"><ele>630.0</ele><time>2026-04-26T15:23:48.001Z</time></trkpt><trkpt lat="45.64264517500949" lon="9.976235353930123"><ele>630.0</ele><time>2026-04-26T15:26:39Z</time></trkpt><trkpt lat="45.64270510740677" lon="9.976161425589101"><ele>630.0</ele><time>2026-04-26T15:26:42Z</time></trkpt><trkpt lat="45.642735596640925" lon="9.976076869939074"><ele>630.0</ele><time>2026-04-26T15:26:45Z</time></trkpt><trkpt lat="45.64278876345697" lon="9.976002180869136"><ele>632.0</ele><time>2026-04-26T15:26:49Z</time></trkpt><trkpt lat="45.64287443216946" lon="9.97598891616638"><ele>634.0</ele><time>2026-04-26T15:26:52Z</time></trkpt><trkpt lat="45.64295115370059" lon="9.975915425672305"><ele>636.0</ele><time>2026-04-26T15:26:55Z</time></trkpt><trkpt lat="45.642999576183904" lon="9.97584047441518"><ele>638.0</ele><time>2026-04-26T15:26:57Z</time></trkpt><trkpt lat="45.6430598098859" lon="9.975692725657662"><ele>640.0</ele><time>2026-04-26T15:26:59Z</time></trkpt><trkpt lat="45.64309010471808" lon="9.975604472782283"><ele>642.0</ele><time>2026-04-26T15:27:01Z</time></trkpt><trkpt lat="45.64314941423292" lon="9.975543245994658"><ele>642.2</ele><time>2026-04-26T15:27:05Z</time></trkpt><trkpt lat="45.6432251866116" lon="9.975447549050969"><ele>642.4000000000001</ele><time>2026-04-26T15:27:08Z</time></trkpt><trkpt lat="45.64337776188329" lon="9.975437879577276"><ele>642.5999999999999</ele><time>2026-04-26T15:27:11Z</time></trkpt><trkpt lat="45.64348253679897" lon="9.975489259383034"><ele>642.8</ele><time>2026-04-26T15:27:13Z</time></trkpt><trkpt lat="45.643556380938875" lon="9.975467730579451"><ele>643.0</ele><time>2026-04-26T15:27:14Z</time></trkpt><trkpt lat="45.64361986372136" lon="9.975452771084672"><ele>642.1666666666667</ele><time>2026-04-26T15:27:15Z</time></trkpt><trkpt lat="45.64374333658481" lon="9.975387004768695"><ele>641.3333333333334</ele><time>2026-04-26T15:27:17Z</time></trkpt><trkpt lat="45.64380769237368" lon="9.975362418353324"><ele>640.5</ele><time>2026-04-26T15:27:18Z</time></trkpt><trkpt lat="45.643873620726744" lon="9.975334369690719"><ele>639.6666666666666</ele><time>2026-04-26T15:27:19Z</time></trkpt><trkpt lat="45.64393313372564" lon="9.975285288961716"><ele>638.8333333333333</ele><time>2026-04-26T15:27:20Z</time></trkpt><trkpt lat="45.643995181290265" lon="9.975205701746226"><ele>638.0</ele><time>2026-04-26T15:27:21Z</time></trkpt><trkpt lat="45.644056883221346" lon="9.975176244099625"><ele>638.0</ele><time>2026-04-26T15:27:22Z</time></trkpt><trkpt lat="45.64412295055637" lon="9.9751075004377"><ele>638.0</ele><time>2026-04-26T15:27:23Z</time></trkpt><trkpt lat="45.64418009634116" lon="9.975045742299795"><ele>638.0</ele><time>2026-04-26T15:27:24Z</time></trkpt><trkpt lat="45.64426515799012" lon="9.974921951639176"><ele>638.0</ele><time>2026-04-26T15:27:26Z</time></trkpt><trkpt lat="45.64430635823797" lon="9.974807080619838"><ele>638.0</ele><time>2026-04-26T15:27:29Z</time></trkpt><trkpt lat="45.6443055302583" lon="9.974678764797517"><ele>635.1666666666666</ele><time>2026-04-26T15:27:31Z</time></trkpt><trkpt lat="45.64430641309522" lon="9.97454567965878"><ele>632.3333333333333</ele><time>2026-04-26T15:27:34Z</time></trkpt><trkpt lat="45.64433685111287" lon="9.97443254781463"><ele>629.5</ele><time>2026-04-26T15:27:37Z</time></trkpt><trkpt lat="45.64433215030842" lon="9.974334990788385"><ele>626.6666666666666</ele><time>2026-04-26T15:27:41Z</time></trkpt><trkpt lat="45.644289316933346" lon="9.974259305562029"><ele>623.8333333333334</ele><time>2026-04-26T15:27:45Z</time></trkpt><trkpt lat="45.644213370966526" lon="9.97424760341335"><ele>621.0</ele><time>2026-04-26T15:27:47Z</time></trkpt><trkpt lat="45.64415188684206" lon="9.974268658195058"><ele>621.0</ele><time>2026-04-26T15:27:48Z</time></trkpt><trkpt lat="45.644054954086" lon="9.974318771690044"><ele>621.0</ele><time>2026-04-26T15:27:50Z</time></trkpt><trkpt lat="45.643984281740586" lon="9.974276534497966"><ele>621.0</ele><time>2026-04-26T15:27:52Z</time></trkpt><trkpt lat="45.6439224367139" lon="9.974194060288683"><ele>621.0</ele><time>2026-04-26T15:27:56Z</time></trkpt><trkpt lat="45.6438628157367" lon="9.97411866699063"><ele>621.0</ele><time>2026-04-26T15:27:59Z</time></trkpt><trkpt lat="45.64386221371708" lon="9.974026246071475"><ele>621.0</ele><time>2026-04-26T15:28:01Z</time></trkpt><trkpt lat="45.64388594643093" lon="9.973930883787345"><ele>617.8333333333334</ele><time>2026-04-26T15:28:04Z</time></trkpt><trkpt lat="45.64390511566156" lon="9.973843480163126"><ele>614.6666666666666</ele><time>2026-04-26T15:28:06Z</time></trkpt><trkpt lat="45.643905705576614" lon="9.97374620959349"><ele>611.5</ele><time>2026-04-26T15:28:10Z</time></trkpt><trkpt lat="45.643936580368745" lon="9.973660867760149"><ele>608.3333333333333</ele><time>2026-04-26T15:28:13Z</time></trkpt><trkpt lat="45.64398394600712" lon="9.973595236887562"><ele>605.1666666666666</ele><time>2026-04-26T15:28:16Z</time></trkpt><trkpt lat="45.64402807451219" lon="9.973507290583466"><ele>602.0</ele><time>2026-04-26T15:28:19Z</time></trkpt><trkpt lat="45.644097637387986" lon="9.973384535665273"><ele>598.25</ele><time>2026-04-26T15:28:21Z</time></trkpt><trkpt lat="45.644197758022244" lon="9.97319848693249"><ele>594.5</ele><time>2026-04-26T15:28:22Z</time></trkpt><trkpt lat="45.644325506106604" lon="9.97313739692973"><ele>590.75</ele><time>2026-04-26T15:28:24Z</time></trkpt><trkpt lat="45.6444296357672" lon="9.973079450191936"><ele>587.0</ele><time>2026-04-26T15:28:25Z</time></trkpt><trkpt lat="45.64451180029006" lon="9.97304345976248"><ele>587.0</ele><time>2026-04-26T15:28:26Z</time></trkpt><trkpt lat="45.6445755379658" lon="9.973002620898649"><ele>587.0</ele><time>2026-04-26T15:28:27Z</time></trkpt><trkpt lat="45.64463647775675" lon="9.972968448056678"><ele>587.0</ele><time>2026-04-26T15:28:28Z</time></trkpt><trkpt lat="45.644721205840256" lon="9.97294596497759"><ele>587.0</ele><time>2026-04-26T15:28:29Z</time></trkpt><trkpt lat="45.644801615039576" lon="9.972926604072796"><ele>587.0</ele><time>2026-04-26T15:28:30Z</time></trkpt><trkpt lat="45.64488317061559" lon="9.972925992885493"><ele>587.0</ele><time>2026-04-26T15:28:31Z</time></trkpt><trkpt lat="45.644959574705226" lon="9.972947274421276"><ele>587.0</ele><time>2026-04-26T15:28:32Z</time></trkpt><trkpt lat="45.6450302729198" lon="9.972975884754385"><ele>587.0</ele><time>2026-04-26T15:28:33Z</time></trkpt><trkpt lat="45.64510096476336" lon="9.972992562909505"><ele>587.0</ele><time>2026-04-26T15:28:34Z</time></trkpt><trkpt lat="45.645161376241845" lon="9.973026183563213"><ele>587.0</ele><time>2026-04-26T15:28:35Z</time></trkpt><trkpt lat="45.645245863797676" lon="9.973136956584572"><ele>587.0</ele><time>2026-04-26T15:28:37Z</time></trkpt><trkpt lat="45.645286531738336" lon="9.973222349979"><ele>587.0</ele><time>2026-04-26T15:28:38Z</time></trkpt><trkpt lat="45.64532570208327" lon="9.973312672917922"><ele>588.0</ele><time>2026-04-26T15:28:39Z</time></trkpt><trkpt lat="45.64538698272514" lon="9.973407860969008"><ele>589.0</ele><time>2026-04-26T15:28:40Z</time></trkpt><trkpt lat="45.6454582050075" lon="9.973511013280284"><ele>590.0</ele><time>2026-04-26T15:28:41Z</time></trkpt><trkpt lat="45.64556465808887" lon="9.973649501255457"><ele>591.0</ele><time>2026-04-26T15:28:42Z</time></trkpt><trkpt lat="45.64564214841543" lon="9.973774223350693"><ele>591.0</ele><time>2026-04-26T15:28:43Z</time></trkpt><trkpt lat="45.6456893003925" lon="9.973851309317931"><ele>591.0</ele><time>2026-04-26T15:28:44Z</time></trkpt><trkpt lat="45.64573436527105" lon="9.97392988969609"><ele>591.0</ele><time>2026-04-26T15:28:45Z</time></trkpt><trkpt lat="45.64579841735132" lon="9.974038246950286"><ele>591.0</ele><time>2026-04-26T15:28:46Z</time></trkpt><trkpt lat="45.645846274057206" lon="9.974155655980764"><ele>591.0</ele><time>2026-04-26T15:28:47Z</time></trkpt><trkpt lat="45.645892847809684" lon="9.974260250439356"><ele>591.0</ele><time>2026-04-26T15:28:48Z</time></trkpt><trkpt lat="45.64592957300272" lon="9.97434038484435"><ele>592.0</ele><time>2026-04-26T15:28:49Z</time></trkpt><trkpt lat="45.64597086443048" lon="9.974508031320127"><ele>593.0</ele><time>2026-04-26T15:28:51Z</time></trkpt><trkpt lat="45.645997832218214" lon="9.974589593438656"><ele>594.0</ele><time>2026-04-26T15:28:52Z</time></trkpt><trkpt lat="45.646006433621146" lon="9.974691042008484"><ele>595.0</ele><time>2026-04-26T15:28:53Z</time></trkpt><trkpt lat="45.64601300508858" lon="9.974791214978403"><ele>596.0</ele><time>2026-04-26T15:28:54Z</time></trkpt><trkpt lat="45.64599566684075" lon="9.974932718010738"><ele>597.0</ele><time>2026-04-26T15:28:56Z</time></trkpt><trkpt lat="45.645960860071874" lon="9.975025309262158"><ele>597.8000000000001</ele><time>2026-04-26T15:28:59Z</time></trkpt><trkpt lat="45.64584201786392" lon="9.975080887137375"><ele>598.6</ele><time>2026-04-26T15:29:01Z</time></trkpt><trkpt lat="45.64570369688199" lon="9.975104251767807"><ele>599.4000000000001</ele><time>2026-04-26T15:29:03Z</time></trkpt><trkpt lat="45.645626112140214" lon="9.975131064997539"><ele>600.2</ele><time>2026-04-26T15:29:04Z</time></trkpt><trkpt lat="45.64554442694219" lon="9.97515812920871"><ele>601.0</ele><time>2026-04-26T15:29:05Z</time></trkpt><trkpt lat="45.64544386920181" lon="9.975203841968007"><ele>601.0</ele><time>2026-04-26T15:29:07Z</time></trkpt><trkpt lat="45.645384313582596" lon="9.975248227066178"><ele>601.0</ele><time>2026-04-26T15:29:09Z</time></trkpt><trkpt lat="45.64531899562358" lon="9.975286009825757"><ele>601.0</ele><time>2026-04-26T15:29:10Z</time></trkpt><trkpt lat="45.64524571134246" lon="9.975320248493972"><ele>601.0</ele><time>2026-04-26T15:29:11Z</time></trkpt><trkpt lat="45.64515700828903" lon="9.975413245989364"><ele>601.0</ele><time>2026-04-26T15:29:13Z</time></trkpt><trkpt lat="45.645091308612535" lon="9.97541842999962"><ele>601.0</ele><time>2026-04-26T15:29:14Z</time></trkpt><trkpt lat="45.64503338379862" lon="9.975467455462951"><ele>605.2</ele><time>2026-04-26T15:29:15Z</time></trkpt><trkpt lat="45.64496687002737" lon="9.975545767198486"><ele>609.4000000000001</ele><time>2026-04-26T15:29:17Z</time></trkpt><trkpt lat="45.64490985503636" lon="9.975675616741515"><ele>613.6</ele><time>2026-04-26T15:29:19Z</time></trkpt><trkpt lat="45.64484252405239" lon="9.975797086912442"><ele>617.8000000000001</ele><time>2026-04-26T15:29:21Z</time></trkpt><trkpt lat="45.64480151744238" lon="9.975889166523228"><ele>622.0</ele><time>2026-04-26T15:29:24Z</time></trkpt><trkpt lat="45.64470721709374" lon="9.975952053629367"><ele>622.6666666666667</ele><time>2026-04-26T15:29:26Z</time></trkpt><trkpt lat="45.64464944290333" lon="9.976011012577104"><ele>623.3333333333334</ele><time>2026-04-26T15:29:28Z</time></trkpt><trkpt lat="45.644593419640046" lon="9.976073488309039"><ele>624.0</ele><time>2026-04-26T15:29:30Z</time></trkpt><trkpt lat="45.644537233977644" lon="9.97612962532747"><ele>624.6666666666666</ele><time>2026-04-26T15:29:31Z</time></trkpt><trkpt lat="45.64446518320873" lon="9.97618728605856"><ele>625.3333333333333</ele><time>2026-04-26T15:29:32Z</time></trkpt><trkpt lat="45.64436301881663" lon="9.976252283397613"><ele>626.0</ele><time>2026-04-26T15:29:33Z</time></trkpt><trkpt lat="45.64428550601171" lon="9.97631700590951"><ele>625.0</ele><time>2026-04-26T15:29:34Z</time></trkpt><trkpt lat="45.644227743423244" lon="9.976371604584386"><ele>624.0</ele><time>2026-04-26T15:29:35Z</time></trkpt><trkpt lat="45.6441676649479" lon="9.976455626475511"><ele>623.0</ele><time>2026-04-26T15:29:36Z</time></trkpt><trkpt lat="45.64410127207932" lon="9.976563790969044"><ele>622.0</ele><time>2026-04-26T15:29:37Z</time></trkpt><trkpt lat="45.64402439652142" lon="9.97666618160833"><ele>621.0</ele><time>2026-04-26T15:29:38Z</time></trkpt><trkpt lat="45.643979466080225" lon="9.976752480139467"><ele>620.0</ele><time>2026-04-26T15:29:39Z</time></trkpt><trkpt lat="45.64391711452599" lon="9.976776317606237"><ele>620.0</ele><time>2026-04-26T15:29:41Z</time></trkpt><trkpt lat="45.64384879061477" lon="9.976818103769187"><ele>620.0</ele><time>2026-04-26T15:29:43Z</time></trkpt><trkpt lat="45.64378388509471" lon="9.976850588618815"><ele>620.0</ele><time>2026-04-26T15:29:46Z</time></trkpt><trkpt lat="45.64383975657064" lon="9.976956156448631"><ele>620.0</ele><time>2026-04-26T15:29:49Z</time></trkpt><trkpt lat="45.643918754651004" lon="9.97701197934495"><ele>620.0</ele><time>2026-04-26T15:29:51Z</time></trkpt><trkpt lat="45.644002877987354" lon="9.977053487628131"><ele>620.0</ele><time>2026-04-26T15:29:53Z</time></trkpt><trkpt lat="45.64409790270484" lon="9.977096342771674"><ele>620.0</ele><time>2026-04-26T15:29:55Z</time></trkpt><trkpt lat="45.644206177675166" lon="9.977159611517573"><ele>620.0</ele><time>2026-04-26T15:29:57Z</time></trkpt><trkpt lat="45.644263832983846" lon="9.977199465202302"><ele>620.0</ele><time>2026-04-26T15:29:58Z</time></trkpt><trkpt lat="45.64432289952057" lon="9.977234583505284"><ele>620.0</ele><time>2026-04-26T15:29:59Z</time></trkpt><trkpt lat="45.644391845687075" lon="9.977262957815888"><ele>620.0</ele><time>2026-04-26T15:30:00Z</time></trkpt><trkpt lat="45.644462264328936" lon="9.977289008913194"><ele>620.0</ele><time>2026-04-26T15:30:01Z</time></trkpt><trkpt lat="45.644529823973386" lon="9.977316294332889"><ele>621.0</ele><time>2026-04-26T15:30:02Z</time></trkpt><trkpt lat="45.64458700313104" lon="9.977358723743672"><ele>622.0</ele><time>2026-04-26T15:30:03Z</time></trkpt><trkpt lat="45.64464370774771" lon="9.977402115015863"><ele>623.0</ele><time>2026-04-26T15:30:04Z</time></trkpt><trkpt lat="45.64475448074652" lon="9.977491819704579"><ele>624.0</ele><time>2026-04-26T15:30:06Z</time></trkpt><trkpt lat="45.64481599919316" lon="9.977528367741039"><ele>625.0</ele><time>2026-04-26T15:30:07Z</time></trkpt><trkpt lat="45.64487771269882" lon="9.977559484627289"><ele>626.0</ele><time>2026-04-26T15:30:08Z</time></trkpt><trkpt lat="45.644950926000284" lon="9.977582889666074"><ele>624.4285714285714</ele><time>2026-04-26T15:30:09Z</time></trkpt><trkpt lat="45.64502417331831" lon="9.977601502210586"><ele>622.8571428571429</ele><time>2026-04-26T15:30:10Z</time></trkpt><trkpt lat="45.64508721314233" lon="9.977629657842215"><ele>621.2857142857142</ele><time>2026-04-26T15:30:11Z</time></trkpt><trkpt lat="45.64516780261301" lon="9.977655295233575"><ele>619.7142857142858</ele><time>2026-04-26T15:30:12Z</time></trkpt><trkpt lat="45.64525097040924" lon="9.97768755591323"><ele>618.1428571428572</ele><time>2026-04-26T15:30:13Z</time></trkpt><trkpt lat="45.6453061754442" lon="9.97773780917073"><ele>616.5714285714286</ele><time>2026-04-26T15:30:14Z</time></trkpt><trkpt lat="45.64535899221628" lon="9.977795999968123"><ele>615.0</ele><time>2026-04-26T15:30:15Z</time></trkpt><trkpt lat="45.64542488161411" lon="9.97788013014069"><ele>615.0</ele><time>2026-04-26T15:30:16Z</time></trkpt><trkpt lat="45.64550350084305" lon="9.977959249472981"><ele>615.0</ele><time>2026-04-26T15:30:17Z</time></trkpt><trkpt lat="45.64558968244927" lon="9.978029826489795"><ele>615.0</ele><time>2026-04-26T15:30:18Z</time></trkpt><trkpt lat="45.645660066916854" lon="9.978070068335956"><ele>615.0</ele><time>2026-04-26T15:30:19Z</time></trkpt><trkpt lat="45.6457511695496" lon="9.97814645590349"><ele>615.0</ele><time>2026-04-26T15:30:21Z</time></trkpt><trkpt lat="45.64582783948697" lon="9.978222858891455"><ele>615.0</ele><time>2026-04-26T15:30:23Z</time></trkpt><trkpt lat="45.645910668286774" lon="9.97828057852244"><ele>615.0</ele><time>2026-04-26T15:30:25Z</time></trkpt><trkpt lat="45.645988804554456" lon="9.9782952836818"><ele>615.0</ele><time>2026-04-26T15:30:28Z</time></trkpt><trkpt lat="45.64605830103214" lon="9.978362118637577"><ele>615.0</ele><time>2026-04-26T15:30:30Z</time></trkpt><trkpt lat="45.64612190845353" lon="9.978438186018675"><ele>615.0</ele><time>2026-04-26T15:30:32Z</time></trkpt><trkpt lat="45.6461714157181" lon="9.978520000307192"><ele>615.0</ele><time>2026-04-26T15:30:34Z</time></trkpt><trkpt lat="45.64624661528862" lon="9.978601276636933"><ele>611.2</ele><time>2026-04-26T15:30:36Z</time></trkpt><trkpt lat="45.646315906630775" lon="9.978657324035462"><ele>607.4</ele><time>2026-04-26T15:30:38Z</time></trkpt><trkpt lat="45.64639716762034" lon="9.97873603450176"><ele>603.6</ele><time>2026-04-26T15:30:41Z</time></trkpt><trkpt lat="45.64648431381323" lon="9.97882976381843"><ele>599.8</ele><time>2026-04-26T15:30:43Z</time></trkpt><trkpt lat="45.64658322699403" lon="9.978860424442948"><ele>596.0</ele><time>2026-04-26T15:30:45Z</time></trkpt><trkpt lat="45.646679482499515" lon="9.978857842429488"><ele>596.0</ele><time>2026-04-26T15:30:47Z</time></trkpt><trkpt lat="45.646765950330014" lon="9.978871307102118"><ele>596.0</ele><time>2026-04-26T15:30:49Z</time></trkpt><trkpt lat="45.64683700449769" lon="9.978942461142998"><ele>596.0</ele><time>2026-04-26T15:30:51Z</time></trkpt><trkpt lat="45.64690327691429" lon="9.979021034544674"><ele>596.0</ele><time>2026-04-26T15:30:53Z</time></trkpt><trkpt lat="45.64699209990389" lon="9.979039770533891"><ele>596.0</ele><time>2026-04-26T15:30:55Z</time></trkpt><trkpt lat="45.647090583700866" lon="9.979049302235165"><ele>596.0</ele><time>2026-04-26T15:30:57Z</time></trkpt><trkpt lat="45.64715600266531" lon="9.979067878152524"><ele>594.8333333333333</ele><time>2026-04-26T15:31:00Z</time></trkpt><trkpt lat="45.6471843763877" lon="9.97916629024925"><ele>593.6666666666666</ele><time>2026-04-26T15:31:03Z</time></trkpt><trkpt lat="45.647218530666834" lon="9.979284779920128"><ele>592.5</ele><time>2026-04-26T15:31:06Z</time></trkpt><trkpt lat="45.64726829540722" lon="9.979364816665152"><ele>591.3333333333334</ele><time>2026-04-26T15:31:08Z</time></trkpt><trkpt lat="45.647335690475195" lon="9.979414268003652"><ele>590.1666666666667</ele><time>2026-04-26T15:31:10Z</time></trkpt><trkpt lat="45.64744282957264" lon="9.97948043288404"><ele>589.0</ele><time>2026-04-26T15:31:14Z</time></trkpt><trkpt lat="45.647532581118526" lon="9.97954677580817"><ele>586.5</ele><time>2026-04-26T15:31:17Z</time></trkpt><trkpt lat="45.64759480898078" lon="9.979647218917021"><ele>584.0</ele><time>2026-04-26T15:31:19Z</time></trkpt><trkpt lat="45.647643902996286" lon="9.979713692544994"><ele>581.5</ele><time>2026-04-26T15:31:21Z</time></trkpt><trkpt lat="45.64770555924304" lon="9.979754139791845"><ele>579.0</ele><time>2026-04-26T15:31:23Z</time></trkpt><trkpt lat="45.647768839469634" lon="9.979847759697384"><ele>576.5</ele><time>2026-04-26T15:31:26Z</time></trkpt><trkpt lat="45.64778727853665" lon="9.979991919089805"><ele>574.0</ele><time>2026-04-26T15:31:29Z</time></trkpt><trkpt lat="45.64781954854751" lon="9.980100573976872"><ele>570.75</ele><time>2026-04-26T15:31:31Z</time></trkpt><trkpt lat="45.6478553828194" lon="9.980223635557339"><ele>567.5</ele><time>2026-04-26T15:31:33Z</time></trkpt><trkpt lat="45.64791055360258" lon="9.980312861717598"><ele>564.25</ele><time>2026-04-26T15:31:35Z</time></trkpt><trkpt lat="45.64797970968074" lon="9.980421463898447"><ele>561.0</ele><time>2026-04-26T15:31:37Z</time></trkpt><trkpt lat="45.64811191410611" lon="9.980684016630152"><ele>561.0</ele><time>2026-04-26T15:31:40Z</time></trkpt><trkpt lat="45.64820175847794" lon="9.98077985127315"><ele>561.0</ele><time>2026-04-26T15:31:42Z</time></trkpt><trkpt lat="45.64827677449465" lon="9.980892349871205"><ele>561.0</ele><time>2026-04-26T15:31:44Z</time></trkpt><trkpt lat="45.6483261339923" lon="9.981025992795686"><ele>561.0</ele><time>2026-04-26T15:31:46Z</time></trkpt><trkpt lat="45.64839386633942" lon="9.981137323908861"><ele>561.0</ele><time>2026-04-26T15:31:48Z</time></trkpt><trkpt lat="45.648474357466284" lon="9.981213663762842"><ele>558.3333333333334</ele><time>2026-04-26T15:31:50Z</time></trkpt><trkpt lat="45.648572705704765" lon="9.981262986335123"><ele>555.6666666666666</ele><time>2026-04-26T15:31:52Z</time></trkpt><trkpt lat="45.6486718174259" lon="9.981255402623972"><ele>553.0</ele><time>2026-04-26T15:31:54Z</time></trkpt><trkpt lat="45.64874287041673" lon="9.981265024260995"><ele>550.3333333333333</ele><time>2026-04-26T15:31:56Z</time></trkpt><trkpt lat="45.64881089387794" lon="9.981258602359906"><ele>547.6666666666666</ele><time>2026-04-26T15:32:00Z</time></trkpt><trkpt lat="45.64884544525002" lon="9.981352794285776"><ele>545.0</ele><time>2026-04-26T15:32:03Z</time></trkpt><trkpt lat="45.64894912703793" lon="9.98139303360867"><ele>545.0</ele><time>2026-04-26T15:32:05Z</time></trkpt><trkpt lat="45.64903611961563" lon="9.981393540516857"><ele>545.0</ele><time>2026-04-26T15:32:09Z</time></trkpt><trkpt lat="45.649102133046014" lon="9.981371259752782"><ele>545.0</ele><time>2026-04-26T15:32:11Z</time></trkpt><trkpt lat="45.64919241390408" lon="9.981378044449322"><ele>545.0</ele><time>2026-04-26T15:32:14Z</time></trkpt><trkpt lat="45.64926919875974" lon="9.981446914449412"><ele>545.0</ele><time>2026-04-26T15:32:17Z</time></trkpt><trkpt lat="45.64953237261547" lon="9.981517367613138"><ele>542.2</ele><time>2026-04-26T15:32:20Z</time></trkpt><trkpt lat="45.64960756268432" lon="9.981600247726057"><ele>539.4</ele><time>2026-04-26T15:32:22Z</time></trkpt><trkpt lat="45.64967862224358" lon="9.98171083707197"><ele>536.6</ele><time>2026-04-26T15:32:24Z</time></trkpt><trkpt lat="45.64976237424759" lon="9.981837497497672"><ele>533.8</ele><time>2026-04-26T15:32:26Z</time></trkpt><trkpt lat="45.64983377464624" lon="9.981965523802083"><ele>531.0</ele><time>2026-04-26T15:32:28Z</time></trkpt><trkpt lat="45.64990944989936" lon="9.982055240961694"><ele>529.6</ele><time>2026-04-26T15:32:30Z</time></trkpt><trkpt lat="45.64997495384359" lon="9.982162556754702"><ele>528.2</ele><time>2026-04-26T15:32:32Z</time></trkpt><trkpt lat="45.65003071878195" lon="9.982299183313549"><ele>526.8</ele><time>2026-04-26T15:32:34Z</time></trkpt><trkpt lat="45.65011011455904" lon="9.982410290280425"><ele>525.4</ele><time>2026-04-26T15:32:36Z</time></trkpt><trkpt lat="45.65018275821159" lon="9.982519851910437"><ele>524.0</ele><time>2026-04-26T15:32:38Z</time></trkpt><trkpt lat="45.65021329017222" lon="9.982670348226646"><ele>521.5</ele><time>2026-04-26T15:32:40Z</time></trkpt><trkpt lat="45.65023129084571" lon="9.982811463622136"><ele>519.0</ele><time>2026-04-26T15:32:42Z</time></trkpt><trkpt lat="45.65024216867541" lon="9.98294312643823"><ele>516.5</ele><time>2026-04-26T15:32:44Z</time></trkpt><trkpt lat="45.65027016638762" lon="9.983066306469341"><ele>514.0</ele><time>2026-04-26T15:32:46Z</time></trkpt><trkpt lat="45.65029597339324" lon="9.983150176481676"><ele>511.49999999999994</ele><time>2026-04-26T15:32:47Z</time></trkpt><trkpt lat="45.650341471889085" lon="9.983274843730664"><ele>509.0</ele><time>2026-04-26T15:32:49Z</time></trkpt><trkpt lat="45.65040817956835" lon="9.983314031062372"><ele>507.66666666666663</ele><time>2026-04-26T15:32:51Z</time></trkpt><trkpt lat="45.650478416368024" lon="9.983323280757238"><ele>506.3333333333333</ele><time>2026-04-26T15:32:53Z</time></trkpt><trkpt lat="45.650562800727194" lon="9.983312682625074"><ele>505.0</ele><time>2026-04-26T15:32:57Z</time></trkpt><trkpt lat="45.65062273292207" lon="9.983349091283033"><ele>503.66666666666663</ele><time>2026-04-26T15:33:00Z</time></trkpt><trkpt lat="45.65064604814312" lon="9.983434190290343"><ele>502.3333333333333</ele><time>2026-04-26T15:33:02Z</time></trkpt><trkpt lat="45.65061724109574" lon="9.983550347135976"><ele>501.0</ele><time>2026-04-26T15:33:04Z</time></trkpt><trkpt lat="45.65054895771853" lon="9.983679455665879"><ele>499.25</ele><time>2026-04-26T15:33:06Z</time></trkpt><trkpt lat="45.650433583617044" lon="9.98377274727604"><ele>497.5</ele><time>2026-04-26T15:33:08Z</time></trkpt><trkpt lat="45.650323397176365" lon="9.983858320681055"><ele>495.75</ele><time>2026-04-26T15:33:10Z</time></trkpt><trkpt lat="45.65021445288163" lon="9.983951940913629"><ele>494.0</ele><time>2026-04-26T15:33:12Z</time></trkpt><trkpt lat="45.65014996214019" lon="9.984101090451087"><ele>492.2</ele><time>2026-04-26T15:33:14Z</time></trkpt><trkpt lat="45.65010991350152" lon="9.984235745246236"><ele>490.4</ele><time>2026-04-26T15:33:16Z</time></trkpt><trkpt lat="45.650131601028605" lon="9.98433710365905"><ele>488.6</ele><time>2026-04-26T15:33:17Z</time></trkpt><trkpt lat="45.65013263109833" lon="9.98453706009"><ele>486.8</ele><time>2026-04-26T15:33:19Z</time></trkpt><trkpt lat="45.650136469044334" lon="9.984633274097101"><ele>485.0</ele><time>2026-04-26T15:33:20Z</time></trkpt><trkpt lat="45.650157993604424" lon="9.984724497439185"><ele>485.0</ele><time>2026-04-26T15:33:21Z</time></trkpt><trkpt lat="45.65021106954674" lon="9.98485145286294"><ele>485.0</ele><time>2026-04-26T15:33:23Z</time></trkpt><trkpt lat="45.65036267737762" lon="9.98481076137968"><ele>485.0</ele><time>2026-04-26T15:33:32Z</time></trkpt><trkpt lat="45.65042070855642" lon="9.984743478025912"><ele>485.0</ele><time>2026-04-26T15:33:33Z</time></trkpt><trkpt lat="45.650515049273665" lon="9.984655967754396"><ele>485.0</ele><time>2026-04-26T15:33:34Z</time></trkpt><trkpt lat="45.650589178741235" lon="9.984606450057528"><ele>482.8333333333333</ele><time>2026-04-26T15:33:35Z</time></trkpt><trkpt lat="45.650680497597946" lon="9.98462347773463"><ele>480.66666666666663</ele><time>2026-04-26T15:33:37Z</time></trkpt><trkpt lat="45.65075139148927" lon="9.98473967751338"><ele>478.5</ele><time>2026-04-26T15:33:39Z</time></trkpt><trkpt lat="45.65080994855591" lon="9.984810794116436"><ele>476.33333333333337</ele><time>2026-04-26T15:33:40Z</time></trkpt><trkpt lat="45.650870092031525" lon="9.984861158994498"><ele>474.1666666666667</ele><time>2026-04-26T15:33:41Z</time></trkpt><trkpt lat="45.65093080120167" lon="9.984911934338209"><ele>472.0</ele><time>2026-04-26T15:33:43Z</time></trkpt><trkpt lat="45.6509855374246" lon="9.984988555847364"><ele>468.20000000000005</ele><time>2026-04-26T15:33:45Z</time></trkpt><trkpt lat="45.65104090177525" lon="9.985102862403698"><ele>464.40000000000003</ele><time>2026-04-26T15:33:47Z</time></trkpt><trkpt lat="45.65108580242765" lon="9.985214396139988"><ele>460.59999999999997</ele><time>2026-04-26T15:33:49Z</time></trkpt><trkpt lat="45.65112987277948" lon="9.985345503958126"><ele>456.79999999999995</ele><time>2026-04-26T15:33:51Z</time></trkpt><trkpt lat="45.65118827399039" lon="9.985447369366165"><ele>453.0</ele><time>2026-04-26T15:33:53Z</time></trkpt><trkpt lat="45.651266448464334" lon="9.985475110785389"><ele>452.3333333333333</ele><time>2026-04-26T15:33:55Z</time></trkpt><trkpt lat="45.65133779217997" lon="9.985508004073324"><ele>451.66666666666663</ele><time>2026-04-26T15:33:57Z</time></trkpt><trkpt lat="45.65141337736242" lon="9.985514527316644"><ele>451.0</ele><time>2026-04-26T15:33:59Z</time></trkpt><trkpt lat="45.65149320027525" lon="9.98549946825436"><ele>450.3333333333333</ele><time>2026-04-26T15:34:01Z</time></trkpt><trkpt lat="45.65158661432109" lon="9.985485480386545"><ele>449.66666666666663</ele><time>2026-04-26T15:34:03Z</time></trkpt><trkpt lat="45.651679207187385" lon="9.985517170301542"><ele>449.0</ele><time>2026-04-26T15:34:05Z</time></trkpt><trkpt lat="45.65174888429544" lon="9.985485984147884"><ele>449.0</ele><time>2026-04-26T15:34:07Z</time></trkpt><trkpt lat="45.65181456607246" lon="9.985453306829786"><ele>449.0</ele><time>2026-04-26T15:34:09Z</time></trkpt><trkpt lat="45.65188187676372" lon="9.985457804136507"><ele>449.0</ele><time>2026-04-26T15:34:11Z</time></trkpt><trkpt lat="45.65196961363566" lon="9.985413543945441"><ele>449.0</ele><time>2026-04-26T15:34:13Z</time></trkpt><trkpt lat="45.65210624364644" lon="9.985374556586612"><ele>449.0</ele><time>2026-04-26T15:34:15Z</time></trkpt><trkpt lat="45.652214141090035" lon="9.985373666811412"><ele>446.79999999999995</ele><time>2026-04-26T15:34:16Z</time></trkpt><trkpt lat="45.65230924910686" lon="9.985353033762014"><ele>444.59999999999997</ele><time>2026-04-26T15:34:17Z</time></trkpt><trkpt lat="45.65238243536286" lon="9.985315109278092"><ele>442.4</ele><time>2026-04-26T15:34:18Z</time></trkpt><trkpt lat="45.65246224772815" lon="9.985229480906316"><ele>440.2</ele><time>2026-04-26T15:34:20Z</time></trkpt><trkpt lat="45.652480511573806" lon="9.985063685727178"><ele>438.0</ele><time>2026-04-26T15:34:21Z</time></trkpt><trkpt lat="45.65248936651569" lon="9.984932800876503"><ele>438.0</ele><time>2026-04-26T15:34:22Z</time></trkpt><trkpt lat="45.652519684750565" lon="9.984817539818323"><ele>437.99999999999994</ele><time>2026-04-26T15:34:24Z</time></trkpt><trkpt lat="45.65254895954007" lon="9.98464962268219"><ele>437.99999999999994</ele><time>2026-04-26T15:34:26Z</time></trkpt><trkpt lat="45.652543343738046" lon="9.98453754384427"><ele>438.0</ele><time>2026-04-26T15:34:27Z</time></trkpt><trkpt lat="45.65253484623062" lon="9.984369082921846"><ele>438.0</ele><time>2026-04-26T15:34:29Z</time></trkpt><trkpt lat="45.652503799471425" lon="9.984275377650718"><ele>438.2</ele><time>2026-04-26T15:34:30Z</time></trkpt><trkpt lat="45.652422837881296" lon="9.984107408612422"><ele>438.4</ele><time>2026-04-26T15:34:32Z</time></trkpt><trkpt lat="45.65240035500005" lon="9.983967108346159"><ele>438.59999999999997</ele><time>2026-04-26T15:34:34Z</time></trkpt><trkpt lat="45.652443041505414" lon="9.983885032523027"><ele>438.79999999999995</ele><time>2026-04-26T15:34:36Z</time></trkpt><trkpt lat="45.65243878543832" lon="9.983703175260914"><ele>439.0</ele><time>2026-04-26T15:34:38Z</time></trkpt><trkpt lat="45.65245128374825" lon="9.983556811417593"><ele>439.00000000000006</ele><time>2026-04-26T15:34:40Z</time></trkpt><trkpt lat="45.652474869122926" lon="9.98343863222378"><ele>439.0</ele><time>2026-04-26T15:34:41Z</time></trkpt><trkpt lat="45.65250825203205" lon="9.983329865802062"><ele>439.0</ele><time>2026-04-26T15:34:42Z</time></trkpt><trkpt lat="45.652539648724726" lon="9.983221667816153"><ele>439.0</ele><time>2026-04-26T15:34:43Z</time></trkpt><trkpt lat="45.652541839064284" lon="9.98311863495989"><ele>439.00000000000006</ele><time>2026-04-26T15:34:44Z</time></trkpt><trkpt lat="45.6525444417255" lon="9.983004165852961"><ele>439.0</ele><time>2026-04-26T15:34:45Z</time></trkpt><trkpt lat="45.652550170522225" lon="9.98289560636844"><ele>439.00000000000006</ele><time>2026-04-26T15:34:46Z</time></trkpt><trkpt lat="45.65257137796076" lon="9.982791267645306"><ele>439.0</ele><time>2026-04-26T15:34:47Z</time></trkpt><trkpt lat="45.652594242830816" lon="9.982686674659062"><ele>439.0</ele><time>2026-04-26T15:34:48Z</time></trkpt><trkpt lat="45.65261771870077" lon="9.982576510733184"><ele>439.0</ele><time>2026-04-26T15:34:49Z</time></trkpt><trkpt lat="45.65262765556973" lon="9.982465843841736"><ele>439.00000000000006</ele><time>2026-04-26T15:34:50Z</time></trkpt><trkpt lat="45.65263519608427" lon="9.982359354932937"><ele>439.0</ele><time>2026-04-26T15:34:51Z</time></trkpt><trkpt lat="45.6526445351074" lon="9.982259371649526"><ele>438.57142857142856</ele><time>2026-04-26T15:34:52Z</time></trkpt><trkpt lat="45.652657202248974" lon="9.982165125330114"><ele>438.1428571428571</ele><time>2026-04-26T15:34:53Z</time></trkpt><trkpt lat="45.652668005284546" lon="9.982065269624604"><ele>437.7142857142857</ele><time>2026-04-26T15:34:54Z</time></trkpt><trkpt lat="45.6526884600317" lon="9.981950054255286"><ele>437.2857142857143</ele><time>2026-04-26T15:34:55Z</time></trkpt><trkpt lat="45.65270212477718" lon="9.981854612629915"><ele>436.8571428571429</ele><time>2026-04-26T15:34:56Z</time></trkpt><trkpt lat="45.65265701789625" lon="9.98174451980072"><ele>436.42857142857144</ele><time>2026-04-26T15:34:57Z</time></trkpt><trkpt lat="45.65266884018236" lon="9.981655016285917"><ele>436.0</ele><time>2026-04-26T15:34:58Z</time></trkpt><trkpt lat="45.65269701594735" lon="9.981551605940812"><ele>434.8</ele><time>2026-04-26T15:34:59Z</time></trkpt><trkpt lat="45.652692086982825" lon="9.98144469530966"><ele>433.6</ele><time>2026-04-26T15:35:00Z</time></trkpt><trkpt lat="45.65270514843048" lon="9.981338591301947"><ele>432.4</ele><time>2026-04-26T15:35:01Z</time></trkpt><trkpt lat="45.652727251841654" lon="9.981182423374197"><ele>431.2</ele><time>2026-04-26T15:35:03Z</time></trkpt><trkpt lat="45.65274641096984" lon="9.981065188364658"><ele>430.0</ele><time>2026-04-26T15:35:05Z</time></trkpt><trkpt lat="45.65285003920408" lon="9.9809606790983"><ele>426.83333333333337</ele><time>2026-04-26T15:35:07Z</time></trkpt><trkpt lat="45.6529144332338" lon="9.980924991041592"><ele>423.6666666666667</ele><time>2026-04-26T15:35:08Z</time></trkpt><trkpt lat="45.65298293913141" lon="9.98080027196736"><ele>420.5</ele><time>2026-04-26T15:35:10Z</time></trkpt><trkpt lat="45.653035683504434" lon="9.980717498202253"><ele>417.33333333333337</ele><time>2026-04-26T15:35:11Z</time></trkpt><trkpt lat="45.65310971475155" lon="9.980653492861519"><ele>414.1666666666667</ele><time>2026-04-26T15:35:12Z</time></trkpt><trkpt lat="45.65318902710574" lon="9.980689145731773"><ele>411.0</ele><time>2026-04-26T15:35:13Z</time></trkpt><trkpt lat="45.65324318963791" lon="9.980891901725249"><ele>411.0</ele><time>2026-04-26T15:35:14Z</time></trkpt><trkpt lat="45.65336069724134" lon="9.980863923935791"><ele>411.0</ele><time>2026-04-26T15:35:16Z</time></trkpt><trkpt lat="45.65345001321773" lon="9.98084265838125"><ele>411.0</ele><time>2026-04-26T15:35:18Z</time></trkpt><trkpt lat="45.65346769969081" lon="9.980750105518988"><ele>411.0</ele><time>2026-04-26T15:35:19Z</time></trkpt><trkpt lat="45.65343779023741" lon="9.980642881790779"><ele>411.0</ele><time>2026-04-26T15:35:20Z</time></trkpt><trkpt lat="45.65338385882948" lon="9.980562162780165"><ele>411.0</ele><time>2026-04-26T15:35:21Z</time></trkpt><trkpt lat="45.65336396770718" lon="9.980382197900441"><ele>411.0</ele><time>2026-04-26T15:35:23Z</time></trkpt><trkpt lat="45.65337594396412" lon="9.98021388181934"><ele>411.0</ele><time>2026-04-26T15:35:24Z</time></trkpt><trkpt lat="45.653400025925265" lon="9.97999816169844"><ele>411.0</ele><time>2026-04-26T15:35:25Z</time></trkpt><trkpt lat="45.653419075475156" lon="9.97986892798174"><ele>411.0</ele><time>2026-04-26T15:35:26Z</time></trkpt><trkpt lat="45.653457008461494" lon="9.97969885963858"><ele>411.6666666666667</ele><time>2026-04-26T15:35:28Z</time></trkpt><trkpt lat="45.65347943017925" lon="9.979610767583143"><ele>412.33333333333337</ele><time>2026-04-26T15:35:29Z</time></trkpt><trkpt lat="45.65359694532548" lon="9.979520390508593"><ele>413.0</ele><time>2026-04-26T15:35:31Z</time></trkpt><trkpt lat="45.653661908137394" lon="9.979523037452017"><ele>413.6666666666667</ele><time>2026-04-26T15:35:32Z</time></trkpt><trkpt lat="45.65375269038646" lon="9.979570172623136"><ele>414.33333333333337</ele><time>2026-04-26T15:35:33Z</time></trkpt><trkpt lat="45.65383544829484" lon="9.979590642005112"><ele>415.0</ele><time>2026-04-26T15:35:34Z</time></trkpt><trkpt lat="45.653901179376795" lon="9.979605800946278"><ele>415.50000000000006</ele><time>2026-04-26T15:35:35Z</time></trkpt><trkpt lat="45.65396028860961" lon="9.979429168825721"><ele>416.0</ele><time>2026-04-26T15:35:36Z</time></trkpt><trkpt lat="45.65399598292658" lon="9.979341017153853"><ele>416.5</ele><time>2026-04-26T15:35:37Z</time></trkpt><trkpt lat="45.654033034089224" lon="9.979246418243132"><ele>417.0</ele><time>2026-04-26T15:35:38Z</time></trkpt><trkpt lat="45.654058344461454" lon="9.979152666605751"><ele>417.50000000000006</ele><time>2026-04-26T15:35:39Z</time></trkpt><trkpt lat="45.6540695362344" lon="9.979058971937574"><ele>418.0</ele><time>2026-04-26T15:35:40Z</time></trkpt><trkpt lat="45.65413550391941" lon="9.979127981931697"><ele>418.0</ele><time>2026-04-26T15:35:44Z</time></trkpt><trkpt lat="45.654225412033675" lon="9.979317781528554"><ele>418.0</ele><time>2026-04-26T15:35:46Z</time></trkpt><trkpt lat="45.65428658053661" lon="9.979395449645207"><ele>418.0</ele><time>2026-04-26T15:35:47Z</time></trkpt><trkpt lat="45.65433775234941" lon="9.979467436752566"><ele>418.0</ele><time>2026-04-26T15:35:48Z</time></trkpt><trkpt lat="45.6543911082819" lon="9.979545145894294"><ele>418.0</ele><time>2026-04-26T15:35:49Z</time></trkpt><trkpt lat="45.65444626075832" lon="9.979628402286046"><ele>419.33333333333337</ele><time>2026-04-26T15:35:50Z</time></trkpt><trkpt lat="45.65450487516303" lon="9.979711175605154"><ele>420.6666666666667</ele><time>2026-04-26T15:35:51Z</time></trkpt><trkpt lat="45.654557944838864" lon="9.979786331044059"><ele>422.0</ele><time>2026-04-26T15:35:52Z</time></trkpt><trkpt lat="45.65461848072499" lon="9.979881353883158"><ele>423.33333333333337</ele><time>2026-04-26T15:35:53Z</time></trkpt><trkpt lat="45.654679907439025" lon="9.979964276181434"><ele>424.6666666666667</ele><time>2026-04-26T15:35:54Z</time></trkpt><trkpt lat="45.654751878886984" lon="9.980052622282555"><ele>426.0</ele><time>2026-04-26T15:35:55Z</time></trkpt><trkpt lat="45.65482380031995" lon="9.980155134557638"><ele>426.0</ele><time>2026-04-26T15:35:56Z</time></trkpt><trkpt lat="45.65492931277568" lon="9.980319148444547"><ele>426.0</ele><time>2026-04-26T15:35:57Z</time></trkpt><trkpt lat="45.65502033800871" lon="9.980468415098795"><ele>426.0</ele><time>2026-04-26T15:35:58Z</time></trkpt><trkpt lat="45.65509386913332" lon="9.980568871370846"><ele>426.0</ele><time>2026-04-26T15:35:59Z</time></trkpt><trkpt lat="45.655161328299265" lon="9.980649995531758"><ele>426.0</ele><time>2026-04-26T15:36:00Z</time></trkpt><trkpt lat="45.65521715986245" lon="9.980738202079342"><ele>426.0</ele><time>2026-04-26T15:36:01Z</time></trkpt><trkpt lat="45.65526422022026" lon="9.98082481275131"><ele>426.0</ele><time>2026-04-26T15:36:02Z</time></trkpt><trkpt lat="45.65533271141032" lon="9.980913442072787"><ele>426.0</ele><time>2026-04-26T15:36:03Z</time></trkpt><trkpt lat="45.655405930012634" lon="9.981015132323314"><ele>426.0</ele><time>2026-04-26T15:36:04Z</time></trkpt><trkpt lat="45.65546451535622" lon="9.981109568575643"><ele>426.0</ele><time>2026-04-26T15:36:05Z</time></trkpt><trkpt lat="45.65553201759526" lon="9.981196494329824"><ele>426.5</ele><time>2026-04-26T15:36:06Z</time></trkpt><trkpt lat="45.6556105285076" lon="9.981279943684585"><ele>427.0</ele><time>2026-04-26T15:36:07Z</time></trkpt><trkpt lat="45.655695747915395" lon="9.98136680860917"><ele>427.5</ele><time>2026-04-26T15:36:08Z</time></trkpt><trkpt lat="45.65581114025309" lon="9.981469892287459"><ele>428.0</ele><time>2026-04-26T15:36:09Z</time></trkpt><trkpt lat="45.6559257864658" lon="9.98159235718073"><ele>424.25</ele><time>2026-04-26T15:36:10Z</time></trkpt><trkpt lat="45.6560276377745" lon="9.981728576171067"><ele>420.5</ele><time>2026-04-26T15:36:11Z</time></trkpt><trkpt lat="45.656146275230725" lon="9.98187194825676"><ele>416.75</ele><time>2026-04-26T15:36:12Z</time></trkpt><trkpt lat="45.65623987396154" lon="9.981988612687221"><ele>413.0</ele><time>2026-04-26T15:36:13Z</time></trkpt><trkpt lat="45.656320502827306" lon="9.982102659574393"><ele>419.75</ele><time>2026-04-26T15:36:14Z</time></trkpt><trkpt lat="45.6564059048" lon="9.982240204999428"><ele>426.5</ele><time>2026-04-26T15:36:15Z</time></trkpt><trkpt lat="45.65647733761917" lon="9.982382322230288"><ele>433.25</ele><time>2026-04-26T15:36:16Z</time></trkpt><trkpt lat="45.65656596921927" lon="9.982532202148395"><ele>440.0</ele><time>2026-04-26T15:36:17Z</time></trkpt><trkpt lat="45.65665610870071" lon="9.982668168766574"><ele>440.0</ele><time>2026-04-26T15:36:18Z</time></trkpt><trkpt lat="45.656721511653174" lon="9.982793283313638"><ele>440.0</ele><time>2026-04-26T15:36:19Z</time></trkpt><trkpt lat="45.656755824444524" lon="9.98289937474647"><ele>440.0</ele><time>2026-04-26T15:36:20Z</time></trkpt><trkpt lat="45.65684225695266" lon="9.983007248181089"><ele>440.0</ele><time>2026-04-26T15:36:22Z</time></trkpt><trkpt lat="45.6569255135373" lon="9.983061515688648"><ele>440.0</ele><time>2026-04-26T15:36:23Z</time></trkpt><trkpt lat="45.65700097039255" lon="9.983135620180327"><ele>443.2</ele><time>2026-04-26T15:36:24Z</time></trkpt><trkpt lat="45.65706387277941" lon="9.98321592593913"><ele>446.4</ele><time>2026-04-26T15:36:25Z</time></trkpt><trkpt lat="45.65710387010052" lon="9.983329447109284"><ele>449.6</ele><time>2026-04-26T15:36:26Z</time></trkpt><trkpt lat="45.65716005484401" lon="9.98348375087792"><ele>452.8</ele><time>2026-04-26T15:36:27Z</time></trkpt><trkpt lat="45.65722305369994" lon="9.98365525618683"><ele>456.0</ele><time>2026-04-26T15:36:28Z</time></trkpt><trkpt lat="45.6572615928114" lon="9.983789498299267"><ele>456.0</ele><time>2026-04-26T15:36:29Z</time></trkpt><trkpt lat="45.657301145245334" lon="9.983891721487499"><ele>456.0</ele><time>2026-04-26T15:36:30Z</time></trkpt><trkpt lat="45.6573935988477" lon="9.98398756223715"><ele>456.0</ele><time>2026-04-26T15:36:32Z</time></trkpt><trkpt lat="45.65747196892922" lon="9.983999214758134"><ele>456.0</ele><time>2026-04-26T15:36:33Z</time></trkpt><trkpt lat="45.65755246163237" lon="9.983979671435794"><ele>456.0</ele><time>2026-04-26T15:36:34Z</time></trkpt><trkpt lat="45.65762304288631" lon="9.983936326567367"><ele>456.0</ele><time>2026-04-26T15:36:35Z</time></trkpt><trkpt lat="45.65763761183921" lon="9.983796887382896"><ele>456.0</ele><time>2026-04-26T15:36:38Z</time></trkpt><trkpt lat="45.65760390279664" lon="9.983674487654469"><ele>456.0</ele><time>2026-04-26T15:36:40Z</time></trkpt><trkpt lat="45.65761962252335" lon="9.983554685217495"><ele>456.0</ele><time>2026-04-26T15:36:43Z</time></trkpt><trkpt lat="45.65770057059169" lon="9.983471530238788"><ele>456.0</ele><time>2026-04-26T15:36:45Z</time></trkpt><trkpt lat="45.657795503857905" lon="9.983468222732858"><ele>456.0</ele><time>2026-04-26T15:36:47Z</time></trkpt><trkpt lat="45.6578843345155" lon="9.983372651783952"><ele>457.20000000000005</ele><time>2026-04-26T15:36:49Z</time></trkpt><trkpt lat="45.65794626718621" lon="9.983265716903334"><ele>458.40000000000003</ele><time>2026-04-26T15:36:51Z</time></trkpt><trkpt lat="45.657875127592085" lon="9.983117102802773"><ele>459.6</ele><time>2026-04-26T15:36:54Z</time></trkpt><trkpt lat="45.65785862889586" lon="9.982990036525726"><ele>460.8</ele><time>2026-04-26T15:36:55Z</time></trkpt><trkpt lat="45.657793850757216" lon="9.982863838128196"><ele>462.0</ele><time>2026-04-26T15:36:56Z</time></trkpt><trkpt lat="45.657733429488445" lon="9.982728935065602"><ele>462.40000000000003</ele><time>2026-04-26T15:36:57Z</time></trkpt><trkpt lat="45.65769164727251" lon="9.982607497973916"><ele>462.80000000000007</ele><time>2026-04-26T15:36:58Z</time></trkpt><trkpt lat="45.65765267176444" lon="9.982489427603207"><ele>463.2</ele><time>2026-04-26T15:36:59Z</time></trkpt><trkpt lat="45.657622951198164" lon="9.982370200540549"><ele>463.6</ele><time>2026-04-26T15:37:00Z</time></trkpt><trkpt lat="45.65759427448142" lon="9.982258567870112"><ele>464.0</ele><time>2026-04-26T15:37:01Z</time></trkpt><trkpt lat="45.65755502864407" lon="9.9821368860538"><ele>465.4</ele><time>2026-04-26T15:37:02Z</time></trkpt><trkpt lat="45.65751020148447" lon="9.982008535297242"><ele>466.79999999999995</ele><time>2026-04-26T15:37:03Z</time></trkpt><trkpt lat="45.657453589676024" lon="9.981870732363006"><ele>468.20000000000005</ele><time>2026-04-26T15:37:04Z</time></trkpt><trkpt lat="45.65739728743233" lon="9.981755461898013"><ele>469.6</ele><time>2026-04-26T15:37:05Z</time></trkpt><trkpt lat="45.65734434820559" lon="9.981651541828152"><ele>471.0</ele><time>2026-04-26T15:37:06Z</time></trkpt><trkpt lat="45.65727643461081" lon="9.981540257534155"><ele>472.0</ele><time>2026-04-26T15:37:07Z</time></trkpt><trkpt lat="45.657202961338115" lon="9.981422143198044"><ele>473.0</ele><time>2026-04-26T15:37:08Z</time></trkpt><trkpt lat="45.657134658155506" lon="9.981261718751108"><ele>474.0</ele><time>2026-04-26T15:37:09Z</time></trkpt><trkpt lat="45.65706936379783" lon="9.981113544220978"><ele>475.0</ele><time>2026-04-26T15:37:10Z</time></trkpt><trkpt lat="45.65701475062119" lon="9.980991203751188"><ele>476.00000000000006</ele><time>2026-04-26T15:37:11Z</time></trkpt><trkpt lat="45.65694693173901" lon="9.980901730518697"><ele>477.0</ele><time>2026-04-26T15:37:12Z</time></trkpt><trkpt lat="45.65690901542865" lon="9.980823910243327"><ele>478.0</ele><time>2026-04-26T15:37:13Z</time></trkpt><trkpt lat="45.65684543587989" lon="9.98073755550459"><ele>479.0</ele><time>2026-04-26T15:37:14Z</time></trkpt><trkpt lat="45.656776728056315" lon="9.980675499439455"><ele>480.00000000000006</ele><time>2026-04-26T15:37:15Z</time></trkpt><trkpt lat="45.65672616564339" lon="9.980612649904652"><ele>481.0</ele><time>2026-04-26T15:37:16Z</time></trkpt><trkpt lat="45.65665632540839" lon="9.98050616701177"><ele>481.00000000000006</ele><time>2026-04-26T15:37:18Z</time></trkpt><trkpt lat="45.656597945933726" lon="9.980407970275202"><ele>481.0</ele><time>2026-04-26T15:37:20Z</time></trkpt><trkpt lat="45.65655545605584" lon="9.980331848946348"><ele>481.0</ele><time>2026-04-26T15:37:23Z</time></trkpt><trkpt lat="45.65655816202877" lon="9.980445195928041"><ele>481.0</ele><time>2026-04-26T15:37:30Z</time></trkpt><trkpt lat="45.65660439829572" lon="9.980514851755622"><ele>481.00000000000006</ele><time>2026-04-26T15:37:32Z</time></trkpt><trkpt lat="45.65654915081876" lon="9.980578405972416"><ele>481.0</ele><time>2026-04-26T15:37:35Z</time></trkpt><trkpt lat="45.65645417338667" lon="9.980527058597822"><ele>481.00000000000006</ele><time>2026-04-26T15:37:36Z</time></trkpt><trkpt lat="45.65638516183213" lon="9.980458615215367"><ele>481.0</ele><time>2026-04-26T15:37:37Z</time></trkpt><trkpt lat="45.65633190193304" lon="9.980401509351285"><ele>481.0</ele><time>2026-04-26T15:37:38Z</time></trkpt><trkpt lat="45.65628037417659" lon="9.980349064253264"><ele>481.0</ele><time>2026-04-26T15:37:39Z</time></trkpt><trkpt lat="45.656226155954826" lon="9.98025896969173"><ele>481.00000000000006</ele><time>2026-04-26T15:37:40Z</time></trkpt><trkpt lat="45.656176210949475" lon="9.980150991166743"><ele>481.0</ele><time>2026-04-26T15:37:41Z</time></trkpt><trkpt lat="45.656120319609485" lon="9.980022619841366"><ele>479.4</ele><time>2026-04-26T15:37:42Z</time></trkpt><trkpt lat="45.65607279093426" lon="9.97990851451234"><ele>477.8</ele><time>2026-04-26T15:37:43Z</time></trkpt><trkpt lat="45.65601891175139" lon="9.979818423743938"><ele>476.19999999999993</ele><time>2026-04-26T15:37:44Z</time></trkpt><trkpt lat="45.65595265686022" lon="9.979704319189427"><ele>474.59999999999997</ele><time>2026-04-26T15:37:45Z</time></trkpt><trkpt lat="45.65589152839024" lon="9.979599942964706"><ele>473.0</ele><time>2026-04-26T15:37:46Z</time></trkpt><trkpt lat="45.6558225382721" lon="9.979495275792274"><ele>473.0</ele><time>2026-04-26T15:37:47Z</time></trkpt><trkpt lat="45.65576297892652" lon="9.979370319312237"><ele>472.99999999999994</ele><time>2026-04-26T15:37:48Z</time></trkpt><trkpt lat="45.6557210321654" lon="9.97924869128428"><ele>472.99999999999994</ele><time>2026-04-26T15:37:49Z</time></trkpt><trkpt lat="45.6556813467443" lon="9.979103316345881"><ele>473.0</ele><time>2026-04-26T15:37:50Z</time></trkpt><trkpt lat="45.6556434106574" lon="9.978968332644762"><ele>473.0</ele><time>2026-04-26T15:37:51Z</time></trkpt><trkpt lat="45.65559728960772" lon="9.978834482036046"><ele>474.0</ele><time>2026-04-26T15:37:52Z</time></trkpt><trkpt lat="45.6555483141934" lon="9.97870480873331"><ele>474.99999999999994</ele><time>2026-04-26T15:37:53Z</time></trkpt><trkpt lat="45.65549623264597" lon="9.978582008850621"><ele>475.99999999999994</ele><time>2026-04-26T15:37:54Z</time></trkpt><trkpt lat="45.655458126347504" lon="9.978487877912894"><ele>477.0</ele><time>2026-04-26T15:37:55Z</time></trkpt><trkpt lat="45.655423904178974" lon="9.978397073316907"><ele>478.0</ele><time>2026-04-26T15:37:56Z</time></trkpt><trkpt lat="45.655374177109294" lon="9.97826947134807"><ele>478.0</ele><time>2026-04-26T15:37:58Z</time></trkpt><trkpt lat="45.65533161350305" lon="9.978341074277697"><ele>477.99999999999994</ele><time>2026-04-26T15:39:36Z</time></trkpt><trkpt lat="45.655432053743375" lon="9.978423912799718"><ele>477.99999999999994</ele><time>2026-04-26T15:39:43Z</time></trkpt><trkpt lat="45.65547434713709" lon="9.97853338584752"><ele>478.0</ele><time>2026-04-26T15:39:45Z</time></trkpt><trkpt lat="45.65549009066515" lon="9.978621611070762"><ele>478.0</ele><time>2026-04-26T15:39:47Z</time></trkpt><trkpt lat="45.65556570418037" lon="9.97883428077206"><ele>478.5</ele><time>2026-04-26T15:40:13Z</time></trkpt><trkpt lat="45.65562662679191" lon="9.97897003851325"><ele>479.0</ele><time>2026-04-26T15:40:15Z</time></trkpt><trkpt lat="45.65569157254973" lon="9.979139134440404"><ele>479.5</ele><time>2026-04-26T15:40:17Z</time></trkpt><trkpt lat="45.655724756204336" lon="9.97929561509495"><ele>480.0</ele><time>2026-04-26T15:40:19Z</time></trkpt><trkpt lat="45.655781498322284" lon="9.97943264903797"><ele>478.6</ele><time>2026-04-26T15:40:21Z</time></trkpt><trkpt lat="45.6558461814111" lon="9.97957523815783"><ele>477.2</ele><time>2026-04-26T15:40:23Z</time></trkpt><trkpt lat="45.655911151853516" lon="9.979709907277782"><ele>475.79999999999995</ele><time>2026-04-26T15:40:25Z</time></trkpt><trkpt lat="45.65599974682237" lon="9.979853943930006"><ele>474.4</ele><time>2026-04-26T15:40:27Z</time></trkpt><trkpt lat="45.6560478399992" lon="9.979946995221892"><ele>473.0</ele><time>2026-04-26T15:40:28Z</time></trkpt><trkpt lat="45.656097531800796" lon="9.980051645386382"><ele>474.3333333333333</ele><time>2026-04-26T15:40:29Z</time></trkpt><trkpt lat="45.65614717433694" lon="9.980157039487095"><ele>475.66666666666663</ele><time>2026-04-26T15:40:30Z</time></trkpt><trkpt lat="45.65619307356219" lon="9.980251202169377"><ele>477.0</ele><time>2026-04-26T15:40:31Z</time></trkpt><trkpt lat="45.656247470058176" lon="9.980350996869364"><ele>478.33333333333337</ele><time>2026-04-26T15:40:32Z</time></trkpt><trkpt lat="45.656312060869325" lon="9.980423863229731"><ele>479.6666666666667</ele><time>2026-04-26T15:40:33Z</time></trkpt><trkpt lat="45.65637865258185" lon="9.98049527996974"><ele>481.0</ele><time>2026-04-26T15:40:34Z</time></trkpt><trkpt lat="45.656447744679255" lon="9.980565132717189"><ele>481.00000000000006</ele><time>2026-04-26T15:40:35Z</time></trkpt><trkpt lat="45.65650859983347" lon="9.980610270169533"><ele>481.0</ele><time>2026-04-26T15:40:36Z</time></trkpt><trkpt lat="45.65658916617582" lon="9.980633540689398"><ele>481.0</ele><time>2026-04-26T15:40:38Z</time></trkpt><trkpt lat="45.65660211011164" lon="9.980504713857036"><ele>481.0</ele><time>2026-04-26T15:40:42Z</time></trkpt><trkpt lat="45.656636770176455" lon="9.980394263780221"><ele>481.00000000000006</ele><time>2026-04-26T15:40:44Z</time></trkpt><trkpt lat="45.65662732159906" lon="9.980292313396747"><ele>481.0</ele><time>2026-04-26T15:40:46Z</time></trkpt><trkpt lat="45.65657965286809" lon="9.980198977451263"><ele>481.0</ele><time>2026-04-26T15:40:50Z</time></trkpt><trkpt lat="45.65652388819103" lon="9.980260691471655"><ele>481.0</ele><time>2026-04-26T15:40:54Z</time></trkpt><trkpt lat="45.656534586664975" lon="9.98038338767107"><ele>481.0</ele><time>2026-04-26T15:40:56Z</time></trkpt><trkpt lat="45.656608758388444" lon="9.980508550155326"><ele>481.0</ele><time>2026-04-26T15:40:58Z</time></trkpt><trkpt lat="45.656679552926796" lon="9.980634441060987"><ele>481.0</ele><time>2026-04-26T15:41:00Z</time></trkpt><trkpt lat="45.656727847891524" lon="9.980706104797585"><ele>481.00000000000006</ele><time>2026-04-26T15:41:02Z</time></trkpt><trkpt lat="45.6567785924464" lon="9.980775230346154"><ele>481.0</ele><time>2026-04-26T15:41:04Z</time></trkpt><trkpt lat="45.656837560410374" lon="9.980828686492535"><ele>481.0</ele><time>2026-04-26T15:41:07Z</time></trkpt><trkpt lat="45.656885293750264" lon="9.980919115973956"><ele>481.0</ele><time>2026-04-26T15:41:09Z</time></trkpt><trkpt lat="45.656938899523816" lon="9.98101883991849"><ele>481.00000000000006</ele><time>2026-04-26T15:41:10Z</time></trkpt><trkpt lat="45.65699179485283" lon="9.981139551348233"><ele>481.0</ele><time>2026-04-26T15:41:11Z</time></trkpt><trkpt lat="45.6570431087748" lon="9.981255366754818"><ele>480.00000000000006</ele><time>2026-04-26T15:41:12Z</time></trkpt><trkpt lat="45.6570921663707" lon="9.981356001559826"><ele>479.0</ele><time>2026-04-26T15:41:13Z</time></trkpt><trkpt lat="45.65714096651014" lon="9.981448663750609"><ele>478.0</ele><time>2026-04-26T15:41:14Z</time></trkpt><trkpt lat="45.657186478745466" lon="9.981534492639685"><ele>477.0</ele><time>2026-04-26T15:41:15Z</time></trkpt><trkpt lat="45.65721502914594" lon="9.981617180011325"><ele>476.00000000000006</ele><time>2026-04-26T15:41:16Z</time></trkpt><trkpt lat="45.65726191339634" lon="9.981715503164821"><ele>475.0</ele><time>2026-04-26T15:41:17Z</time></trkpt><trkpt lat="45.65731894635888" lon="9.981785511471346"><ele>474.33333333333337</ele><time>2026-04-26T15:41:18Z</time></trkpt><trkpt lat="45.65738000665531" lon="9.98184732819182"><ele>473.6666666666667</ele><time>2026-04-26T15:41:19Z</time></trkpt><trkpt lat="45.657432054429485" lon="9.981930772020595"><ele>473.0</ele><time>2026-04-26T15:41:20Z</time></trkpt><trkpt lat="45.65746637260062" lon="9.982027226045227"><ele>472.33333333333337</ele><time>2026-04-26T15:41:21Z</time></trkpt><trkpt lat="45.6575072598793" lon="9.98212673597378"><ele>471.6666666666667</ele><time>2026-04-26T15:41:22Z</time></trkpt><trkpt lat="45.657547791574345" lon="9.98222277239921"><ele>471.0</ele><time>2026-04-26T15:41:23Z</time></trkpt><trkpt lat="45.65759417559422" lon="9.982312417547634"><ele>471.0</ele><time>2026-04-26T15:41:24Z</time></trkpt><trkpt lat="45.65762495347969" lon="9.982399955585405"><ele>471.0</ele><time>2026-04-26T15:41:25Z</time></trkpt><trkpt lat="45.657659865077264" lon="9.982522445515665"><ele>471.0</ele><time>2026-04-26T15:41:26Z</time></trkpt><trkpt lat="45.65770198083538" lon="9.982646686075357"><ele>471.0</ele><time>2026-04-26T15:41:27Z</time></trkpt><trkpt lat="45.65776736151911" lon="9.982755358781526"><ele>471.0</ele><time>2026-04-26T15:41:28Z</time></trkpt><trkpt lat="45.65782878646582" lon="9.982849777295609"><ele>471.0</ele><time>2026-04-26T15:41:29Z</time></trkpt><trkpt lat="45.6578811271423" lon="9.982930306255279"><ele>469.5</ele><time>2026-04-26T15:41:30Z</time></trkpt><trkpt lat="45.65792180671994" lon="9.983000884526966"><ele>468.0</ele><time>2026-04-26T15:41:31Z</time></trkpt><trkpt lat="45.65799332274201" lon="9.983106176209544"><ele>466.5</ele><time>2026-04-26T15:41:33Z</time></trkpt><trkpt lat="45.658026929220846" lon="9.983261766323196"><ele>465.0</ele><time>2026-04-26T15:41:35Z</time></trkpt><trkpt lat="45.65802929432143" lon="9.98335571850178"><ele>463.5</ele><time>2026-04-26T15:41:36Z</time></trkpt><trkpt lat="45.658027644506014" lon="9.983465834278027"><ele>462.0</ele><time>2026-04-26T15:41:37Z</time></trkpt><trkpt lat="45.65802879889159" lon="9.983614749617285"><ele>461.75</ele><time>2026-04-26T15:41:38Z</time></trkpt><trkpt lat="45.65806499148166" lon="9.983803049216819"><ele>461.5</ele><time>2026-04-26T15:41:39Z</time></trkpt><trkpt lat="45.65811498865045" lon="9.984002151961729"><ele>461.25</ele><time>2026-04-26T15:41:40Z</time></trkpt><trkpt lat="45.65817426423296" lon="9.984203119354337"><ele>461.0</ele><time>2026-04-26T15:41:41Z</time></trkpt><trkpt lat="45.658221398666676" lon="9.984370846787872"><ele>459.99999999999994</ele><time>2026-04-26T15:41:42Z</time></trkpt><trkpt lat="45.658246026999485" lon="9.984509818491272"><ele>459.0</ele><time>2026-04-26T15:41:43Z</time></trkpt><trkpt lat="45.65820257268547" lon="9.984651423111496"><ele>458.0</ele><time>2026-04-26T15:41:45Z</time></trkpt><trkpt lat="45.6581816885789" lon="9.984744768978018"><ele>457.0</ele><time>2026-04-26T15:41:46Z</time></trkpt><trkpt lat="45.658216015615054" lon="9.984862265473915"><ele>455.99999999999994</ele><time>2026-04-26T15:41:48Z</time></trkpt><trkpt lat="45.65814210960755" lon="9.984869111845438"><ele>455.0</ele><time>2026-04-26T15:46:04Z</time></trkpt><trkpt lat="45.65815448416235" lon="9.984751014555753"><ele>454.99999999999994</ele><time>2026-04-26T15:46:07Z</time></trkpt><trkpt lat="45.65821093572154" lon="9.984706777238069"><ele>455.0</ele><time>2026-04-26T15:46:09Z</time></trkpt><trkpt lat="45.65816045543948" lon="9.984620715940558"><ele>455.0</ele><time>2026-04-26T15:46:11Z</time></trkpt><trkpt lat="45.658051476568964" lon="9.984624928853206"><ele>455.0</ele><time>2026-04-26T15:46:13Z</time></trkpt><trkpt lat="45.65796001572667" lon="9.984689376530177"><ele>454.99999999999994</ele><time>2026-04-26T15:46:15Z</time></trkpt><trkpt lat="45.65790236777287" lon="9.984741702170057"><ele>455.0</ele><time>2026-04-26T15:46:17Z</time></trkpt><trkpt lat="45.65791092541794" lon="9.984878862502864"><ele>455.0</ele><time>2026-04-26T15:46:19Z</time></trkpt><trkpt lat="45.65795104845051" lon="9.984990285471563"><ele>455.0</ele><time>2026-04-26T15:46:21Z</time></trkpt><trkpt lat="45.65792125447313" lon="9.985081257250028"><ele>455.0</ele><time>2026-04-26T15:46:23Z</time></trkpt><trkpt lat="45.65782650151241" lon="9.985145274272446"><ele>455.0</ele><time>2026-04-26T15:46:25Z</time></trkpt><trkpt lat="45.65772316432716" lon="9.985189717504898"><ele>455.0</ele><time>2026-04-26T15:46:27Z</time></trkpt><trkpt lat="45.657640174455025" lon="9.98513096208675"><ele>453.8</ele><time>2026-04-26T15:46:29Z</time></trkpt><trkpt lat="45.65760954454999" lon="9.984955957091483"><ele>452.6</ele><time>2026-04-26T15:46:31Z</time></trkpt><trkpt lat="45.65759013556033" lon="9.98481865901845"><ele>451.4</ele><time>2026-04-26T15:46:32Z</time></trkpt><trkpt lat="45.657557809251585" lon="9.984693562246019"><ele>450.2</ele><time>2026-04-26T15:46:33Z</time></trkpt><trkpt lat="45.65753824272109" lon="9.98455826704571"><ele>449.0</ele><time>2026-04-26T15:46:34Z</time></trkpt><trkpt lat="45.65751827796377" lon="9.98444780243618"><ele>449.0</ele><time>2026-04-26T15:46:35Z</time></trkpt><trkpt lat="45.657508980629906" lon="9.984283547956371"><ele>449.0</ele><time>2026-04-26T15:46:37.001Z</time></trkpt><trkpt lat="45.657474172840836" lon="9.98415859023913"><ele>449.0</ele><time>2026-04-26T15:46:39.001Z</time></trkpt><trkpt lat="45.65743313860666" lon="9.98407021257093"><ele>449.0</ele><time>2026-04-26T15:46:41.001Z</time></trkpt><trkpt lat="45.65736293744021" lon="9.983986736259862"><ele>449.0</ele><time>2026-04-26T15:46:43.001Z</time></trkpt><trkpt lat="45.65731865300235" lon="9.983865185177798"><ele>450.4</ele><time>2026-04-26T15:46:45.001Z</time></trkpt><trkpt lat="45.65727608102574" lon="9.98375556000126"><ele>451.79999999999995</ele><time>2026-04-26T15:46:47.001Z</time></trkpt><trkpt lat="45.65722207309174" lon="9.98366605348494"><ele>453.20000000000005</ele><time>2026-04-26T15:46:50.001Z</time></trkpt><trkpt lat="45.65715259338883" lon="9.983624740096698"><ele>454.6</ele><time>2026-04-26T15:46:52.001Z</time></trkpt><trkpt lat="45.656964729447424" lon="9.98356314321562"><ele>456.0</ele><time>2026-04-26T15:47:24.001Z</time></trkpt><trkpt lat="45.65689446261681" lon="9.983658130799475"><ele>452.0</ele><time>2026-04-26T15:47:26.001Z</time></trkpt><trkpt lat="45.65691605743859" lon="9.98378826766012"><ele>448.0</ele><time>2026-04-26T15:47:28.001Z</time></trkpt><trkpt lat="45.65694241205913" lon="9.98390044764988"><ele>444.0</ele><time>2026-04-26T15:47:31.001Z</time></trkpt><trkpt lat="45.65691704275028" lon="9.984044341121303"><ele>440.0</ele><time>2026-04-26T15:47:34.001Z</time></trkpt><trkpt lat="45.656929947644755" lon="9.98422622866423"><ele>436.0</ele><time>2026-04-26T15:47:36.001Z</time></trkpt><trkpt lat="45.65694744864159" lon="9.98431987651652"><ele>435.7142857142857</ele><time>2026-04-26T15:47:37.001Z</time></trkpt><trkpt lat="45.65695260193814" lon="9.984417367633414"><ele>435.42857142857144</ele><time>2026-04-26T15:47:38.001Z</time></trkpt><trkpt lat="45.65693924403453" lon="9.984513965417605"><ele>435.1428571428571</ele><time>2026-04-26T15:47:39.001Z</time></trkpt><trkpt lat="45.65692926674859" lon="9.984610045122752"><ele>434.8571428571429</ele><time>2026-04-26T15:47:40.001Z</time></trkpt><trkpt lat="45.65693350510266" lon="9.98470501007212"><ele>434.57142857142856</ele><time>2026-04-26T15:47:41.001Z</time></trkpt><trkpt lat="45.656955908923884" lon="9.984802904902997"><ele>434.2857142857143</ele><time>2026-04-26T15:47:42.001Z</time></trkpt><trkpt lat="45.656977261295474" lon="9.984911850790827"><ele>434.0</ele><time>2026-04-26T15:47:43.001Z</time></trkpt><trkpt lat="45.65699318427758" lon="9.98501625856725"><ele>434.0</ele><time>2026-04-26T15:47:44.001Z</time></trkpt><trkpt lat="45.65700865119521" lon="9.985108366022255"><ele>434.0</ele><time>2026-04-26T15:47:45.001Z</time></trkpt><trkpt lat="45.65703276322346" lon="9.98526792745216"><ele>434.0</ele><time>2026-04-26T15:47:47.001Z</time></trkpt><trkpt lat="45.657061111187616" lon="9.98537037637913"><ele>434.0</ele><time>2026-04-26T15:47:49.001Z</time></trkpt><trkpt lat="45.65717803503908" lon="9.98537703734608"><ele>434.0</ele><time>2026-04-26T15:47:52.001Z</time></trkpt><trkpt lat="45.65727727731595" lon="9.985451401065802"><ele>434.0</ele><time>2026-04-26T15:47:54.001Z</time></trkpt><trkpt lat="45.65734341585457" lon="9.9855907939508"><ele>434.0</ele><time>2026-04-26T15:47:56.001Z</time></trkpt><trkpt lat="45.657397457864334" lon="9.985692269124744"><ele>434.0</ele><time>2026-04-26T15:47:58.001Z</time></trkpt><trkpt lat="45.657457849340126" lon="9.985781104231371"><ele>434.0</ele><time>2026-04-26T15:48:00.001Z</time></trkpt><trkpt lat="45.6575381298993" lon="9.985903808286494"><ele>434.0</ele><time>2026-04-26T15:48:02.001Z</time></trkpt><trkpt lat="45.65760817123523" lon="9.98595095431412"><ele>431.79999999999995</ele><time>2026-04-26T15:48:03.001Z</time></trkpt><trkpt lat="45.65768985925279" lon="9.985988177039188"><ele>429.59999999999997</ele><time>2026-04-26T15:48:04.001Z</time></trkpt><trkpt lat="45.65777183994736" lon="9.986010795519835"><ele>427.4</ele><time>2026-04-26T15:48:05.001Z</time></trkpt><trkpt lat="45.6578784695882" lon="9.986043554199489"><ele>425.2</ele><time>2026-04-26T15:48:06.001Z</time></trkpt><trkpt lat="45.65798218846802" lon="9.986059389831409"><ele>423.0</ele><time>2026-04-26T15:48:07.001Z</time></trkpt><trkpt lat="45.65808070101922" lon="9.986092766858906"><ele>423.0</ele><time>2026-04-26T15:48:08.001Z</time></trkpt><trkpt lat="45.65819035736783" lon="9.986122590798624"><ele>423.0</ele><time>2026-04-26T15:48:09.001Z</time></trkpt><trkpt lat="45.65827014479395" lon="9.986157182044494"><ele>423.0</ele><time>2026-04-26T15:48:10.001Z</time></trkpt><trkpt lat="45.65833687034791" lon="9.986192033826512"><ele>423.0</ele><time>2026-04-26T15:48:11.001Z</time></trkpt><trkpt lat="45.65841471732177" lon="9.986235711667298"><ele>423.0</ele><time>2026-04-26T15:48:12.001Z</time></trkpt><trkpt lat="45.658496395541846" lon="9.986287502310622"><ele>423.0</ele><time>2026-04-26T15:48:13.001Z</time></trkpt><trkpt lat="45.65856661526534" lon="9.986336407764608"><ele>421.6666666666667</ele><time>2026-04-26T15:48:14.001Z</time></trkpt><trkpt lat="45.65862940920351" lon="9.986376496432781"><ele>420.33333333333337</ele><time>2026-04-26T15:48:15.001Z</time></trkpt><trkpt lat="45.65873690199232" lon="9.986396581038502"><ele>419.0</ele><time>2026-04-26T15:48:18.001Z</time></trkpt><trkpt lat="45.658796937070996" lon="9.986441878920512"><ele>417.6666666666667</ele><time>2026-04-26T15:48:20.001Z</time></trkpt><trkpt lat="45.65882705747774" lon="9.986529143594343"><ele>416.33333333333337</ele><time>2026-04-26T15:48:22.001Z</time></trkpt><trkpt lat="45.65889030910061" lon="9.986588582322563"><ele>415.0</ele><time>2026-04-26T15:48:25.001Z</time></trkpt><trkpt lat="45.658949530262845" lon="9.98663268902663"><ele>413.14285714285717</ele><time>2026-04-26T15:48:29.001Z</time></trkpt><trkpt lat="45.658979858520105" lon="9.986711755248201"><ele>411.28571428571433</ele><time>2026-04-26T15:48:36.001Z</time></trkpt><trkpt lat="45.65903296567421" lon="9.986781588799932"><ele>409.42857142857144</ele><time>2026-04-26T15:48:40.001Z</time></trkpt><trkpt lat="45.65911398172639" lon="9.986794133953815"><ele>407.57142857142856</ele><time>2026-04-26T15:48:43.001Z</time></trkpt><trkpt lat="45.65916955331061" lon="9.986859338245914"><ele>405.7142857142857</ele><time>2026-04-26T15:48:45.001Z</time></trkpt><trkpt lat="45.65923224869886" lon="9.986894220777616"><ele>403.85714285714283</ele><time>2026-04-26T15:48:48.001Z</time></trkpt><trkpt lat="45.65929661088696" lon="9.986933640049077"><ele>402.0</ele><time>2026-04-26T15:48:51.001Z</time></trkpt><trkpt lat="45.65937371615295" lon="9.98697536255251"><ele>402.0</ele><time>2026-04-26T15:48:56.001Z</time></trkpt><trkpt lat="45.65944350697688" lon="9.986942085058583"><ele>402.0</ele><time>2026-04-26T15:49:02.001Z</time></trkpt><trkpt lat="45.659486734548" lon="9.986859010351091"><ele>402.0</ele><time>2026-04-26T15:49:05Z</time></trkpt><trkpt lat="45.65953562993834" lon="9.986797429109876"><ele>402.0</ele><time>2026-04-26T15:49:08Z</time></trkpt><trkpt lat="45.65955217265376" lon="9.986686222650961"><ele>402.0</ele><time>2026-04-26T15:49:11Z</time></trkpt><trkpt lat="45.659609034355505" lon="9.986605891425029"><ele>402.0</ele><time>2026-04-26T15:49:14Z</time></trkpt><trkpt lat="45.65962740868564" lon="9.986696304196059"><ele>402.0</ele><time>2026-04-26T15:49:16Z</time></trkpt><trkpt lat="45.65965688082888" lon="9.986778914988436"><ele>399.6666666666667</ele><time>2026-04-26T15:49:19Z</time></trkpt><trkpt lat="45.65974056684558" lon="9.986799783147724"><ele>397.33333333333337</ele><time>2026-04-26T15:49:46.001Z</time></trkpt><trkpt lat="45.65978303246439" lon="9.986870879499984"><ele>395.0</ele><time>2026-04-26T15:49:49.001Z</time></trkpt><trkpt lat="45.65981509980744" lon="9.986950452981716"><ele>392.6666666666667</ele><time>2026-04-26T15:49:51.001Z</time></trkpt><trkpt lat="45.65984795829836" lon="9.98708064001793"><ele>390.33333333333337</ele><time>2026-04-26T15:49:53.001Z</time></trkpt><trkpt lat="45.659861419968415" lon="9.987242543597565"><ele>388.0</ele><time>2026-04-26T15:49:55.001Z</time></trkpt><trkpt lat="45.65988485495293" lon="9.98739752524038"><ele>385.4</ele><time>2026-04-26T15:49:57.001Z</time></trkpt><trkpt lat="45.65991533066041" lon="9.987584171557177"><ele>382.79999999999995</ele><time>2026-04-26T15:49:59.001Z</time></trkpt><trkpt lat="45.659907692170364" lon="9.987735269287512"><ele>380.2</ele><time>2026-04-26T15:50:00.001Z</time></trkpt><trkpt lat="45.65989170094081" lon="9.98786295057576"><ele>377.6</ele><time>2026-04-26T15:50:01.001Z</time></trkpt><trkpt lat="45.65988912898757" lon="9.987992689549712"><ele>375.0</ele><time>2026-04-26T15:50:02.001Z</time></trkpt><trkpt lat="45.65988895440799" lon="9.988103208270708"><ele>375.0</ele><time>2026-04-26T15:50:03.001Z</time></trkpt><trkpt lat="45.65988251578149" lon="9.988219983283262"><ele>375.0</ele><time>2026-04-26T15:50:04.001Z</time></trkpt><trkpt lat="45.65987502876075" lon="9.988338927848984"><ele>375.0</ele><time>2026-04-26T15:50:05.001Z</time></trkpt><trkpt lat="45.65987404525982" lon="9.988460972110804"><ele>375.0</ele><time>2026-04-26T15:50:06.001Z</time></trkpt><trkpt lat="45.65990367500929" lon="9.988631055831291"><ele>375.0</ele><time>2026-04-26T15:50:08.001Z</time></trkpt><trkpt lat="45.659911573209605" lon="9.988728400710226"><ele>375.0</ele><time>2026-04-26T15:50:09.001Z</time></trkpt><trkpt lat="45.65987864429858" lon="9.988842014687645"><ele>371.8</ele><time>2026-04-26T15:50:11.001Z</time></trkpt><trkpt lat="45.65980204205825" lon="9.98890909895844"><ele>368.6</ele><time>2026-04-26T15:50:13.001Z</time></trkpt><trkpt lat="45.65980359874316" lon="9.989001265945044"><ele>365.4</ele><time>2026-04-26T15:50:16.001Z</time></trkpt><trkpt lat="45.65988035359417" lon="9.989055807265238"><ele>362.2</ele><time>2026-04-26T15:50:20.001Z</time></trkpt><trkpt lat="45.659955091087475" lon="9.98909599581628"><ele>359.0</ele><time>2026-04-26T15:50:23.001Z</time></trkpt><trkpt lat="45.66014379408307" lon="9.989071938832545"><ele>352.0</ele><time>2026-04-26T15:50:28.001Z</time></trkpt><trkpt lat="45.66031029569687" lon="9.98921148374657"><ele>345.0</ele><time>2026-04-26T15:50:31.001Z</time></trkpt><trkpt lat="45.660414696654506" lon="9.989310595364536"><ele>338.0</ele><time>2026-04-26T15:50:33.001Z</time></trkpt><trkpt lat="45.66050099685132" lon="9.989448005070765"><ele>331.0</ele><time>2026-04-26T15:50:35.001Z</time></trkpt><trkpt lat="45.66053754504691" lon="9.989531246310966"><ele>331.0</ele><time>2026-04-26T15:50:36.001Z</time></trkpt><trkpt lat="45.66057773690777" lon="9.989614206585042"><ele>331.0</ele><time>2026-04-26T15:50:37.001Z</time></trkpt><trkpt lat="45.66061937012057" lon="9.9897184241567"><ele>331.0</ele><time>2026-04-26T15:50:38.001Z</time></trkpt><trkpt lat="45.66067654541761" lon="9.989835297327765"><ele>331.0</ele><time>2026-04-26T15:50:40.001Z</time></trkpt><trkpt lat="45.66070428823228" lon="9.989919843494402"><ele>331.0</ele><time>2026-04-26T15:50:42.001Z</time></trkpt><trkpt lat="45.66063792106192" lon="9.99003876134115"><ele>331.0</ele><time>2026-04-26T15:50:44.001Z</time></trkpt><trkpt lat="45.660645386808895" lon="9.99016701013624"><ele>328.2</ele><time>2026-04-26T15:50:45.001Z</time></trkpt><trkpt lat="45.66062333497242" lon="9.990270538585685"><ele>325.40000000000003</ele><time>2026-04-26T15:50:50.001Z</time></trkpt><trkpt lat="45.660570907113254" lon="9.990391526633434"><ele>322.6</ele><time>2026-04-26T15:50:54.001Z</time></trkpt><trkpt lat="45.660461274804675" lon="9.990533973552658"><ele>319.8</ele><time>2026-04-26T15:50:56.001Z</time></trkpt><trkpt lat="45.66038673218641" lon="9.99061527091698"><ele>317.0</ele><time>2026-04-26T15:50:57.001Z</time></trkpt><trkpt lat="45.6603190078719" lon="9.99067906931479"><ele>316.6666666666667</ele><time>2026-04-26T15:50:58.001Z</time></trkpt><trkpt lat="45.66019763725468" lon="9.990763484151985"><ele>316.33333333333337</ele><time>2026-04-26T15:51:00.001Z</time></trkpt><trkpt lat="45.66011923479694" lon="9.990802176518924"><ele>316.0</ele><time>2026-04-26T15:51:01.001Z</time></trkpt><trkpt lat="45.66004406708599" lon="9.99084749416821"><ele>315.6666666666667</ele><time>2026-04-26T15:51:02.001Z</time></trkpt><trkpt lat="45.65997614207922" lon="9.990864541987841"><ele>315.3333333333333</ele><time>2026-04-26T15:51:03.001Z</time></trkpt><trkpt lat="45.65990875317446" lon="9.990855171868255"><ele>315.0</ele><time>2026-04-26T15:51:04.001Z</time></trkpt><trkpt lat="45.65977973392442" lon="9.990786864634172"><ele>317.3333333333333</ele><time>2026-04-26T15:51:06.001Z</time></trkpt><trkpt lat="45.65970814312161" lon="9.990763542411262"><ele>319.6666666666667</ele><time>2026-04-26T15:51:07.001Z</time></trkpt><trkpt lat="45.65964318708569" lon="9.990723486987436"><ele>322.0</ele><time>2026-04-26T15:51:08.001Z</time></trkpt><trkpt lat="45.65957298768327" lon="9.99066793484974"><ele>324.33333333333337</ele><time>2026-04-26T15:51:09.001Z</time></trkpt><trkpt lat="45.65948148540771" lon="9.99063894829862"><ele>326.6666666666667</ele><time>2026-04-26T15:51:10.001Z</time></trkpt><trkpt lat="45.65937592567971" lon="9.99065224514323"><ele>329.0</ele><time>2026-04-26T15:51:11Z</time></trkpt><trkpt lat="45.659274197765214" lon="9.990661560507254"><ele>329.0</ele><time>2026-04-26T15:51:12Z</time></trkpt><trkpt lat="45.65917865444056" lon="9.99066782702206"><ele>329.0</ele><time>2026-04-26T15:51:13Z</time></trkpt><trkpt lat="45.65908828401831" lon="9.990692342003815"><ele>329.0</ele><time>2026-04-26T15:51:14Z</time></trkpt><trkpt lat="45.65901858995656" lon="9.990685466604313"><ele>329.0</ele><time>2026-04-26T15:51:15Z</time></trkpt><trkpt lat="45.65894618082855" lon="9.990670255108734"><ele>329.0</ele><time>2026-04-26T15:51:16Z</time></trkpt><trkpt lat="45.658879436390954" lon="9.990665447640986"><ele>329.0</ele><time>2026-04-26T15:51:17Z</time></trkpt><trkpt lat="45.658777597533664" lon="9.990734345935959"><ele>329.0</ele><time>2026-04-26T15:51:19Z</time></trkpt><trkpt lat="45.65873987223488" lon="9.990815284893328"><ele>329.0</ele><time>2026-04-26T15:51:20Z</time></trkpt><trkpt lat="45.658694128465704" lon="9.990892280811687"><ele>329.0</ele><time>2026-04-26T15:51:21Z</time></trkpt><trkpt lat="45.658598246341256" lon="9.990951560971855"><ele>329.0</ele><time>2026-04-26T15:51:23Z</time></trkpt><trkpt lat="45.65851676051578" lon="9.990904763040014"><ele>329.0</ele><time>2026-04-26T15:51:25Z</time></trkpt><trkpt lat="45.65844237978121" lon="9.99086806042541"><ele>329.0</ele><time>2026-04-26T15:51:29Z</time></trkpt><trkpt lat="45.65837881122262" lon="9.990869682958028"><ele>329.0</ele><time>2026-04-26T15:51:34Z</time></trkpt><trkpt lat="45.658525863432985" lon="9.990950003546832"><ele>329.0</ele><time>2026-04-26T15:52:30.001Z</time></trkpt><trkpt lat="45.65862949137598" lon="9.990921641118701"><ele>329.0</ele><time>2026-04-26T15:52:32.001Z</time></trkpt><trkpt lat="45.6586944456764" lon="9.990830099375811"><ele>329.0</ele><time>2026-04-26T15:52:34.001Z</time></trkpt><trkpt lat="45.65877939548171" lon="9.990747038005908"><ele>329.0</ele><time>2026-04-26T15:52:36.001Z</time></trkpt><trkpt lat="45.658846583442575" lon="9.990743723470734"><ele>329.0</ele><time>2026-04-26T15:52:37.001Z</time></trkpt><trkpt lat="45.65891788443883" lon="9.990752355115582"><ele>329.0</ele><time>2026-04-26T15:52:38.001Z</time></trkpt><trkpt lat="45.658991208150766" lon="9.990702435176111"><ele>329.0</ele><time>2026-04-26T15:52:39.001Z</time></trkpt><trkpt lat="45.65906723082984" lon="9.990703702221277"><ele>329.0</ele><time>2026-04-26T15:52:40.001Z</time></trkpt><trkpt lat="45.659150403329996" lon="9.990705088432502"><ele>329.0</ele><time>2026-04-26T15:52:41.001Z</time></trkpt><trkpt lat="45.65922762355341" lon="9.990709670000971"><ele>329.0</ele><time>2026-04-26T15:52:42.001Z</time></trkpt><trkpt lat="45.65929196659289" lon="9.990710225353949"><ele>329.0</ele><time>2026-04-26T15:52:43.001Z</time></trkpt><trkpt lat="45.659360823920444" lon="9.990711630278469"><ele>329.0</ele><time>2026-04-26T15:52:44.001Z</time></trkpt><trkpt lat="45.65947675188669" lon="9.990700995845515"><ele>329.0</ele><time>2026-04-26T15:52:46.001Z</time></trkpt><trkpt lat="45.65957780900808" lon="9.990723793051297"><ele>329.0</ele><time>2026-04-26T15:52:48.001Z</time></trkpt><trkpt lat="45.659665480113695" lon="9.990766331545506"><ele>329.0</ele><time>2026-04-26T15:52:49.001Z</time></trkpt><trkpt lat="45.659741652197106" lon="9.99081346928511"><ele>329.0</ele><time>2026-04-26T15:52:50.001Z</time></trkpt><trkpt lat="45.65981543183818" lon="9.990869586104527"><ele>329.0</ele><time>2026-04-26T15:52:51.001Z</time></trkpt><trkpt lat="45.65992538079655" lon="9.990939631334582"><ele>329.0</ele><time>2026-04-26T15:52:53.001Z</time></trkpt><trkpt lat="45.65997966462216" lon="9.990996117984794"><ele>329.0</ele><time>2026-04-26T15:52:54.001Z</time></trkpt><trkpt lat="45.66003945508843" lon="9.991035167490846"><ele>329.0</ele><time>2026-04-26T15:52:56.001Z</time></trkpt><trkpt lat="45.660171385008724" lon="9.990721919055325"><ele>329.0</ele><time>2026-04-26T15:52:58.001Z</time></trkpt><trkpt lat="45.66010272495985" lon="9.990590257449318"><ele>329.0</ele><time>2026-04-26T15:53:00.001Z</time></trkpt><trkpt lat="45.66003501160763" lon="9.99049468809416"><ele>329.0</ele><time>2026-04-26T15:53:01.001Z</time></trkpt><trkpt lat="45.65995965204167" lon="9.990446847371016"><ele>329.0</ele><time>2026-04-26T15:53:02.001Z</time></trkpt><trkpt lat="45.65991659602837" lon="9.990347655868028"><ele>329.0</ele><time>2026-04-26T15:53:04.001Z</time></trkpt><trkpt lat="45.65993788869776" lon="9.990200175827093"><ele>329.0</ele><time>2026-04-26T15:53:06.001Z</time></trkpt><trkpt lat="45.66004401463851" lon="9.99010293445574"><ele>329.0</ele><time>2026-04-26T15:53:08.001Z</time></trkpt><trkpt lat="45.66011674936012" lon="9.990024396600223"><ele>329.0</ele><time>2026-04-26T15:53:10.001Z</time></trkpt><trkpt lat="45.660232199292906" lon="9.990007711853377"><ele>329.0</ele><time>2026-04-26T15:53:13.001Z</time></trkpt><trkpt lat="45.660349450973555" lon="9.989934847356546"><ele>329.4</ele><time>2026-04-26T15:53:14.001Z</time></trkpt><trkpt lat="45.66044642929168" lon="9.989865639234523"><ele>329.79999999999995</ele><time>2026-04-26T15:53:15.001Z</time></trkpt><trkpt lat="45.66052540459382" lon="9.989793428322454"><ele>330.20000000000005</ele><time>2026-04-26T15:53:16.001Z</time></trkpt><trkpt lat="45.66061753918466" lon="9.989658560407937"><ele>330.6</ele><time>2026-04-26T15:53:18Z</time></trkpt><trkpt lat="45.660681069147" lon="9.989545087231656"><ele>331.0</ele><time>2026-04-26T15:53:19Z</time></trkpt><trkpt lat="45.66073290217443" lon="9.989448053188083"><ele>331.0</ele><time>2026-04-26T15:53:20Z</time></trkpt><trkpt lat="45.66077614281858" lon="9.989352977530416"><ele>331.0</ele><time>2026-04-26T15:53:21Z</time></trkpt><trkpt lat="45.66083317216864" lon="9.989243714498151"><ele>331.0</ele><time>2026-04-26T15:53:22Z</time></trkpt><trkpt lat="45.66089477466406" lon="9.989098699143195"><ele>331.0</ele><time>2026-04-26T15:53:23Z</time></trkpt><trkpt lat="45.660936576900994" lon="9.988978236043604"><ele>331.0</ele><time>2026-04-26T15:53:24Z</time></trkpt><trkpt lat="45.660970898930856" lon="9.988897275825085"><ele>330.20000000000005</ele><time>2026-04-26T15:53:25Z</time></trkpt><trkpt lat="45.66103163932028" lon="9.988783507215981"><ele>329.40000000000003</ele><time>2026-04-26T15:53:27Z</time></trkpt><trkpt lat="45.66108068914906" lon="9.988685989518888"><ele>328.6</ele><time>2026-04-26T15:53:29Z</time></trkpt><trkpt lat="45.66117023241548" lon="9.988614179646971"><ele>327.8</ele><time>2026-04-26T15:53:31Z</time></trkpt><trkpt lat="45.661262763733504" lon="9.988737412232554"><ele>327.0</ele><time>2026-04-26T15:53:33Z</time></trkpt><trkpt lat="45.66127852209971" lon="9.988838529066625"><ele>327.0</ele><time>2026-04-26T15:53:34Z</time></trkpt><trkpt lat="45.661276087085064" lon="9.98893201297406"><ele>327.0</ele><time>2026-04-26T15:53:35Z</time></trkpt><trkpt lat="45.66126896575586" lon="9.989026472268716"><ele>327.0</ele><time>2026-04-26T15:53:36Z</time></trkpt><trkpt lat="45.6612265854565" lon="9.989179548780811"><ele>327.0</ele><time>2026-04-26T15:53:38Z</time></trkpt><trkpt lat="45.66118148415323" lon="9.989303782329506"><ele>327.0</ele><time>2026-04-26T15:53:40Z</time></trkpt><trkpt lat="45.661189048473034" lon="9.989031102037195"><ele>327.0</ele><time>2026-04-26T15:53:51Z</time></trkpt><trkpt lat="45.66123983844137" lon="9.988924086590888"><ele>327.0</ele><time>2026-04-26T15:53:52Z</time></trkpt><trkpt lat="45.6613005298696" lon="9.988797418594782"><ele>327.0</ele><time>2026-04-26T15:53:54Z</time></trkpt><trkpt lat="45.66134826755166" lon="9.988687168614623"><ele>327.0</ele><time>2026-04-26T15:53:56.001Z</time></trkpt><trkpt lat="45.661415018299245" lon="9.98854734579364"><ele>327.0</ele><time>2026-04-26T15:53:58.001Z</time></trkpt><trkpt lat="45.66149631197905" lon="9.988397082170875"><ele>329.25</ele><time>2026-04-26T15:54:00.001Z</time></trkpt><trkpt lat="45.661557280058005" lon="9.98824949894597"><ele>331.5</ele><time>2026-04-26T15:54:02.001Z</time></trkpt><trkpt lat="45.66161578548918" lon="9.988094349407017"><ele>333.75</ele><time>2026-04-26T15:54:04.001Z</time></trkpt><trkpt lat="45.66160445892596" lon="9.987874483148516"><ele>336.0</ele><time>2026-04-26T15:54:06.001Z</time></trkpt><trkpt lat="45.661588031060475" lon="9.98774990405428"><ele>336.0</ele><time>2026-04-26T15:54:07.001Z</time></trkpt><trkpt lat="45.66157216917438" lon="9.987643944603583"><ele>336.0</ele><time>2026-04-26T15:54:08.001Z</time></trkpt><trkpt lat="45.661546040953745" lon="9.98753339075129"><ele>336.0</ele><time>2026-04-26T15:54:09.001Z</time></trkpt><trkpt lat="45.66147557945207" lon="9.987422077986665"><ele>336.0</ele><time>2026-04-26T15:54:10.001Z</time></trkpt><trkpt lat="45.66140996010588" lon="9.98732856427488"><ele>336.0</ele><time>2026-04-26T15:54:11.001Z</time></trkpt><trkpt lat="45.66135439338551" lon="9.987216151575579"><ele>336.0</ele><time>2026-04-26T15:54:12.001Z</time></trkpt><trkpt lat="45.66129926236683" lon="9.987087351636873"><ele>336.0</ele><time>2026-04-26T15:54:13.001Z</time></trkpt><trkpt lat="45.66124831229012" lon="9.986972234484657"><ele>336.0</ele><time>2026-04-26T15:54:14.001Z</time></trkpt><trkpt lat="45.661207780913124" lon="9.986832368913023"><ele>336.0</ele><time>2026-04-26T15:54:15.001Z</time></trkpt><trkpt lat="45.66116689108061" lon="9.986710130684653"><ele>336.0</ele><time>2026-04-26T15:54:16.001Z</time></trkpt><trkpt lat="45.6611434727896" lon="9.986609797679977"><ele>341.0</ele><time>2026-04-26T15:54:17.001Z</time></trkpt><trkpt lat="45.661108233849326" lon="9.986516931308353"><ele>346.0</ele><time>2026-04-26T15:54:18.001Z</time></trkpt><trkpt lat="45.6610683935489" lon="9.986416812767615"><ele>351.0</ele><time>2026-04-26T15:54:19.001Z</time></trkpt><trkpt lat="45.6610449851009" lon="9.98629604943062"><ele>356.0</ele><time>2026-04-26T15:54:20.001Z</time></trkpt><trkpt lat="45.661028495930644" lon="9.986173532848294"><ele>361.0</ele><time>2026-04-26T15:54:21.001Z</time></trkpt><trkpt lat="45.661015880765774" lon="9.986072834712939"><ele>366.0</ele><time>2026-04-26T15:54:22.001Z</time></trkpt><trkpt lat="45.66100160616445" lon="9.985954170802286"><ele>364.8</ele><time>2026-04-26T15:54:23.001Z</time></trkpt><trkpt lat="45.660985144041334" lon="9.985804844408426"><ele>363.6</ele><time>2026-04-26T15:54:24.001Z</time></trkpt><trkpt lat="45.66096515987294" lon="9.985650228401926"><ele>362.4</ele><time>2026-04-26T15:54:25.001Z</time></trkpt><trkpt lat="45.660962128620845" lon="9.985492286381904"><ele>361.2</ele><time>2026-04-26T15:54:26.001Z</time></trkpt><trkpt lat="45.660960021933086" lon="9.985346604966237"><ele>360.0</ele><time>2026-04-26T15:54:27.001Z</time></trkpt><trkpt lat="45.66095997684661" lon="9.985209839084918"><ele>360.0</ele><time>2026-04-26T15:54:28.001Z</time></trkpt><trkpt lat="45.66096050636852" lon="9.985098488709404"><ele>360.0</ele><time>2026-04-26T15:54:29.001Z</time></trkpt><trkpt lat="45.660958594713435" lon="9.98498501489379"><ele>360.0</ele><time>2026-04-26T15:54:30.001Z</time></trkpt><trkpt lat="45.660947514456616" lon="9.9848846168266"><ele>360.0</ele><time>2026-04-26T15:54:31.001Z</time></trkpt><trkpt lat="45.6609252644108" lon="9.984785124853344"><ele>360.0</ele><time>2026-04-26T15:54:32.001Z</time></trkpt><trkpt lat="45.66091147768048" lon="9.984685287339493"><ele>360.0</ele><time>2026-04-26T15:54:33.001Z</time></trkpt><trkpt lat="45.660874040956536" lon="9.984608732716607"><ele>360.0</ele><time>2026-04-26T15:54:34.001Z</time></trkpt><trkpt lat="45.66081249236076" lon="9.984492081365879"><ele>360.0</ele><time>2026-04-26T15:54:35.001Z</time></trkpt><trkpt lat="45.66075495634395" lon="9.984392516497676"><ele>360.0</ele><time>2026-04-26T15:54:36.001Z</time></trkpt><trkpt lat="45.66071431557996" lon="9.98426045133731"><ele>360.0</ele><time>2026-04-26T15:54:37.001Z</time></trkpt><trkpt lat="45.66068799745021" lon="9.984164513718419"><ele>360.0</ele><time>2026-04-26T15:54:38.001Z</time></trkpt><trkpt lat="45.660653070503805" lon="9.983989791342374"><ele>360.0</ele><time>2026-04-26T15:54:40.001Z</time></trkpt><trkpt lat="45.660626096884926" lon="9.983900494821201"><ele>359.5</ele><time>2026-04-26T15:54:41.001Z</time></trkpt><trkpt lat="45.660586156406254" lon="9.983808470089928"><ele>359.0</ele><time>2026-04-26T15:54:42.001Z</time></trkpt><trkpt lat="45.66054105345913" lon="9.98370536093927"><ele>358.5</ele><time>2026-04-26T15:54:43.001Z</time></trkpt><trkpt lat="45.66050703922619" lon="9.983628496867832"><ele>358.0</ele><time>2026-04-26T15:54:44.001Z</time></trkpt><trkpt lat="45.66050039432897" lon="9.983492227066474"><ele>357.5</ele><time>2026-04-26T15:54:46.001Z</time></trkpt><trkpt lat="45.66052240336255" lon="9.983405744721422"><ele>357.0</ele><time>2026-04-26T15:54:47.001Z</time></trkpt><trkpt lat="45.66052567561266" lon="9.983292654751091"><ele>355.8333333333333</ele><time>2026-04-26T15:54:49.001Z</time></trkpt><trkpt lat="45.66050507194642" lon="9.983160120929972"><ele>354.6666666666667</ele><time>2026-04-26T15:54:52.001Z</time></trkpt><trkpt lat="45.66046573628589" lon="9.983041876947597"><ele>353.5</ele><time>2026-04-26T15:54:57.001Z</time></trkpt><trkpt lat="45.660448328759685" lon="9.9829443744463"><ele>352.33333333333337</ele><time>2026-04-26T15:55:00.001Z</time></trkpt><trkpt lat="45.660430105965375" lon="9.982820263353567"><ele>351.1666666666667</ele><time>2026-04-26T15:55:02.001Z</time></trkpt><trkpt lat="45.66043406461293" lon="9.982728014533805"><ele>350.0</ele><time>2026-04-26T15:55:06.001Z</time></trkpt><trkpt lat="45.66040702287743" lon="9.982622242908487"><ele>349.0</ele><time>2026-04-26T15:55:21.001Z</time></trkpt><trkpt lat="45.660413916789516" lon="9.982496974351116"><ele>348.0</ele><time>2026-04-26T15:55:24Z</time></trkpt><trkpt lat="45.66039173937462" lon="9.982355963248972"><ele>347.0</ele><time>2026-04-26T15:55:26Z</time></trkpt><trkpt lat="45.66036725958477" lon="9.982261210558567"><ele>346.0</ele><time>2026-04-26T15:55:28Z</time></trkpt><trkpt lat="45.66037393502109" lon="9.982164296159537"><ele>345.0</ele><time>2026-04-26T15:56:22.001Z</time></trkpt><trkpt lat="45.6603249707228" lon="9.982084092834425"><ele>344.0</ele><time>2026-04-26T15:56:51.001Z</time></trkpt><trkpt lat="45.66031648835087" lon="9.981970630063772"><ele>344.00000000000006</ele><time>2026-04-26T15:56:54.001Z</time></trkpt><trkpt lat="45.66030270202555" lon="9.981855455283563"><ele>344.0</ele><time>2026-04-26T15:56:57.001Z</time></trkpt><trkpt lat="45.6602883262396" lon="9.981766665525571"><ele>344.0</ele><time>2026-04-26T15:57:02.001Z</time></trkpt><trkpt lat="45.66026041219866" lon="9.981679331367282"><ele>344.0</ele><time>2026-04-26T15:57:16.001Z</time></trkpt><trkpt lat="45.66022282672953" lon="9.981606902920939"><ele>344.0</ele><time>2026-04-26T15:57:19.001Z</time></trkpt><trkpt lat="45.66018603376044" lon="9.981517201212377"><ele>344.00000000000006</ele><time>2026-04-26T15:57:29Z</time></trkpt><trkpt lat="45.66018636642731" lon="9.98161093212938"><ele>344.0</ele><time>2026-04-26T16:03:10Z</time></trkpt><trkpt lat="45.660218557371564" lon="9.981697502963195"><ele>344.00000000000006</ele><time>2026-04-26T16:03:13Z</time></trkpt><trkpt lat="45.66024241139877" lon="9.981784981993615"><ele>344.0</ele><time>2026-04-26T16:03:19Z</time></trkpt><trkpt lat="45.660251214388104" lon="9.981879814462582"><ele>344.0</ele><time>2026-04-26T16:03:22Z</time></trkpt><trkpt lat="45.66023436071702" lon="9.981969340299218"><ele>344.0</ele><time>2026-04-26T16:03:25Z</time></trkpt><trkpt lat="45.66023456547464" lon="9.982091735961669"><ele>344.0</ele><time>2026-04-26T16:03:29Z</time></trkpt><trkpt lat="45.66032604802725" lon="9.982097269802564"><ele>344.00000000000006</ele><time>2026-04-26T16:03:52Z</time></trkpt><trkpt lat="45.66037342923882" lon="9.98215707291079"><ele>344.0</ele><time>2026-04-26T16:04:46Z</time></trkpt><trkpt lat="45.66042436340449" lon="9.982214274202576"><ele>344.0</ele><time>2026-04-26T16:05:53Z</time></trkpt><trkpt lat="45.66042534382304" lon="9.982312889402145"><ele>344.0</ele><time>2026-04-26T16:05:55Z</time></trkpt><trkpt lat="45.660445811013844" lon="9.982402430692252"><ele>344.0</ele><time>2026-04-26T16:05:57Z</time></trkpt><trkpt lat="45.660480948103114" lon="9.98252902204492"><ele>344.0</ele><time>2026-04-26T16:06:00Z</time></trkpt><trkpt lat="45.660447388155454" lon="9.98261703079305"><ele>344.0</ele><time>2026-04-26T16:06:14Z</time></trkpt><trkpt lat="45.66046326405803" lon="9.982725413141578"><ele>344.0</ele><time>2026-04-26T16:06:22Z</time></trkpt><trkpt lat="45.66046677463581" lon="9.982835032125635"><ele>345.0</ele><time>2026-04-26T16:06:25Z</time></trkpt><trkpt lat="45.66047676536344" lon="9.982953959180392"><ele>346.0</ele><time>2026-04-26T16:06:28Z</time></trkpt><trkpt lat="45.6604865163148" lon="9.98308663388282"><ele>347.0</ele><time>2026-04-26T16:06:32Z</time></trkpt><trkpt lat="45.66050415886018" lon="9.983216768392651"><ele>348.0</ele><time>2026-04-26T16:06:34Z</time></trkpt><trkpt lat="45.66050504056797" lon="9.983347814733925"><ele>349.0</ele><time>2026-04-26T16:06:36Z</time></trkpt><trkpt lat="45.660478659841736" lon="9.983440416749014"><ele>350.0</ele><time>2026-04-26T16:06:38Z</time></trkpt><trkpt lat="45.66045512724492" lon="9.98358520140201"><ele>351.4</ele><time>2026-04-26T16:06:40Z</time></trkpt><trkpt lat="45.660473166483726" lon="9.983735834536546"><ele>352.8</ele><time>2026-04-26T16:06:42Z</time></trkpt><trkpt lat="45.660510754793684" lon="9.983843675838422"><ele>354.20000000000005</ele><time>2026-04-26T16:06:44Z</time></trkpt><trkpt lat="45.66053692272281" lon="9.983950119434276"><ele>355.6</ele><time>2026-04-26T16:06:46Z</time></trkpt><trkpt lat="45.66055026643911" lon="9.984048441723356"><ele>357.0</ele><time>2026-04-26T16:06:48Z</time></trkpt><trkpt lat="45.66059658874911" lon="9.984265856471806"><ele>357.0</ele><time>2026-04-26T16:07:10.001Z</time></trkpt><trkpt lat="45.660626041794664" lon="9.984374970729217"><ele>357.0</ele><time>2026-04-26T16:07:11.001Z</time></trkpt><trkpt lat="45.66058027377602" lon="9.984445525023341"><ele>357.0</ele><time>2026-04-26T16:07:38.001Z</time></trkpt><trkpt lat="45.66051400514456" lon="9.984395600994732"><ele>357.0</ele><time>2026-04-26T16:07:40.001Z</time></trkpt><trkpt lat="45.660416865809175" lon="9.984315509066246"><ele>357.0</ele><time>2026-04-26T16:07:42.001Z</time></trkpt><trkpt lat="45.66036268384851" lon="9.98420893849216"><ele>357.0</ele><time>2026-04-26T16:07:44.001Z</time></trkpt><trkpt lat="45.660363132844346" lon="9.98409711292252"><ele>357.0</ele><time>2026-04-26T16:07:46.001Z</time></trkpt><trkpt lat="45.66032519699913" lon="9.983936438255597"><ele>357.0</ele><time>2026-04-26T16:07:48.001Z</time></trkpt><trkpt lat="45.660248348967514" lon="9.983687843082748"><ele>357.0</ele><time>2026-04-26T16:07:51.001Z</time></trkpt><trkpt lat="45.66026315145174" lon="9.983577512048539"><ele>357.0</ele><time>2026-04-26T16:07:53.001Z</time></trkpt><trkpt lat="45.660208948469474" lon="9.983510994641792"><ele>362.6</ele><time>2026-04-26T16:08:03Z</time></trkpt><trkpt lat="45.660162913007085" lon="9.98344501741253"><ele>368.20000000000005</ele><time>2026-04-26T16:08:29Z</time></trkpt><trkpt lat="45.66010896641461" lon="9.983335378189777"><ele>373.8</ele><time>2026-04-26T16:08:34Z</time></trkpt><trkpt lat="45.660073225320694" lon="9.983161835979965"><ele>379.4</ele><time>2026-04-26T16:08:36Z</time></trkpt><trkpt lat="45.66000085442682" lon="9.983066401160597"><ele>385.0</ele><time>2026-04-26T16:08:38Z</time></trkpt><trkpt lat="45.659920137181594" lon="9.982972405633229"><ele>385.0</ele><time>2026-04-26T16:08:40Z</time></trkpt><trkpt lat="45.65989454800924" lon="9.982883822172019"><ele>385.0</ele><time>2026-04-26T16:08:41Z</time></trkpt><trkpt lat="45.65986222414994" lon="9.982801361879869"><ele>385.0</ele><time>2026-04-26T16:08:42Z</time></trkpt><trkpt lat="45.65986872646402" lon="9.982676312392957"><ele>385.0</ele><time>2026-04-26T16:08:44Z</time></trkpt><trkpt lat="45.65984864828131" lon="9.982589250353689"><ele>385.0</ele><time>2026-04-26T16:08:48Z</time></trkpt><trkpt lat="45.65980080658769" lon="9.982527475393058"><ele>385.0</ele><time>2026-04-26T16:08:54Z</time></trkpt><trkpt lat="45.659778772465394" lon="9.98243360254698"><ele>385.0</ele><time>2026-04-26T16:08:57Z</time></trkpt><trkpt lat="45.659750728213226" lon="9.982352838820097"><ele>385.0</ele><time>2026-04-26T16:09:06Z</time></trkpt><trkpt lat="45.659706318871116" lon="9.982281412339923"><ele>385.0</ele><time>2026-04-26T16:09:10Z</time></trkpt><trkpt lat="45.65961169640911" lon="9.982271934080586"><ele>385.0</ele><time>2026-04-26T16:10:38Z</time></trkpt><trkpt lat="45.659652722611476" lon="9.98234689370792"><ele>385.0</ele><time>2026-04-26T16:11:01Z</time></trkpt><trkpt lat="45.65972637201964" lon="9.982380029085258"><ele>385.0</ele><time>2026-04-26T16:11:06Z</time></trkpt><trkpt lat="45.65977257006917" lon="9.982449244398069"><ele>385.0</ele><time>2026-04-26T16:11:12Z</time></trkpt><trkpt lat="45.659809291815016" lon="9.98253015647373"><ele>385.0</ele><time>2026-04-26T16:11:27Z</time></trkpt><trkpt lat="45.659846452031104" lon="9.982604251919245"><ele>385.00000000000006</ele><time>2026-04-26T16:11:30Z</time></trkpt><trkpt lat="45.65986599590868" lon="9.982720846693768"><ele>385.0</ele><time>2026-04-26T16:11:34Z</time></trkpt><trkpt lat="45.65992602791077" lon="9.98280784654842"><ele>385.0</ele><time>2026-04-26T16:11:37.001Z</time></trkpt><trkpt lat="45.65998721756728" lon="9.982914017787154"><ele>385.0</ele><time>2026-04-26T16:11:40.001Z</time></trkpt><trkpt lat="45.66003190426557" lon="9.983014714119019"><ele>385.00000000000006</ele><time>2026-04-26T16:11:43.001Z</time></trkpt><trkpt lat="45.66006105913807" lon="9.983102654211445"><ele>385.0</ele><time>2026-04-26T16:11:46.001Z</time></trkpt><trkpt lat="45.660089405427996" lon="9.983208339078164"><ele>385.00000000000006</ele><time>2026-04-26T16:11:52.001Z</time></trkpt><trkpt lat="45.66010439142493" lon="9.98329789699839"><ele>385.0</ele><time>2026-04-26T16:11:54.001Z</time></trkpt><trkpt lat="45.66015435414708" lon="9.983419054804045"><ele>385.0</ele><time>2026-04-26T16:11:56.001Z</time></trkpt><trkpt lat="45.66019569756729" lon="9.983548515024376"><ele>385.0</ele><time>2026-04-26T16:11:58.001Z</time></trkpt><trkpt lat="45.66021547238422" lon="9.983652998433843"><ele>385.00000000000006</ele><time>2026-04-26T16:12:00.001Z</time></trkpt><trkpt lat="45.66027659219996" lon="9.983746157689392"><ele>385.0</ele><time>2026-04-26T16:12:02.001Z</time></trkpt><trkpt lat="45.660328855855454" lon="9.983849649180346"><ele>380.83333333333337</ele><time>2026-04-26T16:12:04.001Z</time></trkpt><trkpt lat="45.660344785174246" lon="9.983937604186753"><ele>376.6666666666667</ele><time>2026-04-26T16:12:05.001Z</time></trkpt><trkpt lat="45.66036136193155" lon="9.984028082622821"><ele>372.5</ele><time>2026-04-26T16:12:06.001Z</time></trkpt><trkpt lat="45.660401300646825" lon="9.984186440558076"><ele>368.33333333333337</ele><time>2026-04-26T16:12:08.001Z</time></trkpt><trkpt lat="45.66044788671099" lon="9.984264339643769"><ele>364.1666666666667</ele><time>2026-04-26T16:12:10.001Z</time></trkpt><trkpt lat="45.66051731265317" lon="9.984342869503335"><ele>360.0</ele><time>2026-04-26T16:12:12Z</time></trkpt><trkpt lat="45.66059658285585" lon="9.984373863125603"><ele>360.0</ele><time>2026-04-26T16:12:14Z</time></trkpt><trkpt lat="45.66065955119861" lon="9.984403208941153"><ele>360.0</ele><time>2026-04-26T16:12:16Z</time></trkpt><trkpt lat="45.66074549942857" lon="9.984658448141264"><ele>360.0</ele><time>2026-04-26T16:13:41Z</time></trkpt><trkpt lat="45.66078422542796" lon="9.98473652344267"><ele>360.0</ele><time>2026-04-26T16:13:42Z</time></trkpt><trkpt lat="45.66080914797543" lon="9.984823999601142"><ele>360.0</ele><time>2026-04-26T16:13:43Z</time></trkpt><trkpt lat="45.66082800674566" lon="9.984912363997969"><ele>360.0</ele><time>2026-04-26T16:13:44Z</time></trkpt><trkpt lat="45.66084738815701" lon="9.984998156239072"><ele>360.0</ele><time>2026-04-26T16:13:45Z</time></trkpt><trkpt lat="45.66086540389876" lon="9.985154450667654"><ele>360.0</ele><time>2026-04-26T16:13:47Z</time></trkpt><trkpt lat="45.66090910405217" lon="9.985319215282363"><ele>360.0</ele><time>2026-04-26T16:13:49Z</time></trkpt><trkpt lat="45.66091688188624" lon="9.985422521680569"><ele>360.0</ele><time>2026-04-26T16:13:50Z</time></trkpt><trkpt lat="45.66091361662724" lon="9.985555186108806"><ele>360.0</ele><time>2026-04-26T16:13:51Z</time></trkpt><trkpt lat="45.66092249549351" lon="9.98568342014898"><ele>360.0</ele><time>2026-04-26T16:13:52Z</time></trkpt><trkpt lat="45.660931088587695" lon="9.98581980926395"><ele>360.0</ele><time>2026-04-26T16:13:53Z</time></trkpt><trkpt lat="45.66094179205594" lon="9.985950662559897"><ele>360.0</ele><time>2026-04-26T16:13:54Z</time></trkpt><trkpt lat="45.660966916394415" lon="9.986051352918171"><ele>360.0</ele><time>2026-04-26T16:13:55.001Z</time></trkpt><trkpt lat="45.66099207876615" lon="9.986148672038457"><ele>360.0</ele><time>2026-04-26T16:13:56.001Z</time></trkpt><trkpt lat="45.66101542449648" lon="9.986232912200197"><ele>361.2</ele><time>2026-04-26T16:13:57.001Z</time></trkpt><trkpt lat="45.6610449828426" lon="9.986346746997626"><ele>362.4</ele><time>2026-04-26T16:13:59.001Z</time></trkpt><trkpt lat="45.66107079875633" lon="9.986468703332477"><ele>363.6</ele><time>2026-04-26T16:14:01.001Z</time></trkpt><trkpt lat="45.661146557242695" lon="9.986615912920225"><ele>364.8</ele><time>2026-04-26T16:14:03.001Z</time></trkpt><trkpt lat="45.66121528091249" lon="9.986764755480571"><ele>366.0</ele><time>2026-04-26T16:14:05.001Z</time></trkpt><trkpt lat="45.66125054657676" lon="9.986862815967879"><ele>361.0</ele><time>2026-04-26T16:14:06.001Z</time></trkpt><trkpt lat="45.661293571706125" lon="9.986967864163406"><ele>356.0</ele><time>2026-04-26T16:14:07.001Z</time></trkpt><trkpt lat="45.66134563725108" lon="9.98706267989029"><ele>351.0</ele><time>2026-04-26T16:14:08.001Z</time></trkpt><trkpt lat="45.66138322750016" lon="9.987149776653645"><ele>346.0</ele><time>2026-04-26T16:14:09.001Z</time></trkpt><trkpt lat="45.661434419427216" lon="9.987245624351152"><ele>341.0</ele><time>2026-04-26T16:14:10.001Z</time></trkpt><trkpt lat="45.66149268077103" lon="9.98734027951334"><ele>336.0</ele><time>2026-04-26T16:14:11.001Z</time></trkpt><trkpt lat="45.66154784045064" lon="9.987442084306913"><ele>336.0</ele><time>2026-04-26T16:14:12.001Z</time></trkpt><trkpt lat="45.661596570313634" lon="9.987538626802621"><ele>336.0</ele><time>2026-04-26T16:14:13.001Z</time></trkpt><trkpt lat="45.661641267584905" lon="9.987631042358176"><ele>336.0</ele><time>2026-04-26T16:14:14.001Z</time></trkpt><trkpt lat="45.66167222153898" lon="9.98773605681082"><ele>336.0</ele><time>2026-04-26T16:14:15.001Z</time></trkpt><trkpt lat="45.661673048775135" lon="9.987869097939745"><ele>336.0</ele><time>2026-04-26T16:14:16.001Z</time></trkpt><trkpt lat="45.66167787690605" lon="9.987972147068445"><ele>336.0</ele><time>2026-04-26T16:14:17Z</time></trkpt><trkpt lat="45.661685244115276" lon="9.988062093802045"><ele>336.0</ele><time>2026-04-26T16:14:18Z</time></trkpt><trkpt lat="45.661635102273685" lon="9.988224074399925"><ele>336.0</ele><time>2026-04-26T16:14:20Z</time></trkpt><trkpt lat="45.66158291575762" lon="9.988292210625318"><ele>336.0</ele><time>2026-04-26T16:14:21Z</time></trkpt><trkpt lat="45.66153565014883" lon="9.988375657868348"><ele>336.0</ele><time>2026-04-26T16:14:22Z</time></trkpt><trkpt lat="45.66150422992482" lon="9.988471710607662"><ele>336.0</ele><time>2026-04-26T16:14:23Z</time></trkpt><trkpt lat="45.6614518708147" lon="9.988638853954667"><ele>334.20000000000005</ele><time>2026-04-26T16:14:25Z</time></trkpt><trkpt lat="45.66141526815512" lon="9.98872558288245"><ele>332.40000000000003</ele><time>2026-04-26T16:14:26Z</time></trkpt><trkpt lat="45.661335384211064" lon="9.988881257327053"><ele>330.6</ele><time>2026-04-26T16:14:28Z</time></trkpt><trkpt lat="45.661286408598734" lon="9.989004200486844"><ele>328.8</ele><time>2026-04-26T16:14:29Z</time></trkpt><trkpt lat="45.66121380031854" lon="9.9891136547204"><ele>327.0</ele><time>2026-04-26T16:14:30Z</time></trkpt><trkpt lat="45.66115443446826" lon="9.989228489331266"><ele>327.8</ele><time>2026-04-26T16:14:31Z</time></trkpt><trkpt lat="45.66108394282496" lon="9.989356505139002"><ele>328.6</ele><time>2026-04-26T16:14:32Z</time></trkpt><trkpt lat="45.66101902484382" lon="9.989483287045884"><ele>329.40000000000003</ele><time>2026-04-26T16:14:33Z</time></trkpt><trkpt lat="45.66096040973672" lon="9.989597570439683"><ele>330.20000000000005</ele><time>2026-04-26T16:14:34Z</time></trkpt><trkpt lat="45.6609038001019" lon="9.989694781583982"><ele>331.0</ele><time>2026-04-26T16:14:35Z</time></trkpt><trkpt lat="45.66085967277099" lon="9.989770408076339"><ele>331.0</ele><time>2026-04-26T16:14:36Z</time></trkpt><trkpt lat="45.66078400359074" lon="9.989866246389939"><ele>331.0</ele><time>2026-04-26T16:14:38Z</time></trkpt><trkpt lat="45.66070271288217" lon="9.989785719212582"><ele>331.0</ele><time>2026-04-26T16:14:40Z</time></trkpt><trkpt lat="45.66063729837705" lon="9.989625779510856"><ele>331.0</ele><time>2026-04-26T16:14:42Z</time></trkpt><trkpt lat="45.66061119058846" lon="9.989543106484868"><ele>331.0</ele><time>2026-04-26T16:14:43Z</time></trkpt><trkpt lat="45.660576347618836" lon="9.98946239076826"><ele>331.0</ele><time>2026-04-26T16:14:44Z</time></trkpt><trkpt lat="45.66050502847057" lon="9.989363928633763"><ele>331.0</ele><time>2026-04-26T16:14:46Z</time></trkpt><trkpt lat="45.660425448907766" lon="9.989258979278596"><ele>331.0</ele><time>2026-04-26T16:14:48Z</time></trkpt><trkpt lat="45.66033155205622" lon="9.989182814246231"><ele>331.0</ele><time>2026-04-26T16:14:50Z</time></trkpt><trkpt lat="45.66022673392547" lon="9.989182681560356"><ele>331.0</ele><time>2026-04-26T16:14:52Z</time></trkpt><trkpt lat="45.660115157951054" lon="9.98913338216666"><ele>336.6</ele><time>2026-04-26T16:14:54Z</time></trkpt><trkpt lat="45.65997573202326" lon="9.989035230326838"><ele>342.20000000000005</ele><time>2026-04-26T16:14:56Z</time></trkpt><trkpt lat="45.659915700409535" lon="9.988971306228486"><ele>347.79999999999995</ele><time>2026-04-26T16:14:57Z</time></trkpt><trkpt lat="45.65988112860825" lon="9.988881571635565"><ele>353.4</ele><time>2026-04-26T16:14:59Z</time></trkpt><trkpt lat="45.65987401792531" lon="9.988720320673982"><ele>359.0</ele><time>2026-04-26T16:15:05Z</time></trkpt><trkpt lat="45.6598994415552" lon="9.988569336317227"><ele>359.0</ele><time>2026-04-26T16:15:07Z</time></trkpt><trkpt lat="45.6599153552334" lon="9.988428411097306"><ele>359.0</ele><time>2026-04-26T16:15:08Z</time></trkpt><trkpt lat="45.6599244839313" lon="9.988289341115097"><ele>359.0</ele><time>2026-04-26T16:15:09Z</time></trkpt><trkpt lat="45.65993972071672" lon="9.988145210369101"><ele>359.0</ele><time>2026-04-26T16:15:10Z</time></trkpt><trkpt lat="45.659957905976576" lon="9.988011823754317"><ele>359.0</ele><time>2026-04-26T16:15:11Z</time></trkpt><trkpt lat="45.659968167598656" lon="9.98788872248082"><ele>361.6666666666667</ele><time>2026-04-26T16:15:12Z</time></trkpt><trkpt lat="45.65998914070431" lon="9.987772425490549"><ele>364.33333333333337</ele><time>2026-04-26T16:15:13Z</time></trkpt><trkpt lat="45.6600125560327" lon="9.987684768960026"><ele>367.0</ele><time>2026-04-26T16:15:14Z</time></trkpt><trkpt lat="45.66002739668265" lon="9.987591046506521"><ele>369.6666666666667</ele><time>2026-04-26T16:15:15Z</time></trkpt><trkpt lat="45.66001483219892" lon="9.987492238101005"><ele>372.3333333333333</ele><time>2026-04-26T16:15:16Z</time></trkpt><trkpt lat="45.65997493429031" lon="9.987370739459255"><ele>375.0</ele><time>2026-04-26T16:15:17Z</time></trkpt><trkpt lat="45.65995376364639" lon="9.987254673989879"><ele>376.8571428571429</ele><time>2026-04-26T16:15:18Z</time></trkpt><trkpt lat="45.6599346982981" lon="9.987165402680054"><ele>378.71428571428567</ele><time>2026-04-26T16:15:19Z</time></trkpt><trkpt lat="45.65990471019518" lon="9.987074047692007"><ele>380.57142857142856</ele><time>2026-04-26T16:15:20Z</time></trkpt><trkpt lat="45.65987231474244" lon="9.98695573066069"><ele>382.42857142857144</ele><time>2026-04-26T16:15:22Z</time></trkpt><trkpt lat="45.65987957008413" lon="9.986861693046315"><ele>384.28571428571433</ele><time>2026-04-26T16:15:31Z</time></trkpt><trkpt lat="45.65987227341907" lon="9.986755575541027"><ele>386.1428571428571</ele><time>2026-04-26T16:15:33Z</time></trkpt><trkpt lat="45.65982753843102" lon="9.986665218464847"><ele>388.0</ele><time>2026-04-26T16:15:35Z</time></trkpt><trkpt lat="45.65976403735421" lon="9.986650794118807"><ele>388.00000000000006</ele><time>2026-04-26T16:15:38Z</time></trkpt><trkpt lat="45.65970214135543" lon="9.986769501451557"><ele>388.0</ele><time>2026-04-26T16:15:40Z</time></trkpt><trkpt lat="45.65964343421518" lon="9.986830457745508"><ele>388.0</ele><time>2026-04-26T16:15:41Z</time></trkpt><trkpt lat="45.65959516471532" lon="9.986901907806397"><ele>388.0</ele><time>2026-04-26T16:15:43Z</time></trkpt><trkpt lat="45.659513810396966" lon="9.98689527695056"><ele>388.00000000000006</ele><time>2026-04-26T16:15:51Z</time></trkpt><trkpt lat="45.65943915755337" lon="9.986879726392882"><ele>388.0</ele><time>2026-04-26T16:15:54Z</time></trkpt><trkpt lat="45.65935714425428" lon="9.986833101646818"><ele>390.0</ele><time>2026-04-26T16:15:57Z</time></trkpt><trkpt lat="45.65929837893764" lon="9.986877977406921"><ele>392.0</ele><time>2026-04-26T16:16:02Z</time></trkpt><trkpt lat="45.65923160817449" lon="9.986861944503792"><ele>394.0</ele><time>2026-04-26T16:16:12Z</time></trkpt><trkpt lat="45.659198721514265" lon="9.986774253231392"><ele>396.0</ele><time>2026-04-26T16:18:06Z</time></trkpt><trkpt lat="45.659131573174136" lon="9.986778376278707"><ele>398.0</ele><time>2026-04-26T16:18:35Z</time></trkpt><trkpt lat="45.65906789364682" lon="9.98678183774437"><ele>400.0</ele><time>2026-04-26T16:18:46Z</time></trkpt><trkpt lat="45.65900535066968" lon="9.986726621737816"><ele>402.0</ele><time>2026-04-26T16:20:23Z</time></trkpt><trkpt lat="45.65897847800004" lon="9.986628895763381"><ele>404.6</ele><time>2026-04-26T16:20:27Z</time></trkpt><trkpt lat="45.65893674585957" lon="9.986556632365328"><ele>407.20000000000005</ele><time>2026-04-26T16:20:36Z</time></trkpt><trkpt lat="45.658925090519624" lon="9.98646797237321"><ele>409.8</ele><time>2026-04-26T16:20:39Z</time></trkpt><trkpt lat="45.65886344115257" lon="9.986362744390634"><ele>412.4</ele><time>2026-04-26T16:20:41Z</time></trkpt><trkpt lat="45.658788790560706" lon="9.986329474695633"><ele>415.0</ele><time>2026-04-26T16:20:43Z</time></trkpt><trkpt lat="45.65863344948358" lon="9.986260683213974"><ele>417.0</ele><time>2026-04-26T16:20:45Z</time></trkpt><trkpt lat="45.658521045634984" lon="9.986206089323787"><ele>419.0</ele><time>2026-04-26T16:20:46Z</time></trkpt><trkpt lat="45.65840165777892" lon="9.986152477584284"><ele>421.0</ele><time>2026-04-26T16:20:47Z</time></trkpt><trkpt lat="45.65828545181777" lon="9.986085603502437"><ele>423.0</ele><time>2026-04-26T16:20:48Z</time></trkpt><trkpt lat="45.65818884590029" lon="9.986045291913342"><ele>423.0</ele><time>2026-04-26T16:20:49Z</time></trkpt><trkpt lat="45.658058913808105" lon="9.986011912737814"><ele>423.0</ele><time>2026-04-26T16:20:50Z</time></trkpt><trkpt lat="45.65791030518163" lon="9.985997858348464"><ele>423.0</ele><time>2026-04-26T16:20:52Z</time></trkpt><trkpt lat="45.65780991969065" lon="9.985999816111956"><ele>423.0</ele><time>2026-04-26T16:20:53Z</time></trkpt><trkpt lat="45.6577359269916" lon="9.985948029242783"><ele>425.75</ele><time>2026-04-26T16:20:54Z</time></trkpt><trkpt lat="45.657641539038124" lon="9.985791873877329"><ele>428.5</ele><time>2026-04-26T16:20:56Z</time></trkpt><trkpt lat="45.65756858168523" lon="9.985653598861678"><ele>431.25</ele><time>2026-04-26T16:20:57Z</time></trkpt><trkpt lat="45.65746895978383" lon="9.98551607085536"><ele>434.0</ele><time>2026-04-26T16:20:58Z</time></trkpt><trkpt lat="45.65739927410529" lon="9.985417867886952"><ele>433.99999999999994</ele><time>2026-04-26T16:20:59Z</time></trkpt><trkpt lat="45.6573113702481" lon="9.985384280364139"><ele>434.0</ele><time>2026-04-26T16:21:00Z</time></trkpt><trkpt lat="45.65723643868968" lon="9.985364854551811"><ele>434.0</ele><time>2026-04-26T16:21:01Z</time></trkpt><trkpt lat="45.657136802106976" lon="9.985360305954122"><ele>434.0</ele><time>2026-04-26T16:21:03Z</time></trkpt><trkpt lat="45.65708503383368" lon="9.985308756953156"><ele>433.99999999999994</ele><time>2026-04-26T16:21:04Z</time></trkpt><trkpt lat="45.65703366605323" lon="9.985202087998646"><ele>434.0</ele><time>2026-04-26T16:21:05Z</time></trkpt><trkpt lat="45.65699551697278" lon="9.985060681496215"><ele>432.5</ele><time>2026-04-26T16:21:06Z</time></trkpt><trkpt lat="45.65696526885746" lon="9.98490273877643"><ele>431.0</ele><time>2026-04-26T16:21:07Z</time></trkpt><trkpt lat="45.65694150009829" lon="9.984741089630393"><ele>429.5</ele><time>2026-04-26T16:21:08Z</time></trkpt><trkpt lat="45.65694302151859" lon="9.98458402841392"><ele>428.0</ele><time>2026-04-26T16:21:09Z</time></trkpt><trkpt lat="45.656915997363846" lon="9.984417876375963"><ele>428.0</ele><time>2026-04-26T16:21:10Z</time></trkpt><trkpt lat="45.65690513480297" lon="9.984240032471996"><ele>427.99999999999994</ele><time>2026-04-26T16:21:11Z</time></trkpt><trkpt lat="45.656875953517186" lon="9.984091403161687"><ele>427.99999999999994</ele><time>2026-04-26T16:21:12Z</time></trkpt><trkpt lat="45.65682590578734" lon="9.983964344173488"><ele>428.0</ele><time>2026-04-26T16:21:13Z</time></trkpt><trkpt lat="45.65677076742832" lon="9.98385661799309"><ele>428.0</ele><time>2026-04-26T16:21:14Z</time></trkpt><trkpt lat="45.65673103763705" lon="9.983752277219121"><ele>429.3333333333333</ele><time>2026-04-26T16:21:15Z</time></trkpt><trkpt lat="45.65675591787106" lon="9.98356477007483"><ele>430.66666666666663</ele><time>2026-04-26T16:21:17Z</time></trkpt><trkpt lat="45.65678688022426" lon="9.983449240614178"><ele>432.0</ele><time>2026-04-26T16:21:18Z</time></trkpt><trkpt lat="45.65682004966343" lon="9.983369521864297"><ele>433.33333333333337</ele><time>2026-04-26T16:21:19Z</time></trkpt><trkpt lat="45.65684542753993" lon="9.983268427873762"><ele>434.6666666666667</ele><time>2026-04-26T16:21:20Z</time></trkpt><trkpt lat="45.65684850707425" lon="9.98315572351595"><ele>436.0</ele><time>2026-04-26T16:21:21Z</time></trkpt><trkpt lat="45.65683408366264" lon="9.983037856326153"><ele>436.8</ele><time>2026-04-26T16:21:22Z</time></trkpt><trkpt lat="45.656802490157645" lon="9.982914313013685"><ele>437.6</ele><time>2026-04-26T16:21:23Z</time></trkpt><trkpt lat="45.65676750475101" lon="9.982799379150991"><ele>438.4</ele><time>2026-04-26T16:21:24Z</time></trkpt><trkpt lat="45.656732599762925" lon="9.982710033722832"><ele>439.2</ele><time>2026-04-26T16:21:25Z</time></trkpt><trkpt lat="45.656708613135706" lon="9.982615457870565"><ele>440.0</ele><time>2026-04-26T16:21:26Z</time></trkpt><trkpt lat="45.65661176776482" lon="9.982445670107394"><ele>440.8333333333333</ele><time>2026-04-26T16:21:28Z</time></trkpt><trkpt lat="45.6565395884726" lon="9.982358266205907"><ele>441.66666666666663</ele><time>2026-04-26T16:21:29Z</time></trkpt><trkpt lat="45.65647927230754" lon="9.982263276785924"><ele>442.5</ele><time>2026-04-26T16:21:30Z</time></trkpt><trkpt lat="45.65643293173477" lon="9.982193677056548"><ele>443.33333333333337</ele><time>2026-04-26T16:21:31Z</time></trkpt><trkpt lat="45.656377525417106" lon="9.982113710385148"><ele>444.1666666666667</ele><time>2026-04-26T16:21:32Z</time></trkpt><trkpt lat="45.65633065511253" lon="9.98201881022219"><ele>445.0</ele><time>2026-04-26T16:21:33Z</time></trkpt><trkpt lat="45.656271771771486" lon="9.981916485891826"><ele>445.0</ele><time>2026-04-26T16:21:34Z</time></trkpt><trkpt lat="45.656186069343306" lon="9.981834166049339"><ele>445.0</ele><time>2026-04-26T16:21:35Z</time></trkpt><trkpt lat="45.65609127580125" lon="9.981728623043969"><ele>445.0</ele><time>2026-04-26T16:21:36Z</time></trkpt><trkpt lat="45.656001943826226" lon="9.981603579301986"><ele>445.0</ele><time>2026-04-26T16:21:37Z</time></trkpt><trkpt lat="45.65592699061077" lon="9.981495165809495"><ele>441.6</ele><time>2026-04-26T16:21:38Z</time></trkpt><trkpt lat="45.65584871717434" lon="9.98142593772635"><ele>438.2</ele><time>2026-04-26T16:21:39Z</time></trkpt><trkpt lat="45.65579451443545" lon="9.981353452881356"><ele>434.79999999999995</ele><time>2026-04-26T16:21:40Z</time></trkpt><trkpt lat="45.655734055027715" lon="9.981230196294515"><ele>431.4</ele><time>2026-04-26T16:21:42Z</time></trkpt><trkpt lat="45.655707469037736" lon="9.98107589275955"><ele>428.0</ele><time>2026-04-26T16:21:44Z</time></trkpt><trkpt lat="45.65570118524931" lon="9.980917033097972"><ele>427.99999999999994</ele><time>2026-04-26T16:21:46Z</time></trkpt><trkpt lat="45.65565691725672" lon="9.980795190135044"><ele>428.0</ele><time>2026-04-26T16:21:49Z</time></trkpt><trkpt lat="45.65561479198449" lon="9.98072045470988"><ele>428.0</ele><time>2026-04-26T16:21:51Z</time></trkpt><trkpt lat="45.65558275036838" lon="9.980798673422969"><ele>428.0</ele><time>2026-04-26T16:22:43Z</time></trkpt><trkpt lat="45.65561870784945" lon="9.98087736585701"><ele>427.99999999999994</ele><time>2026-04-26T16:22:52Z</time></trkpt><trkpt lat="45.65556171948246" lon="9.980734853704895"><ele>428.0</ele><time>2026-04-26T16:23:48Z</time></trkpt><trkpt lat="45.65552230750401" lon="9.980631662772884"><ele>427.66666666666663</ele><time>2026-04-26T16:23:49Z</time></trkpt><trkpt lat="45.65549191092799" lon="9.980518556380183"><ele>427.3333333333333</ele><time>2026-04-26T16:23:50Z</time></trkpt><trkpt lat="45.655469568692205" lon="9.98043415742163"><ele>427.0</ele><time>2026-04-26T16:23:51Z</time></trkpt><trkpt lat="45.65542376032633" lon="9.98035395243667"><ele>426.66666666666663</ele><time>2026-04-26T16:23:52Z</time></trkpt><trkpt lat="45.655372816340396" lon="9.98028452170475"><ele>426.3333333333333</ele><time>2026-04-26T16:23:53Z</time></trkpt><trkpt lat="45.65533265163607" lon="9.98021000087733"><ele>426.0</ele><time>2026-04-26T16:23:54Z</time></trkpt><trkpt lat="45.65526540640218" lon="9.980092104029175"><ele>429.0</ele><time>2026-04-26T16:23:56Z</time></trkpt><trkpt lat="45.65519815410003" lon="9.979929555795788"><ele>432.0</ele><time>2026-04-26T16:23:58Z</time></trkpt><trkpt lat="45.655188177185345" lon="9.979743926001426"><ele>435.0</ele><time>2026-04-26T16:24:00Z</time></trkpt><trkpt lat="45.655167460919024" lon="9.979638202627049"><ele>438.0</ele><time>2026-04-26T16:24:01Z</time></trkpt><trkpt lat="45.65515701969045" lon="9.979533120709569"><ele>441.0</ele><time>2026-04-26T16:24:02Z</time></trkpt><trkpt lat="45.65512549387186" lon="9.97944628664046"><ele>441.0</ele><time>2026-04-26T16:24:03Z</time></trkpt><trkpt lat="45.65506119829003" lon="9.979294026132607"><ele>441.0</ele><time>2026-04-26T16:24:05Z</time></trkpt><trkpt lat="45.65496896495022" lon="9.979167619813136"><ele>441.0</ele><time>2026-04-26T16:24:07Z</time></trkpt><trkpt lat="45.654907814542895" lon="9.979085483099652"><ele>441.0</ele><time>2026-04-26T16:24:08Z</time></trkpt><trkpt lat="45.65485808927447" lon="9.979013715209803"><ele>441.0</ele><time>2026-04-26T16:24:09Z</time></trkpt><trkpt lat="45.65478079313612" lon="9.978923794582016"><ele>444.5</ele><time>2026-04-26T16:24:11Z</time></trkpt><trkpt lat="45.65473372380376" lon="9.978859622664153"><ele>448.0</ele><time>2026-04-26T16:24:13Z</time></trkpt><trkpt lat="45.65469389174318" lon="9.978788539385139"><ele>451.5</ele><time>2026-04-26T16:24:16Z</time></trkpt><trkpt lat="45.654632654138574" lon="9.978751453319521"><ele>455.0</ele><time>2026-04-26T16:24:18Z</time></trkpt><trkpt lat="45.65458395509788" lon="9.978694167176565"><ele>458.5</ele><time>2026-04-26T16:24:22Z</time></trkpt><trkpt lat="45.65463295257661" lon="9.97886355065848"><ele>462.0</ele><time>2026-04-26T16:24:47Z</time></trkpt><trkpt lat="45.6546779067092" lon="9.978938320062126"><ele>462.0</ele><time>2026-04-26T16:24:48Z</time></trkpt><trkpt lat="45.65472540449755" lon="9.97901021992806"><ele>462.0</ele><time>2026-04-26T16:24:49Z</time></trkpt><trkpt lat="45.65477237787845" lon="9.979080073869932"><ele>462.0</ele><time>2026-04-26T16:24:50Z</time></trkpt><trkpt lat="45.6548570548745" lon="9.979213586256831"><ele>462.0</ele><time>2026-04-26T16:24:52Z</time></trkpt><trkpt lat="45.65490282159373" lon="9.979287533908726"><ele>462.0</ele><time>2026-04-26T16:24:53Z</time></trkpt><trkpt lat="45.65495905870572" lon="9.979383461787474"><ele>462.0</ele><time>2026-04-26T16:24:54Z</time></trkpt><trkpt lat="45.65501496802259" lon="9.979482263044432"><ele>457.8</ele><time>2026-04-26T16:24:55Z</time></trkpt><trkpt lat="45.65506714421726" lon="9.979568241259196"><ele>453.6</ele><time>2026-04-26T16:24:56Z</time></trkpt><trkpt lat="45.655133510654856" lon="9.979675054846139"><ele>449.40000000000003</ele><time>2026-04-26T16:24:58Z</time></trkpt><trkpt lat="45.655174693537006" lon="9.979774286247885"><ele>445.20000000000005</ele><time>2026-04-26T16:25:00Z</time></trkpt><trkpt lat="45.65521522002153" lon="9.979866668908457"><ele>441.0</ele><time>2026-04-26T16:25:03Z</time></trkpt><trkpt lat="45.65526533240004" lon="9.980118627181852"><ele>442.8333333333333</ele><time>2026-04-26T16:25:10Z</time></trkpt><trkpt lat="45.65533542968538" lon="9.98023276028775"><ele>444.66666666666663</ele><time>2026-04-26T16:25:11Z</time></trkpt><trkpt lat="45.655411866510576" lon="9.9803464992037"><ele>446.5</ele><time>2026-04-26T16:25:12Z</time></trkpt><trkpt lat="45.65546044742364" lon="9.980434252577558"><ele>448.3333333333333</ele><time>2026-04-26T16:25:13Z</time></trkpt><trkpt lat="45.65549914193353" lon="9.98051317401302"><ele>450.16666666666663</ele><time>2026-04-26T16:25:14Z</time></trkpt><trkpt lat="45.65552805009211" lon="9.980604939042898"><ele>452.0</ele><time>2026-04-26T16:25:15Z</time></trkpt><trkpt lat="45.65556814457867" lon="9.980704547716586"><ele>451.99999999999994</ele><time>2026-04-26T16:25:16Z</time></trkpt><trkpt lat="45.655626590256205" lon="9.98079061825507"><ele>452.0</ele><time>2026-04-26T16:25:17Z</time></trkpt><trkpt lat="45.65569859779814" lon="9.980897338198137"><ele>452.0</ele><time>2026-04-26T16:25:19Z</time></trkpt><trkpt lat="45.65566485455327" lon="9.980989816982476"><ele>452.0</ele><time>2026-04-26T16:25:28Z</time></trkpt><trkpt lat="45.65566077457321" lon="9.981118876423281"><ele>451.99999999999994</ele><time>2026-04-26T16:25:31Z</time></trkpt><trkpt lat="45.65564519195217" lon="9.981211269806407"><ele>452.0</ele><time>2026-04-26T16:25:33Z</time></trkpt><trkpt lat="45.655680867104905" lon="9.981294686305892"><ele>446.0</ele><time>2026-04-26T16:25:38Z</time></trkpt><trkpt lat="45.65561885531189" lon="9.981240431927462"><ele>440.0</ele><time>2026-04-26T16:25:41Z</time></trkpt><trkpt lat="45.65534273500199" lon="9.981074850370003"><ele>434.0</ele><time>2026-04-26T16:25:45Z</time></trkpt><trkpt lat="45.655276314054525" lon="9.98106113527134"><ele>428.0</ele><time>2026-04-26T16:25:46Z</time></trkpt><trkpt lat="45.65519598584148" lon="9.98103811937405"><ele>425.49999999999994</ele><time>2026-04-26T16:25:47Z</time></trkpt><trkpt lat="45.65510554980969" lon="9.98100579312913"><ele>423.0</ele><time>2026-04-26T16:25:48Z</time></trkpt><trkpt lat="45.65501912231374" lon="9.980988455189978"><ele>420.5</ele><time>2026-04-26T16:25:49Z</time></trkpt><trkpt lat="45.654944939853216" lon="9.980980471992401"><ele>418.0</ele><time>2026-04-26T16:25:50Z</time></trkpt><trkpt lat="45.65487769150089" lon="9.980979036847735"><ele>415.49999999999994</ele><time>2026-04-26T16:25:51Z</time></trkpt><trkpt lat="45.654780718413505" lon="9.981008348183247"><ele>413.0</ele><time>2026-04-26T16:25:53Z</time></trkpt><trkpt lat="45.65471782178348" lon="9.980989651739788"><ele>412.0</ele><time>2026-04-26T16:25:54Z</time></trkpt><trkpt lat="45.65459556111165" lon="9.980821597645633"><ele>411.0</ele><time>2026-04-26T16:25:56Z</time></trkpt><trkpt lat="45.65450660280073" lon="9.980735840136616"><ele>410.0</ele><time>2026-04-26T16:25:57Z</time></trkpt><trkpt lat="45.654431799557905" lon="9.980624463606304"><ele>409.0</ele><time>2026-04-26T16:25:58Z</time></trkpt><trkpt lat="45.65433339092483" lon="9.980489805079397"><ele>409.0</ele><time>2026-04-26T16:25:59Z</time></trkpt><trkpt lat="45.65422604387834" lon="9.980344447089177"><ele>409.0</ele><time>2026-04-26T16:26:00Z</time></trkpt><trkpt lat="45.654131697473574" lon="9.980204001147662"><ele>409.0</ele><time>2026-04-26T16:26:01Z</time></trkpt><trkpt lat="45.65406465447135" lon="9.98010333605835"><ele>409.0</ele><time>2026-04-26T16:26:02Z</time></trkpt><trkpt lat="45.65401554504351" lon="9.980040002360473"><ele>409.0</ele><time>2026-04-26T16:26:03Z</time></trkpt><trkpt lat="45.65394105113532" lon="9.979937358036361"><ele>410.2</ele><time>2026-04-26T16:26:04Z</time></trkpt><trkpt lat="45.65387479816994" lon="9.979836677093317"><ele>411.4</ele><time>2026-04-26T16:26:05Z</time></trkpt><trkpt lat="45.65382979076627" lon="9.979734132438978"><ele>412.6</ele><time>2026-04-26T16:26:06Z</time></trkpt><trkpt lat="45.65375742983083" lon="9.979611779040026"><ele>413.8</ele><time>2026-04-26T16:26:08Z</time></trkpt><trkpt lat="45.65365019822356" lon="9.979491976334401"><ele>415.0</ele><time>2026-04-26T16:26:10Z</time></trkpt><trkpt lat="45.65354536452242" lon="9.97949009309879"><ele>415.0</ele><time>2026-04-26T16:26:11Z</time></trkpt><trkpt lat="45.65342812162851" lon="9.979673221195211"><ele>415.0</ele><time>2026-04-26T16:26:13Z</time></trkpt><trkpt lat="45.65338745597372" lon="9.979854270710158"><ele>415.0</ele><time>2026-04-26T16:26:15Z</time></trkpt><trkpt lat="45.653372772052805" lon="9.979946651994618"><ele>415.0</ele><time>2026-04-26T16:26:16Z</time></trkpt><trkpt lat="45.653355556651526" lon="9.980085985494147"><ele>414.33333333333337</ele><time>2026-04-26T16:26:18Z</time></trkpt><trkpt lat="45.653344300083276" lon="9.980188772153209"><ele>413.6666666666667</ele><time>2026-04-26T16:26:19Z</time></trkpt><trkpt lat="45.65333483365316" lon="9.980304108849436"><ele>413.0</ele><time>2026-04-26T16:26:20Z</time></trkpt><trkpt lat="45.65332972276165" lon="9.980405110813841"><ele>412.33333333333337</ele><time>2026-04-26T16:26:21Z</time></trkpt><trkpt lat="45.653337323896515" lon="9.98051918402416"><ele>411.6666666666667</ele><time>2026-04-26T16:26:22Z</time></trkpt><trkpt lat="45.653362453130434" lon="9.980610016069726"><ele>411.0</ele><time>2026-04-26T16:26:23Z</time></trkpt><trkpt lat="45.65337748056062" lon="9.980717755034366"><ele>411.0</ele><time>2026-04-26T16:26:25Z</time></trkpt><trkpt lat="45.65333925101076" lon="9.9807931983425"><ele>411.0</ele><time>2026-04-26T16:26:27Z</time></trkpt><trkpt lat="45.653250270006616" lon="9.980842091657173"><ele>411.0</ele><time>2026-04-26T16:26:29Z</time></trkpt><trkpt lat="45.653179589609444" lon="9.98074015648249"><ele>411.0</ele><time>2026-04-26T16:26:31Z</time></trkpt><trkpt lat="45.65310008013069" lon="9.980638621814082"><ele>411.0</ele><time>2026-04-26T16:26:33Z</time></trkpt><trkpt lat="45.65301464764843" lon="9.980645977241368"><ele>411.0</ele><time>2026-04-26T16:26:34Z</time></trkpt><trkpt lat="45.652961151236234" lon="9.980761653062624"><ele>411.0</ele><time>2026-04-26T16:26:35Z</time></trkpt><trkpt lat="45.65292049188789" lon="9.98083155980493"><ele>411.0</ele><time>2026-04-26T16:26:36Z</time></trkpt><trkpt lat="45.652857790345045" lon="9.980931731937272"><ele>411.0</ele><time>2026-04-26T16:26:38Z</time></trkpt><trkpt lat="45.652781192430346" lon="9.980950596028585"><ele>411.0</ele><time>2026-04-26T16:26:40Z</time></trkpt><trkpt lat="45.65271190341372" lon="9.981000174509356"><ele>411.0</ele><time>2026-04-26T16:26:42Z</time></trkpt><trkpt lat="45.65269133492429" lon="9.981114857838623"><ele>414.8</ele><time>2026-04-26T16:26:44Z</time></trkpt><trkpt lat="45.6526854691315" lon="9.981315852868393"><ele>418.6</ele><time>2026-04-26T16:27:11Z</time></trkpt><trkpt lat="45.65268409268361" lon="9.98141263843792"><ele>422.4</ele><time>2026-04-26T16:27:12Z</time></trkpt><trkpt lat="45.65266693043175" lon="9.981499535815962"><ele>426.2</ele><time>2026-04-26T16:27:13Z</time></trkpt><trkpt lat="45.652637002473" lon="9.981639607285857"><ele>430.0</ele><time>2026-04-26T16:27:15Z</time></trkpt><trkpt lat="45.652622391715944" lon="9.981793248700697"><ele>431.00000000000006</ele><time>2026-04-26T16:27:17Z</time></trkpt><trkpt lat="45.652605614753256" lon="9.981899880496936"><ele>432.0</ele><time>2026-04-26T16:27:18Z</time></trkpt><trkpt lat="45.65260179689637" lon="9.981995121416396"><ele>433.0</ele><time>2026-04-26T16:27:19Z</time></trkpt><trkpt lat="45.652561306237246" lon="9.982124793210874"><ele>434.0</ele><time>2026-04-26T16:27:20Z</time></trkpt><trkpt lat="45.652543533208764" lon="9.982215376228812"><ele>435.00000000000006</ele><time>2026-04-26T16:27:21Z</time></trkpt><trkpt lat="45.65253772118229" lon="9.982324084073417"><ele>436.0</ele><time>2026-04-26T16:27:22Z</time></trkpt><trkpt lat="45.65250290519333" lon="9.982405018360383"><ele>436.00000000000006</ele><time>2026-04-26T16:27:23Z</time></trkpt><trkpt lat="45.65248350959035" lon="9.982491730885286"><ele>436.0</ele><time>2026-04-26T16:27:24Z</time></trkpt><trkpt lat="45.6524621940781" lon="9.98258361403984"><ele>436.0</ele><time>2026-04-26T16:27:25Z</time></trkpt><trkpt lat="45.652434711708906" lon="9.982696510328479"><ele>436.0</ele><time>2026-04-26T16:27:26Z</time></trkpt><trkpt lat="45.65241260088548" lon="9.98283793107047"><ele>436.00000000000006</ele><time>2026-04-26T16:27:27Z</time></trkpt><trkpt lat="45.652395648165964" lon="9.98295537577619"><ele>436.0</ele><time>2026-04-26T16:27:28Z</time></trkpt><trkpt lat="45.652382011970374" lon="9.983049844471328"><ele>436.50000000000006</ele><time>2026-04-26T16:27:29Z</time></trkpt><trkpt lat="45.65236564655734" lon="9.983163220233223"><ele>437.0</ele><time>2026-04-26T16:27:30Z</time></trkpt><trkpt lat="45.65234729487756" lon="9.983268486924159"><ele>437.5</ele><time>2026-04-26T16:27:31Z</time></trkpt><trkpt lat="45.65234537436731" lon="9.983376161594144"><ele>438.0</ele><time>2026-04-26T16:27:32Z</time></trkpt><trkpt lat="45.652312429463905" lon="9.983470246220506"><ele>438.50000000000006</ele><time>2026-04-26T16:27:33Z</time></trkpt><trkpt lat="45.6522934934357" lon="9.983614193253079"><ele>439.0</ele><time>2026-04-26T16:27:35Z</time></trkpt><trkpt lat="45.65229014005524" lon="9.983728634101796"><ele>439.0</ele><time>2026-04-26T16:27:37Z</time></trkpt><trkpt lat="45.652350967811806" lon="9.983870895178196"><ele>439.0</ele><time>2026-04-26T16:27:40Z</time></trkpt><trkpt lat="45.65242978277847" lon="9.983986068637163"><ele>439.0</ele><time>2026-04-26T16:27:42Z</time></trkpt><trkpt lat="45.652517030602134" lon="9.984117328634808"><ele>439.0</ele><time>2026-04-26T16:27:43Z</time></trkpt><trkpt lat="45.65258445617048" lon="9.984415676367218"><ele>438.79999999999995</ele><time>2026-04-26T16:27:44Z</time></trkpt><trkpt lat="45.65258156426605" lon="9.984542452910821"><ele>438.59999999999997</ele><time>2026-04-26T16:27:45Z</time></trkpt><trkpt lat="45.65256718217701" lon="9.984672287260674"><ele>438.4</ele><time>2026-04-26T16:27:46Z</time></trkpt><trkpt lat="45.65252460654757" lon="9.98484181061406"><ele>438.2</ele><time>2026-04-26T16:27:48Z</time></trkpt><trkpt lat="45.65249227284107" lon="9.984983048974255"><ele>438.0</ele><time>2026-04-26T16:27:52Z</time></trkpt><trkpt lat="45.65244309221765" lon="9.985040404011556"><ele>438.0</ele><time>2026-04-26T16:27:55Z</time></trkpt><trkpt lat="45.65236589844688" lon="9.985037585331648"><ele>438.0</ele><time>2026-04-26T16:27:57Z</time></trkpt><trkpt lat="45.652301097585685" lon="9.985023816372367"><ele>438.0</ele><time>2026-04-26T16:28:00Z</time></trkpt><trkpt lat="45.65209271349206" lon="9.984911864144886"><ele>438.0</ele><time>2026-04-26T16:28:01Z</time></trkpt><trkpt lat="45.65208374687939" lon="9.984781474292722"><ele>438.0</ele><time>2026-04-26T16:28:04Z</time></trkpt><trkpt lat="45.65211686941484" lon="9.984672333841376"><ele>438.0</ele><time>2026-04-26T16:28:06Z</time></trkpt><trkpt lat="45.652131332154255" lon="9.984569406689406"><ele>438.0</ele><time>2026-04-26T16:28:08Z</time></trkpt><trkpt lat="45.65213039008685" lon="9.984464031192621"><ele>438.0</ele><time>2026-04-26T16:28:10Z</time></trkpt><trkpt lat="45.65209665011803" lon="9.984382544060765"><ele>438.0</ele><time>2026-04-26T16:28:13Z</time></trkpt><trkpt lat="45.65207841076589" lon="9.984259504587063"><ele>438.0</ele><time>2026-04-26T16:28:17Z</time></trkpt><trkpt lat="45.65209224429982" lon="9.984167533032657"><ele>438.0</ele><time>2026-04-26T16:28:22Z</time></trkpt><trkpt lat="45.65209546770314" lon="9.984071316533933"><ele>438.0</ele><time>2026-04-26T16:28:26Z</time></trkpt><trkpt lat="45.65214143717314" lon="9.984176575994706"><ele>438.0</ele><time>2026-04-26T16:29:16Z</time></trkpt><trkpt lat="45.652269023424005" lon="9.984240686728073"><ele>438.0</ele><time>2026-04-26T16:29:19Z</time></trkpt><trkpt lat="45.652329481176125" lon="9.984182879307145"><ele>438.0</ele><time>2026-04-26T16:29:22Z</time></trkpt><trkpt lat="45.65231470201646" lon="9.984080612493187"><ele>438.0</ele><time>2026-04-26T16:29:24Z</time></trkpt><trkpt lat="45.652291382263186" lon="9.98396993733766"><ele>438.0</ele><time>2026-04-26T16:29:27Z</time></trkpt><trkpt lat="45.652319412340034" lon="9.983854428809959"><ele>438.0</ele><time>2026-04-26T16:29:30Z</time></trkpt><trkpt lat="45.65247907788604" lon="9.984061375016871"><ele>438.0</ele><time>2026-04-26T16:29:40Z</time></trkpt><trkpt lat="45.65254592283383" lon="9.98421608184069"><ele>438.0</ele><time>2026-04-26T16:29:42Z</time></trkpt><trkpt lat="45.65258324025865" lon="9.984400576279555"><ele>438.0</ele><time>2026-04-26T16:29:44Z</time></trkpt><trkpt lat="45.65257826968836" lon="9.984498821158171"><ele>438.0</ele><time>2026-04-26T16:29:45Z</time></trkpt><trkpt lat="45.652577879914055" lon="9.984596604488402"><ele>438.0</ele><time>2026-04-26T16:29:46Z</time></trkpt><trkpt lat="45.652538435245106" lon="9.98478572635441"><ele>438.0</ele><time>2026-04-26T16:29:48Z</time></trkpt><trkpt lat="45.65251875240325" lon="9.98489906324984"><ele>438.0</ele><time>2026-04-26T16:29:49Z</time></trkpt><trkpt lat="45.65249026503573" lon="9.984991906550505"><ele>438.0</ele><time>2026-04-26T16:29:50Z</time></trkpt><trkpt lat="45.65246442885417" lon="9.985109226594611"><ele>437.6666666666667</ele><time>2026-04-26T16:29:52Z</time></trkpt><trkpt lat="45.65244028186802" lon="9.98520236662277"><ele>437.33333333333337</ele><time>2026-04-26T16:29:55Z</time></trkpt><trkpt lat="45.652324584700985" lon="9.985192582501254"><ele>437.0</ele><time>2026-04-26T16:29:57Z</time></trkpt><trkpt lat="45.65224834794334" lon="9.985190228437842"><ele>436.6666666666667</ele><time>2026-04-26T16:29:58Z</time></trkpt><trkpt lat="45.652167679482254" lon="9.985186833201464"><ele>436.33333333333337</ele><time>2026-04-26T16:29:59Z</time></trkpt><trkpt lat="45.65209580153979" lon="9.985200296648262"><ele>436.0</ele><time>2026-04-26T16:30:00Z</time></trkpt><trkpt lat="45.65200627929987" lon="9.985263854920163"><ele>438.6</ele><time>2026-04-26T16:30:02Z</time></trkpt><trkpt lat="45.65191491465597" lon="9.985345093313526"><ele>441.20000000000005</ele><time>2026-04-26T16:30:04Z</time></trkpt><trkpt lat="45.65185654765862" lon="9.98539375007471"><ele>443.79999999999995</ele><time>2026-04-26T16:30:05Z</time></trkpt><trkpt lat="45.65177154146375" lon="9.985431072435032"><ele>446.4</ele><time>2026-04-26T16:30:07Z</time></trkpt><trkpt lat="45.65165959369449" lon="9.9854083419404"><ele>449.0</ele><time>2026-04-26T16:30:09Z</time></trkpt><trkpt lat="45.65155594163206" lon="9.985446124161822"><ele>449.0</ele><time>2026-04-26T16:30:11Z</time></trkpt><trkpt lat="45.65148653936244" lon="9.98545254702448"><ele>449.0</ele><time>2026-04-26T16:30:12Z</time></trkpt><trkpt lat="45.65140477621032" lon="9.98544750892525"><ele>449.0</ele><time>2026-04-26T16:30:13Z</time></trkpt><trkpt lat="45.65130216062062" lon="9.985433431037983"><ele>449.0</ele><time>2026-04-26T16:30:15Z</time></trkpt><trkpt lat="45.651209358588304" lon="9.985320791239996"><ele>449.0</ele><time>2026-04-26T16:30:17Z</time></trkpt><trkpt lat="45.651160889021874" lon="9.985184445369162"><ele>449.79999999999995</ele><time>2026-04-26T16:30:19Z</time></trkpt><trkpt lat="45.65107176936181" lon="9.9850609725541"><ele>450.59999999999997</ele><time>2026-04-26T16:30:21Z</time></trkpt><trkpt lat="45.6509694764006" lon="9.984960774352876"><ele>451.4</ele><time>2026-04-26T16:30:23Z</time></trkpt><trkpt lat="45.65089096879913" lon="9.984892375478399"><ele>452.2</ele><time>2026-04-26T16:30:25Z</time></trkpt><trkpt lat="45.65083458265102" lon="9.98484919356836"><ele>453.0</ele><time>2026-04-26T16:30:26Z</time></trkpt><trkpt lat="45.65077788326689" lon="9.984795823129492"><ele>456.79999999999995</ele><time>2026-04-26T16:30:27Z</time></trkpt><trkpt lat="45.65071557792585" lon="9.984754562729039"><ele>460.59999999999997</ele><time>2026-04-26T16:30:28Z</time></trkpt><trkpt lat="45.650636396597214" lon="9.984782406982372"><ele>464.40000000000003</ele><time>2026-04-26T16:30:30Z</time></trkpt><trkpt lat="45.65056534924627" lon="9.984851347391059"><ele>468.20000000000005</ele><time>2026-04-26T16:30:31Z</time></trkpt><trkpt lat="45.650459911843114" lon="9.984935382633498"><ele>472.0</ele><time>2026-04-26T16:30:32Z</time></trkpt><trkpt lat="45.6503790529307" lon="9.985004866628529"><ele>471.0</ele><time>2026-04-26T16:30:33Z</time></trkpt><trkpt lat="45.65030746481986" lon="9.985041620788126"><ele>470.00000000000006</ele><time>2026-04-26T16:30:34Z</time></trkpt><trkpt lat="45.65023740911017" lon="9.985043725779684"><ele>469.00000000000006</ele><time>2026-04-26T16:30:36Z</time></trkpt><trkpt lat="45.65016582913338" lon="9.984965340179157"><ele>468.0</ele><time>2026-04-26T16:30:39Z</time></trkpt><trkpt lat="45.65012384902043" lon="9.984797870784591"><ele>467.0</ele><time>2026-04-26T16:30:41Z</time></trkpt><trkpt lat="45.650092088562424" lon="9.984626587895919"><ele>470.6</ele><time>2026-04-26T16:30:42Z</time></trkpt><trkpt lat="45.65008547011065" lon="9.984477941856511"><ele>474.20000000000005</ele><time>2026-04-26T16:30:43Z</time></trkpt><trkpt lat="45.65008721240176" lon="9.984344909224127"><ele>477.8</ele><time>2026-04-26T16:30:44Z</time></trkpt><trkpt lat="45.65009895207816" lon="9.984216785762694"><ele>481.4</ele><time>2026-04-26T16:30:45Z</time></trkpt><trkpt lat="45.65012317327204" lon="9.98411209939543"><ele>485.0</ele><time>2026-04-26T16:30:46Z</time></trkpt><trkpt lat="45.65022547623143" lon="9.984042269883957"><ele>485.4</ele><time>2026-04-26T16:30:48Z</time></trkpt><trkpt lat="45.65032291170234" lon="9.984017971401224"><ele>485.8</ele><time>2026-04-26T16:30:49Z</time></trkpt><trkpt lat="45.650437880974486" lon="9.983979973491344"><ele>486.20000000000005</ele><time>2026-04-26T16:30:50Z</time></trkpt><trkpt lat="45.65052800600876" lon="9.983946673840094"><ele>486.6</ele><time>2026-04-26T16:30:51Z</time></trkpt><trkpt lat="45.65061403115561" lon="9.983841160047419"><ele>487.0</ele><time>2026-04-26T16:30:53Z</time></trkpt><trkpt lat="45.65064388530436" lon="9.98374797174676"><ele>487.00000000000006</ele><time>2026-04-26T16:30:54Z</time></trkpt><trkpt lat="45.65068455026731" lon="9.983659727582312"><ele>487.0</ele><time>2026-04-26T16:30:55Z</time></trkpt><trkpt lat="45.650681653200074" lon="9.983566124684963"><ele>487.0</ele><time>2026-04-26T16:30:56Z</time></trkpt><trkpt lat="45.65066574808379" lon="9.983413029732516"><ele>487.0</ele><time>2026-04-26T16:30:59Z</time></trkpt><trkpt lat="45.65070296234187" lon="9.983273991951073"><ele>487.00000000000006</ele><time>2026-04-26T16:31:04Z</time></trkpt><trkpt lat="45.65065975068763" lon="9.98317554880152"><ele>487.0</ele><time>2026-04-26T16:31:06Z</time></trkpt><trkpt lat="45.65066999476791" lon="9.983036736097183"><ele>489.33333333333337</ele><time>2026-04-26T16:31:08Z</time></trkpt><trkpt lat="45.6506715285797" lon="9.982884953968208"><ele>491.6666666666667</ele><time>2026-04-26T16:31:09Z</time></trkpt><trkpt lat="45.65066258552232" lon="9.982759310237503"><ele>494.0</ele><time>2026-04-26T16:31:10Z</time></trkpt><trkpt lat="45.65063593027177" lon="9.98265841904518"><ele>496.33333333333337</ele><time>2026-04-26T16:31:11Z</time></trkpt><trkpt lat="45.65060032862435" lon="9.982551873790236"><ele>498.6666666666667</ele><time>2026-04-26T16:31:12Z</time></trkpt><trkpt lat="45.65054811231176" lon="9.98243721177786"><ele>501.0</ele><time>2026-04-26T16:31:13Z</time></trkpt><trkpt lat="45.65049248062118" lon="9.982310728606409"><ele>502.4</ele><time>2026-04-26T16:31:14Z</time></trkpt><trkpt lat="45.6504631994812" lon="9.982181696313859"><ele>503.8</ele><time>2026-04-26T16:31:15Z</time></trkpt><trkpt lat="45.65043889922982" lon="9.982068462606271"><ele>505.19999999999993</ele><time>2026-04-26T16:31:16Z</time></trkpt><trkpt lat="45.65042653213554" lon="9.981919726224918"><ele>506.59999999999997</ele><time>2026-04-26T16:31:17Z</time></trkpt><trkpt lat="45.65040567119311" lon="9.98174831185071"><ele>508.0</ele><time>2026-04-26T16:31:18Z</time></trkpt><trkpt lat="45.6503931463997" lon="9.981599228844939"><ele>508.4</ele><time>2026-04-26T16:31:19Z</time></trkpt><trkpt lat="45.65039347852323" lon="9.981446511674237"><ele>508.79999999999995</ele><time>2026-04-26T16:31:20Z</time></trkpt><trkpt lat="45.65037680628575" lon="9.981294516849788"><ele>509.2</ele><time>2026-04-26T16:31:21Z</time></trkpt><trkpt lat="45.650374233465506" lon="9.981169888349871"><ele>509.6</ele><time>2026-04-26T16:31:22Z</time></trkpt><trkpt lat="45.65034532673036" lon="9.981019490856658"><ele>510.0</ele><time>2026-04-26T16:31:23Z</time></trkpt><trkpt lat="45.65031263339737" lon="9.980891722987074"><ele>513.1666666666666</ele><time>2026-04-26T16:31:24Z</time></trkpt><trkpt lat="45.650276872716745" lon="9.980794473283954"><ele>516.3333333333334</ele><time>2026-04-26T16:31:25Z</time></trkpt><trkpt lat="45.650268873280595" lon="9.980691482174807"><ele>519.5</ele><time>2026-04-26T16:31:26Z</time></trkpt><trkpt lat="45.65023930372759" lon="9.980603834168294"><ele>522.6666666666667</ele><time>2026-04-26T16:31:27Z</time></trkpt><trkpt lat="45.650189067648775" lon="9.980515751496311"><ele>525.8333333333334</ele><time>2026-04-26T16:31:28Z</time></trkpt><trkpt lat="45.65013020702206" lon="9.980432368171517"><ele>529.0</ele><time>2026-04-26T16:31:30Z</time></trkpt><trkpt lat="45.65006321292364" lon="9.98039224769164"><ele>529.0</ele><time>2026-04-26T16:31:32Z</time></trkpt><trkpt lat="45.64998604847656" lon="9.980319065208743"><ele>529.0</ele><time>2026-04-26T16:31:34Z</time></trkpt><trkpt lat="45.649916623183636" lon="9.980272930224041"><ele>529.0</ele><time>2026-04-26T16:31:35Z</time></trkpt><trkpt lat="45.64983887793924" lon="9.980214793648683"><ele>529.0</ele><time>2026-04-26T16:31:37Z</time></trkpt><trkpt lat="45.64974811148846" lon="9.980165443700034"><ele>529.0</ele><time>2026-04-26T16:31:39Z</time></trkpt><trkpt lat="45.6496275952804" lon="9.980186716130113"><ele>529.0</ele><time>2026-04-26T16:31:40Z</time></trkpt><trkpt lat="45.64951889049739" lon="9.98021086752373"><ele>529.0</ele><time>2026-04-26T16:31:41Z</time></trkpt><trkpt lat="45.649413162432005" lon="9.980216951394993"><ele>529.0</ele><time>2026-04-26T16:31:42Z</time></trkpt><trkpt lat="45.6492856781536" lon="9.980235799505593"><ele>529.0</ele><time>2026-04-26T16:31:43Z</time></trkpt><trkpt lat="45.649186594909594" lon="9.98023265631737"><ele>529.0</ele><time>2026-04-26T16:31:44Z</time></trkpt><trkpt lat="45.64907537771567" lon="9.98027137427523"><ele>532.2</ele><time>2026-04-26T16:31:46Z</time></trkpt><trkpt lat="45.648981850558975" lon="9.980405214251054"><ele>535.4</ele><time>2026-04-26T16:31:48Z</time></trkpt><trkpt lat="45.648916519293806" lon="9.980532238181578"><ele>538.6</ele><time>2026-04-26T16:31:49Z</time></trkpt><trkpt lat="45.6488849950232" lon="9.980636562416475"><ele>541.8</ele><time>2026-04-26T16:31:50Z</time></trkpt><trkpt lat="45.648904600705414" lon="9.980762271873969"><ele>545.0</ele><time>2026-04-26T16:31:54Z</time></trkpt><trkpt lat="45.64893872717989" lon="9.980889059231778"><ele>545.0</ele><time>2026-04-26T16:31:56Z</time></trkpt><trkpt lat="45.64898062424641" lon="9.980990770582148"><ele>545.0</ele><time>2026-04-26T16:31:58Z</time></trkpt><trkpt lat="45.649064749627414" lon="9.981038990026871"><ele>545.0</ele><time>2026-04-26T16:32:00Z</time></trkpt><trkpt lat="45.64914539904787" lon="9.981081209600816"><ele>545.0</ele><time>2026-04-26T16:32:02Z</time></trkpt><trkpt lat="45.649213381238724" lon="9.981117742516744"><ele>545.0</ele><time>2026-04-26T16:32:04Z</time></trkpt><trkpt lat="45.64928344562616" lon="9.981184991545932"><ele>545.0</ele><time>2026-04-26T16:32:07Z</time></trkpt><trkpt lat="45.649354461836495" lon="9.98119099125868"><ele>545.0</ele><time>2026-04-26T16:32:08Z</time></trkpt><trkpt lat="45.649428965995575" lon="9.981233805721272"><ele>545.0</ele><time>2026-04-26T16:32:10Z</time></trkpt><trkpt lat="45.649467738805704" lon="9.980967464773192"><ele>545.0</ele><time>2026-04-26T16:32:17Z</time></trkpt><trkpt lat="45.64939768539543" lon="9.980827714838567"><ele>545.0</ele><time>2026-04-26T16:32:18Z</time></trkpt><trkpt lat="45.64931550221861" lon="9.980719756560225"><ele>546.0</ele><time>2026-04-26T16:32:19Z</time></trkpt><trkpt lat="45.64922063137153" lon="9.980622404491957"><ele>547.0</ele><time>2026-04-26T16:32:20Z</time></trkpt><trkpt lat="45.649152745662406" lon="9.980537202369279"><ele>548.0</ele><time>2026-04-26T16:32:21Z</time></trkpt><trkpt lat="45.64909244714398" lon="9.980433095999034"><ele>549.0</ele><time>2026-04-26T16:32:22Z</time></trkpt><trkpt lat="45.64902534770281" lon="9.980301235045504"><ele>550.0</ele><time>2026-04-26T16:32:23Z</time></trkpt><trkpt lat="45.64893974766368" lon="9.980121890932175"><ele>550.0</ele><time>2026-04-26T16:32:24Z</time></trkpt><trkpt lat="45.64884899564181" lon="9.979952555170279"><ele>550.0</ele><time>2026-04-26T16:32:25Z</time></trkpt><trkpt lat="45.64878115189359" lon="9.979834294881423"><ele>550.0</ele><time>2026-04-26T16:32:26Z</time></trkpt><trkpt lat="45.6487388849646" lon="9.979734018755446"><ele>550.0</ele><time>2026-04-26T16:32:27Z</time></trkpt><trkpt lat="45.64871294839295" lon="9.979634174447698"><ele>550.0</ele><time>2026-04-26T16:32:28Z</time></trkpt><trkpt lat="45.64869262397783" lon="9.97953687837748"><ele>550.0</ele><time>2026-04-26T16:32:29Z</time></trkpt><trkpt lat="45.64868151934517" lon="9.979415282829894"><ele>550.0</ele><time>2026-04-26T16:32:30Z</time></trkpt><trkpt lat="45.64870408381515" lon="9.979215472926343"><ele>550.0</ele><time>2026-04-26T16:32:32Z</time></trkpt><trkpt lat="45.64870938477623" lon="9.979070621605931"><ele>550.0</ele><time>2026-04-26T16:32:33Z</time></trkpt><trkpt lat="45.648707378731714" lon="9.978931426410304"><ele>550.0</ele><time>2026-04-26T16:32:34.001Z</time></trkpt><trkpt lat="45.648687527296765" lon="9.978820806150127"><ele>550.7142857142858</ele><time>2026-04-26T16:32:35.001Z</time></trkpt><trkpt lat="45.64869795856928" lon="9.978925089030861"><ele>551.4285714285714</ele><time>2026-04-26T16:32:42.001Z</time></trkpt><trkpt lat="45.64864936559099" lon="9.978847119306415"><ele>552.1428571428571</ele><time>2026-04-26T16:32:46.001Z</time></trkpt><trkpt lat="45.64857437281617" lon="9.978859773686006"><ele>552.8571428571429</ele><time>2026-04-26T16:32:49.001Z</time></trkpt><trkpt lat="45.648507004925584" lon="9.978823073808117"><ele>553.5714285714286</ele><time>2026-04-26T16:32:53.001Z</time></trkpt><trkpt lat="45.648437523993884" lon="9.978863076207489"><ele>554.2857142857143</ele><time>2026-04-26T16:32:57.001Z</time></trkpt><trkpt lat="45.6483651745671" lon="9.978824839645412"><ele>555.0</ele><time>2026-04-26T16:33:02.001Z</time></trkpt><trkpt lat="45.648271396960794" lon="9.978750151637017"><ele>557.6666666666666</ele><time>2026-04-26T16:33:04.001Z</time></trkpt><trkpt lat="45.64820461865495" lon="9.978662212268658"><ele>560.3333333333334</ele><time>2026-04-26T16:33:05.001Z</time></trkpt><trkpt lat="45.64813548196302" lon="9.978566320213828"><ele>563.0</ele><time>2026-04-26T16:33:06.001Z</time></trkpt><trkpt lat="45.64809229658593" lon="9.978462173393902"><ele>565.6666666666667</ele><time>2026-04-26T16:33:07.001Z</time></trkpt><trkpt lat="45.648048410300355" lon="9.978395110035873"><ele>568.3333333333334</ele><time>2026-04-26T16:33:08.001Z</time></trkpt><trkpt lat="45.6479592496354" lon="9.978367766778288"><ele>571.0</ele><time>2026-04-26T16:33:21Z</time></trkpt><trkpt lat="45.64787619900567" lon="9.978338900974785"><ele>571.8333333333334</ele><time>2026-04-26T16:33:23Z</time></trkpt><trkpt lat="45.647812910698846" lon="9.978339303549559"><ele>572.6666666666667</ele><time>2026-04-26T16:33:24Z</time></trkpt><trkpt lat="45.64772602963093" lon="9.978369434667288"><ele>573.5</ele><time>2026-04-26T16:33:25Z</time></trkpt><trkpt lat="45.647613335577745" lon="9.978418183156757"><ele>574.3333333333334</ele><time>2026-04-26T16:33:27Z</time></trkpt><trkpt lat="45.64753538763614" lon="9.978450361590848"><ele>575.1666666666666</ele><time>2026-04-26T16:33:30.001Z</time></trkpt><trkpt lat="45.647472456404735" lon="9.978491356682728"><ele>576.0</ele><time>2026-04-26T16:33:32.001Z</time></trkpt><trkpt lat="45.64740735934988" lon="9.978543466349253"><ele>578.1666666666666</ele><time>2026-04-26T16:33:39.001Z</time></trkpt><trkpt lat="45.64735316823073" lon="9.978595051085051"><ele>580.3333333333334</ele><time>2026-04-26T16:33:54.001Z</time></trkpt><trkpt lat="45.64729288964717" lon="9.978630424034588"><ele>582.5</ele><time>2026-04-26T16:34:11.001Z</time></trkpt><trkpt lat="45.64720340021337" lon="9.978802701855798"><ele>584.6666666666667</ele><time>2026-04-26T16:35:27Z</time></trkpt><trkpt lat="45.64720927294077" lon="9.97890360689008"><ele>586.8333333333334</ele><time>2026-04-26T16:35:28Z</time></trkpt><trkpt lat="45.6471604263859" lon="9.979008053938779"><ele>589.0</ele><time>2026-04-26T16:35:30Z</time></trkpt><trkpt lat="45.64708453771565" lon="9.979027403643542"><ele>589.0</ele><time>2026-04-26T16:35:33Z</time></trkpt><trkpt lat="45.647020952987546" lon="9.978963796793236"><ele>589.0</ele><time>2026-04-26T16:35:35Z</time></trkpt><trkpt lat="45.64691012872727" lon="9.978899913893843"><ele>589.0</ele><time>2026-04-26T16:35:37Z</time></trkpt><trkpt lat="45.64685315273394" lon="9.978861003766522"><ele>589.0</ele><time>2026-04-26T16:35:38Z</time></trkpt><trkpt lat="45.64674073607651" lon="9.978848390439667"><ele>589.0</ele><time>2026-04-26T16:35:40Z</time></trkpt><trkpt lat="45.64666628687035" lon="9.978852836069464"><ele>589.0</ele><time>2026-04-26T16:35:41Z</time></trkpt><trkpt lat="45.646595458251234" lon="9.978849753979544"><ele>590.4</ele><time>2026-04-26T16:35:42Z</time></trkpt><trkpt lat="45.646533362938484" lon="9.978813310399573"><ele>591.8</ele><time>2026-04-26T16:35:43Z</time></trkpt><trkpt lat="45.64645995630835" lon="9.978738558936206"><ele>593.2</ele><time>2026-04-26T16:35:44Z</time></trkpt><trkpt lat="45.646402418905026" lon="9.978668606779742"><ele>594.6</ele><time>2026-04-26T16:35:45Z</time></trkpt><trkpt lat="45.646291644293385" lon="9.978581290625597"><ele>596.0</ele><time>2026-04-26T16:35:47Z</time></trkpt><trkpt lat="45.64617553072628" lon="9.978493960568999"><ele>594.8</ele><time>2026-04-26T16:35:49.001Z</time></trkpt><trkpt lat="45.64612214317398" lon="9.978394862728303"><ele>593.6</ele><time>2026-04-26T16:35:50.001Z</time></trkpt><trkpt lat="45.646054493688936" lon="9.978299590243598"><ele>592.4</ele><time>2026-04-26T16:35:51.001Z</time></trkpt><trkpt lat="45.64596967838953" lon="9.97825241733598"><ele>591.2</ele><time>2026-04-26T16:35:52.001Z</time></trkpt><trkpt lat="45.64586644810124" lon="9.978211383589754"><ele>590.0</ele><time>2026-04-26T16:35:53.001Z</time></trkpt><trkpt lat="45.64577493104645" lon="9.978137672613373"><ele>596.25</ele><time>2026-04-26T16:35:54.001Z</time></trkpt><trkpt lat="45.64569141676848" lon="9.978045434115671"><ele>602.5</ele><time>2026-04-26T16:35:55.001Z</time></trkpt><trkpt lat="45.645587422157156" lon="9.977931511377983"><ele>608.75</ele><time>2026-04-26T16:35:56.001Z</time></trkpt><trkpt lat="45.645460265068415" lon="9.977796210691098"><ele>615.0</ele><time>2026-04-26T16:35:57.001Z</time></trkpt><trkpt lat="45.645354908993376" lon="9.977685126126161"><ele>617.2</ele><time>2026-04-26T16:35:58.001Z</time></trkpt><trkpt lat="45.645276551840645" lon="9.977609890394849"><ele>619.4</ele><time>2026-04-26T16:35:59.001Z</time></trkpt><trkpt lat="45.64519603696024" lon="9.977551898946343"><ele>621.6</ele><time>2026-04-26T16:36:00.001Z</time></trkpt><trkpt lat="45.64512026233653" lon="9.977526305887057"><ele>623.8</ele><time>2026-04-26T16:36:01.001Z</time></trkpt><trkpt lat="45.64502084668126" lon="9.977510189198942"><ele>626.0</ele><time>2026-04-26T16:36:02.001Z</time></trkpt><trkpt lat="45.64493334826708" lon="9.977501071125783"><ele>626.0</ele><time>2026-04-26T16:36:03.001Z</time></trkpt><trkpt lat="45.644850864245406" lon="9.977459713085548"><ele>626.0</ele><time>2026-04-26T16:36:04.001Z</time></trkpt><trkpt lat="45.64474811245897" lon="9.977411369658956"><ele>626.0</ele><time>2026-04-26T16:36:05.001Z</time></trkpt><trkpt lat="45.64463239688591" lon="9.97734800695808"><ele>626.0</ele><time>2026-04-26T16:36:06.001Z</time></trkpt><trkpt lat="45.64452063032104" lon="9.97727172924561"><ele>626.0</ele><time>2026-04-26T16:36:07.001Z</time></trkpt><trkpt lat="45.64441724647711" lon="9.977217227296546"><ele>624.8</ele><time>2026-04-26T16:36:08.001Z</time></trkpt><trkpt lat="45.64432659095678" lon="9.977188393976554"><ele>623.6</ele><time>2026-04-26T16:36:09.001Z</time></trkpt><trkpt lat="45.644236945560834" lon="9.977148735547743"><ele>622.4</ele><time>2026-04-26T16:36:10.001Z</time></trkpt><trkpt lat="45.644135961231754" lon="9.977117545362905"><ele>621.2</ele><time>2026-04-26T16:36:11.001Z</time></trkpt><trkpt lat="45.64402516429948" lon="9.977050153284441"><ele>620.0</ele><time>2026-04-26T16:36:12.001Z</time></trkpt><trkpt lat="45.643920795808654" lon="9.976984965782162"><ele>620.0</ele><time>2026-04-26T16:36:13.001Z</time></trkpt><trkpt lat="45.64382742800475" lon="9.976923878036732"><ele>620.0</ele><time>2026-04-26T16:36:14.001Z</time></trkpt><trkpt lat="45.6437421418484" lon="9.976884833600748"><ele>620.0</ele><time>2026-04-26T16:36:15.001Z</time></trkpt><trkpt lat="45.64367002844861" lon="9.976836133405214"><ele>620.0</ele><time>2026-04-26T16:36:16.001Z</time></trkpt><trkpt lat="45.64359716318532" lon="9.976776237391835"><ele>620.0</ele><time>2026-04-26T16:36:17.001Z</time></trkpt><trkpt lat="45.64351908035926" lon="9.97671093466503"><ele>620.0</ele><time>2026-04-26T16:36:18.001Z</time></trkpt><trkpt lat="45.64344304608176" lon="9.976644518367708"><ele>624.4</ele><time>2026-04-26T16:36:19.001Z</time></trkpt><trkpt lat="45.64337218928359" lon="9.976603756944273"><ele>628.8</ele><time>2026-04-26T16:36:20.001Z</time></trkpt><trkpt lat="45.64329537742442" lon="9.97655919381137"><ele>633.2</ele><time>2026-04-26T16:36:21.001Z</time></trkpt><trkpt lat="45.643179742100216" lon="9.976500596641074"><ele>637.6</ele><time>2026-04-26T16:36:22.001Z</time></trkpt><trkpt lat="45.64308439402657" lon="9.976446184130527"><ele>642.0</ele><time>2026-04-26T16:36:23.001Z</time></trkpt><trkpt lat="45.642993115280206" lon="9.976412591388618"><ele>642.0</ele><time>2026-04-26T16:36:24.001Z</time></trkpt><trkpt lat="45.64289331097946" lon="9.976402450087342"><ele>642.0</ele><time>2026-04-26T16:36:25.001Z</time></trkpt><trkpt lat="45.64279709246715" lon="9.976393055721333"><ele>642.0</ele><time>2026-04-26T16:36:26.001Z</time></trkpt><trkpt lat="45.64270581099857" lon="9.976367571805909"><ele>642.0</ele><time>2026-04-26T16:36:28.001Z</time></trkpt><trkpt lat="45.64266927915677" lon="9.976280346756385"><ele>642.0</ele><time>2026-04-26T16:37:14.001Z</time></trkpt><trkpt lat="45.64260993508152" lon="9.976176216432558"><ele>642.1666666666666</ele><time>2026-04-26T16:37:17.001Z</time></trkpt><trkpt lat="45.64255139204387" lon="9.976073687284469"><ele>642.3333333333334</ele><time>2026-04-26T16:37:19.001Z</time></trkpt><trkpt lat="45.64246903337207" lon="9.975951836187145"><ele>642.5</ele><time>2026-04-26T16:37:21.001Z</time></trkpt><trkpt lat="45.642420038540145" lon="9.975881699920508"><ele>642.6666666666667</ele><time>2026-04-26T16:37:22.001Z</time></trkpt><trkpt lat="45.64236466922951" lon="9.97580673630173"><ele>642.8333333333334</ele><time>2026-04-26T16:37:23Z</time></trkpt><trkpt lat="45.6423138592218" lon="9.975729948737818"><ele>643.0</ele><time>2026-04-26T16:37:24Z</time></trkpt><trkpt lat="45.64224731506665" lon="9.97566909102271"><ele>643.0</ele><time>2026-04-26T16:37:25Z</time></trkpt><trkpt lat="45.64218274244566" lon="9.975593143259447"><ele>643.0</ele><time>2026-04-26T16:37:26Z</time></trkpt><trkpt lat="45.64213451485081" lon="9.97551136770018"><ele>643.0</ele><time>2026-04-26T16:37:27Z</time></trkpt><trkpt lat="45.64206982472569" lon="9.975442528364194"><ele>643.0</ele><time>2026-04-26T16:37:28Z</time></trkpt><trkpt lat="45.64200464994629" lon="9.975386130807872"><ele>643.0</ele><time>2026-04-26T16:37:29Z</time></trkpt><trkpt lat="45.64194337698877" lon="9.975328579993555"><ele>643.0</ele><time>2026-04-26T16:37:30Z</time></trkpt><trkpt lat="45.64187594815896" lon="9.975249355763484"><ele>641.3333333333334</ele><time>2026-04-26T16:37:31Z</time></trkpt><trkpt lat="45.641815538473665" lon="9.975175980330766"><ele>639.6666666666667</ele><time>2026-04-26T16:37:32Z</time></trkpt><trkpt lat="45.641756912008134" lon="9.975109582724954"><ele>638.0</ele><time>2026-04-26T16:37:33Z</time></trkpt><trkpt lat="45.64170024715566" lon="9.975046333770774"><ele>636.3333333333334</ele><time>2026-04-26T16:37:34Z</time></trkpt><trkpt lat="45.64164158136539" lon="9.974974741082168"><ele>634.6666666666666</ele><time>2026-04-26T16:37:35Z</time></trkpt><trkpt lat="45.64158818021649" lon="9.9749031033613"><ele>633.0</ele><time>2026-04-26T16:37:36Z</time></trkpt><trkpt lat="45.641526872874294" lon="9.974839601991665"><ele>633.0</ele><time>2026-04-26T16:37:37Z</time></trkpt><trkpt lat="45.64146374405016" lon="9.974768508332753"><ele>633.0</ele><time>2026-04-26T16:37:38Z</time></trkpt><trkpt lat="45.64139594388856" lon="9.974687904969402"><ele>633.0</ele><time>2026-04-26T16:37:39Z</time></trkpt><trkpt lat="45.641337604154934" lon="9.974622697245161"><ele>633.0</ele><time>2026-04-26T16:37:40Z</time></trkpt><trkpt lat="45.64128071169015" lon="9.974534460446003"><ele>633.0</ele><time>2026-04-26T16:37:41Z</time></trkpt><trkpt lat="45.6412275085048" lon="9.974448973412407"><ele>633.0</ele><time>2026-04-26T16:37:42Z</time></trkpt><trkpt lat="45.641181317674224" lon="9.974376655003647"><ele>630.5</ele><time>2026-04-26T16:37:43Z</time></trkpt><trkpt lat="45.6411318137945" lon="9.974303439161122"><ele>628.0</ele><time>2026-04-26T16:37:44Z</time></trkpt><trkpt lat="45.641079899524186" lon="9.974230638439776"><ele>625.5</ele><time>2026-04-26T16:37:45Z</time></trkpt><trkpt lat="45.64101868215837" lon="9.974155893313696"><ele>623.0</ele><time>2026-04-26T16:37:46Z</time></trkpt><trkpt lat="45.64095702226173" lon="9.974075315904999"><ele>620.5</ele><time>2026-04-26T16:37:47Z</time></trkpt><trkpt lat="45.640899616612614" lon="9.973986603038295"><ele>618.0</ele><time>2026-04-26T16:37:48Z</time></trkpt><trkpt lat="45.64079902540155" lon="9.973907484620177"><ele>618.0</ele><time>2026-04-26T16:37:50Z</time></trkpt><trkpt lat="45.64072682716141" lon="9.973803430851707"><ele>618.0</ele><time>2026-04-26T16:37:52Z</time></trkpt><trkpt lat="45.64065785024307" lon="9.973697899474868"><ele>618.0</ele><time>2026-04-26T16:37:54Z</time></trkpt><trkpt lat="45.640588199287976" lon="9.973594366127289"><ele>618.0</ele><time>2026-04-26T16:37:56Z</time></trkpt><trkpt lat="45.64054648999787" lon="9.973510521959401"><ele>618.0</ele><time>2026-04-26T16:37:57Z</time></trkpt><trkpt lat="45.64052372574064" lon="9.973402633360203"><ele>617.8333333333334</ele><time>2026-04-26T16:37:58Z</time></trkpt><trkpt lat="45.64049383295252" lon="9.973286564383178"><ele>617.6666666666666</ele><time>2026-04-26T16:37:59Z</time></trkpt><trkpt lat="45.640468698686796" lon="9.973183726979956"><ele>617.5</ele><time>2026-04-26T16:38:00Z</time></trkpt><trkpt lat="45.64044217970161" lon="9.97307816956679"><ele>617.3333333333333</ele><time>2026-04-26T16:38:01Z</time></trkpt><trkpt lat="45.64041482595154" lon="9.972983067376848"><ele>617.1666666666666</ele><time>2026-04-26T16:38:02Z</time></trkpt><trkpt lat="45.64036854845135" lon="9.972883368033933"><ele>617.0</ele><time>2026-04-26T16:38:03.001Z</time></trkpt><trkpt lat="45.640323818754524" lon="9.972794854095385"><ele>611.6666666666666</ele><time>2026-04-26T16:38:04.001Z</time></trkpt><trkpt lat="45.640282958058414" lon="9.97271194573754"><ele>606.3333333333333</ele><time>2026-04-26T16:38:05.001Z</time></trkpt><trkpt lat="45.64023820612603" lon="9.972612006255256"><ele>601.0</ele><time>2026-04-26T16:38:06.001Z</time></trkpt><trkpt lat="45.64018958823496" lon="9.972515379728222"><ele>595.6666666666666</ele><time>2026-04-26T16:38:07.001Z</time></trkpt><trkpt lat="45.64014827585108" lon="9.972412589901934"><ele>590.3333333333334</ele><time>2026-04-26T16:38:08.001Z</time></trkpt><trkpt lat="45.64009801938261" lon="9.972302197096099"><ele>585.0</ele><time>2026-04-26T16:38:09.001Z</time></trkpt><trkpt lat="45.64003425127434" lon="9.972212901256276"><ele>585.0</ele><time>2026-04-26T16:38:10.001Z</time></trkpt><trkpt lat="45.63995186786903" lon="9.972151535367402"><ele>585.0</ele><time>2026-04-26T16:38:11.001Z</time></trkpt><trkpt lat="45.63987541893221" lon="9.972089902767458"><ele>585.0</ele><time>2026-04-26T16:38:12.001Z</time></trkpt><trkpt lat="45.63980357046074" lon="9.9720096528028"><ele>585.0</ele><time>2026-04-26T16:38:13.001Z</time></trkpt><trkpt lat="45.639734743616266" lon="9.971925016149376"><ele>585.0</ele><time>2026-04-26T16:38:14.001Z</time></trkpt><trkpt lat="45.63967833809303" lon="9.971857898052722"><ele>585.0</ele><time>2026-04-26T16:38:15.001Z</time></trkpt><trkpt lat="45.63956905543084" lon="9.971746616283262"><ele>585.0</ele><time>2026-04-26T16:38:17.001Z</time></trkpt><trkpt lat="45.639510387742405" lon="9.971693728722636"><ele>585.0</ele><time>2026-04-26T16:38:18.001Z</time></trkpt><trkpt lat="45.63944342831827" lon="9.971560991304392"><ele>585.0</ele><time>2026-04-26T16:38:20.001Z</time></trkpt><trkpt lat="45.63941350670023" lon="9.971388699722397"><ele>585.0</ele><time>2026-04-26T16:38:22.001Z</time></trkpt><trkpt lat="45.63939313330262" lon="9.971212525243976"><ele>585.0</ele><time>2026-04-26T16:38:24.001Z</time></trkpt><trkpt lat="45.63937204555052" lon="9.971112379524493"><ele>582.0</ele><time>2026-04-26T16:38:25.001Z</time></trkpt><trkpt lat="45.63935011097734" lon="9.971021309832588"><ele>579.0</ele><time>2026-04-26T16:38:26.001Z</time></trkpt><trkpt lat="45.63932859423547" lon="9.97092038486212"><ele>576.0</ele><time>2026-04-26T16:38:27.001Z</time></trkpt><trkpt lat="45.63930112309875" lon="9.97081295105509"><ele>573.0</ele><time>2026-04-26T16:38:28.001Z</time></trkpt><trkpt lat="45.63927585717752" lon="9.970717061758634"><ele>570.0</ele><time>2026-04-26T16:38:29.001Z</time></trkpt><trkpt lat="45.63925404254725" lon="9.970625321055618"><ele>567.0</ele><time>2026-04-26T16:38:30.001Z</time></trkpt><trkpt lat="45.63924826139955" lon="9.970532042165884"><ele>564.0</ele><time>2026-04-26T16:38:31.001Z</time></trkpt><trkpt lat="45.63927946755643" lon="9.970377946833741"><ele>564.0</ele><time>2026-04-26T16:38:33.001Z</time></trkpt><trkpt lat="45.639228153989585" lon="9.970252202607243"><ele>564.0</ele><time>2026-04-26T16:38:35.001Z</time></trkpt><trkpt lat="45.63916973578832" lon="9.970137550685363"><ele>564.0</ele><time>2026-04-26T16:38:37.001Z</time></trkpt><trkpt lat="45.63910713819377" lon="9.970099165883981"><ele>564.0</ele><time>2026-04-26T16:38:38.001Z</time></trkpt><trkpt lat="45.63906088448704" lon="9.97003638083471"><ele>564.0</ele><time>2026-04-26T16:38:39.001Z</time></trkpt><trkpt lat="45.63901211803369" lon="9.969966944976738"><ele>564.0</ele><time>2026-04-26T16:38:40.001Z</time></trkpt><trkpt lat="45.63889682343405" lon="9.969869931520996"><ele>564.0</ele><time>2026-04-26T16:38:42.001Z</time></trkpt><trkpt lat="45.63883347439468" lon="9.969813640753795"><ele>564.0</ele><time>2026-04-26T16:38:43.001Z</time></trkpt><trkpt lat="45.63875715785065" lon="9.969812965765485"><ele>564.0</ele><time>2026-04-26T16:38:44.001Z</time></trkpt><trkpt lat="45.638684688182124" lon="9.969763467612282"><ele>564.0</ele><time>2026-04-26T16:38:45.001Z</time></trkpt><trkpt lat="45.638615485867945" lon="9.969686351716827"><ele>564.0</ele><time>2026-04-26T16:38:46.001Z</time></trkpt><trkpt lat="45.638557132490384" lon="9.96963684361937"><ele>564.0</ele><time>2026-04-26T16:38:47.001Z</time></trkpt><trkpt lat="45.63848691037127" lon="9.969589791686063"><ele>558.8333333333334</ele><time>2026-04-26T16:38:48.001Z</time></trkpt><trkpt lat="45.638427707278645" lon="9.969545475915586"><ele>553.6666666666666</ele><time>2026-04-26T16:38:49.001Z</time></trkpt><trkpt lat="45.63837530344796" lon="9.969487802128205"><ele>548.5</ele><time>2026-04-26T16:38:50.001Z</time></trkpt><trkpt lat="45.63835055167147" lon="9.969397898760846"><ele>543.3333333333333</ele><time>2026-04-26T16:38:51.001Z</time></trkpt><trkpt lat="45.63830291224394" lon="9.969331070874569"><ele>538.1666666666666</ele><time>2026-04-26T16:38:52.001Z</time></trkpt><trkpt lat="45.63823512322836" lon="9.969313521976645"><ele>533.0</ele><time>2026-04-26T16:38:53.001Z</time></trkpt><trkpt lat="45.63812831177184" lon="9.969211072590795"><ele>534.6666666666666</ele><time>2026-04-26T16:38:55.001Z</time></trkpt><trkpt lat="45.63808890221388" lon="9.969134870310171"><ele>536.3333333333333</ele><time>2026-04-26T16:38:56.001Z</time></trkpt><trkpt lat="45.63806968799889" lon="9.969043437914854"><ele>538.0</ele><time>2026-04-26T16:38:57.001Z</time></trkpt><trkpt lat="45.63798529062361" lon="9.968962951130901"><ele>539.6666666666666</ele><time>2026-04-26T16:38:59.001Z</time></trkpt><trkpt lat="45.637891566109836" lon="9.968911046501862"><ele>541.3333333333334</ele><time>2026-04-26T16:39:01.001Z</time></trkpt><trkpt lat="45.637789573043946" lon="9.968868703851653"><ele>543.0</ele><time>2026-04-26T16:39:03.001Z</time></trkpt><trkpt lat="45.63772157953437" lon="9.96875384354049"><ele>538.6666666666666</ele><time>2026-04-26T16:39:05.001Z</time></trkpt><trkpt lat="45.637660984435456" lon="9.96870710730402"><ele>534.3333333333334</ele><time>2026-04-26T16:39:06.001Z</time></trkpt><trkpt lat="45.63759011700348" lon="9.96867492155231"><ele>530.0</ele><time>2026-04-26T16:39:07.001Z</time></trkpt><trkpt lat="45.63752045892404" lon="9.968641086496952"><ele>525.6666666666667</ele><time>2026-04-26T16:39:08.001Z</time></trkpt><trkpt lat="45.63744279008203" lon="9.96860357600873"><ele>521.3333333333334</ele><time>2026-04-26T16:39:09.001Z</time></trkpt><trkpt lat="45.63738914146802" lon="9.96854965172215"><ele>517.0</ele><time>2026-04-26T16:39:10.001Z</time></trkpt><trkpt lat="45.63727938844272" lon="9.968445254564172"><ele>518.6</ele><time>2026-04-26T16:39:12.001Z</time></trkpt><trkpt lat="45.637167011128504" lon="9.968359656599361"><ele>520.2</ele><time>2026-04-26T16:39:14.001Z</time></trkpt><trkpt lat="45.63706236052372" lon="9.96826751158094"><ele>521.8</ele><time>2026-04-26T16:39:16.001Z</time></trkpt><trkpt lat="45.63699417398841" lon="9.9682204192647"><ele>523.4</ele><time>2026-04-26T16:39:17.001Z</time></trkpt><trkpt lat="45.636950208627674" lon="9.968146671151255"><ele>525.0</ele><time>2026-04-26T16:39:18.001Z</time></trkpt><trkpt lat="45.63689128579798" lon="9.968096776298879"><ele>520.4</ele><time>2026-04-26T16:39:19.001Z</time></trkpt><trkpt lat="45.63683761359539" lon="9.968027743493463"><ele>515.8</ele><time>2026-04-26T16:39:20.001Z</time></trkpt><trkpt lat="45.63677337744769" lon="9.96794695478931"><ele>511.20000000000005</ele><time>2026-04-26T16:39:21.001Z</time></trkpt><trkpt lat="45.63671333367628" lon="9.967840244437866"><ele>506.6</ele><time>2026-04-26T16:39:22.001Z</time></trkpt><trkpt lat="45.636623599744475" lon="9.967762124332957"><ele>502.0</ele><time>2026-04-26T16:39:23.001Z</time></trkpt><trkpt lat="45.6365315268447" lon="9.967667092180506"><ele>502.0</ele><time>2026-04-26T16:39:24.001Z</time></trkpt><trkpt lat="45.63641764550906" lon="9.967578653188568"><ele>502.0</ele><time>2026-04-26T16:39:25.001Z</time></trkpt><trkpt lat="45.63629771731198" lon="9.967495502444105"><ele>502.0</ele><time>2026-04-26T16:39:26.001Z</time></trkpt><trkpt lat="45.63619311693366" lon="9.967416937316813"><ele>502.0</ele><time>2026-04-26T16:39:27.001Z</time></trkpt><trkpt lat="45.63610719897229" lon="9.967374665036836"><ele>501.8</ele><time>2026-04-26T16:39:28.001Z</time></trkpt><trkpt lat="45.636007515626936" lon="9.967321939223938"><ele>501.6</ele><time>2026-04-26T16:39:29Z</time></trkpt><trkpt lat="45.635906323823995" lon="9.96724988265426"><ele>501.40000000000003</ele><time>2026-04-26T16:39:30Z</time></trkpt><trkpt lat="45.63582082338084" lon="9.967196983647332"><ele>501.20000000000005</ele><time>2026-04-26T16:39:31Z</time></trkpt><trkpt lat="45.63573909020677" lon="9.9671464154527"><ele>501.0</ele><time>2026-04-26T16:39:32Z</time></trkpt><trkpt lat="45.63565249228399" lon="9.967092833401784"><ele>501.0</ele><time>2026-04-26T16:39:33Z</time></trkpt><trkpt lat="45.635554813400276" lon="9.967034050788957"><ele>501.0</ele><time>2026-04-26T16:39:34Z</time></trkpt><trkpt lat="45.6354672117488" lon="9.96698133259353"><ele>501.0</ele><time>2026-04-26T16:39:35Z</time></trkpt><trkpt lat="45.63539043224031" lon="9.966935127082829"><ele>501.0</ele><time>2026-04-26T16:39:36Z</time></trkpt><trkpt lat="45.635301901716886" lon="9.966906469707006"><ele>501.0</ele><time>2026-04-26T16:39:37Z</time></trkpt><trkpt lat="45.63521323376642" lon="9.966843250200414"><ele>501.3333333333333</ele><time>2026-04-26T16:39:38Z</time></trkpt><trkpt lat="45.6351281861147" lon="9.966767866050311"><ele>501.66666666666663</ele><time>2026-04-26T16:39:39Z</time></trkpt><trkpt lat="45.63503893275252" lon="9.96671481149429"><ele>502.0</ele><time>2026-04-26T16:39:40Z</time></trkpt><trkpt lat="45.634961216820884" lon="9.966670909427284"><ele>502.3333333333333</ele><time>2026-04-26T16:39:41Z</time></trkpt><trkpt lat="45.634894126941425" lon="9.966614963588965"><ele>502.66666666666663</ele><time>2026-04-26T16:39:42Z</time></trkpt><trkpt lat="45.63482275888797" lon="9.966559501783577"><ele>503.0</ele><time>2026-04-26T16:39:43Z</time></trkpt><trkpt lat="45.634749222610864" lon="9.966496305529853"><ele>502.99999999999994</ele><time>2026-04-26T16:39:44Z</time></trkpt><trkpt lat="45.63469113012172" lon="9.966440123238684"><ele>503.0</ele><time>2026-04-26T16:39:45Z</time></trkpt><trkpt lat="45.634630789679505" lon="9.96637751428748"><ele>503.0</ele><time>2026-04-26T16:39:46Z</time></trkpt><trkpt lat="45.63456570408354" lon="9.966310333357644"><ele>503.0</ele><time>2026-04-26T16:39:47Z</time></trkpt><trkpt lat="45.63449114614563" lon="9.966252304337122"><ele>502.99999999999994</ele><time>2026-04-26T16:39:48Z</time></trkpt><trkpt lat="45.6344265814199" lon="9.96614546961706"><ele>503.0</ele><time>2026-04-26T16:39:49Z</time></trkpt><trkpt lat="45.63433588116682" lon="9.96605327775778"><ele>501.59999999999997</ele><time>2026-04-26T16:39:50Z</time></trkpt><trkpt lat="45.63424002857528" lon="9.965941259257784"><ele>500.19999999999993</ele><time>2026-04-26T16:39:51Z</time></trkpt><trkpt lat="45.63414532676936" lon="9.96584966075037"><ele>498.8</ele><time>2026-04-26T16:39:52Z</time></trkpt><trkpt lat="45.634047195200644" lon="9.965784039909614"><ele>497.4</ele><time>2026-04-26T16:39:53Z</time></trkpt><trkpt lat="45.6339727748147" lon="9.965747415146492"><ele>496.0</ele><time>2026-04-26T16:39:54Z</time></trkpt><trkpt lat="45.633892360705616" lon="9.965714300994598"><ele>496.00000000000006</ele><time>2026-04-26T16:39:56Z</time></trkpt><trkpt lat="45.633849103614025" lon="9.965642989162172"><ele>496.0</ele><time>2026-04-26T16:40:00Z</time></trkpt><trkpt lat="45.633783130031105" lon="9.965668506778854"><ele>496.0</ele><time>2026-04-26T16:40:02Z</time></trkpt><trkpt lat="45.63369034492313" lon="9.965689604317204"><ele>496.0</ele><time>2026-04-26T16:40:08Z</time></trkpt><trkpt lat="45.63361272418604" lon="9.965666763871706"><ele>496.00000000000006</ele><time>2026-04-26T16:40:11Z</time></trkpt><trkpt lat="45.6335538042933" lon="9.965627086352034"><ele>496.0</ele><time>2026-04-26T16:40:13Z</time></trkpt><trkpt lat="45.63355301220843" lon="9.96501479409633"><ele>495.20000000000005</ele><time>2026-04-26T16:40:14Z</time></trkpt><trkpt lat="45.633475097463425" lon="9.96493883821362"><ele>494.40000000000003</ele><time>2026-04-26T16:40:16Z</time></trkpt><trkpt lat="45.63340455205159" lon="9.964852974166135"><ele>493.6</ele><time>2026-04-26T16:40:18.001Z</time></trkpt><trkpt lat="45.6333390085312" lon="9.964762406253106"><ele>492.8</ele><time>2026-04-26T16:40:20.001Z</time></trkpt><trkpt lat="45.633254305493146" lon="9.964679648471638"><ele>492.0</ele><time>2026-04-26T16:40:22.001Z</time></trkpt><trkpt lat="45.63317494144314" lon="9.964597339469057"><ele>492.0</ele><time>2026-04-26T16:40:24.001Z</time></trkpt><trkpt lat="45.633113236323446" lon="9.964521668178147"><ele>492.0</ele><time>2026-04-26T16:40:27.001Z</time></trkpt><trkpt lat="45.633070245169264" lon="9.96443908659682"><ele>492.0</ele><time>2026-04-26T16:40:29.001Z</time></trkpt><trkpt lat="45.6329841681902" lon="9.964417910660046"><ele>492.0</ele><time>2026-04-26T16:40:31.001Z</time></trkpt><trkpt lat="45.63291195483358" lon="9.964388275413572"><ele>492.0</ele><time>2026-04-26T16:40:33.001Z</time></trkpt><trkpt lat="45.632845955547616" lon="9.964350495738957"><ele>492.0</ele><time>2026-04-26T16:40:37.001Z</time></trkpt><trkpt lat="45.632780316106796" lon="9.964293137353417"><ele>491.5</ele><time>2026-04-26T16:40:39.001Z</time></trkpt><trkpt lat="45.63271962804311" lon="9.964217477072712"><ele>491.0</ele><time>2026-04-26T16:40:42.001Z</time></trkpt><trkpt lat="45.63267110542789" lon="9.964127934510977"><ele>490.5</ele><time>2026-04-26T16:40:45.001Z</time></trkpt><trkpt lat="45.63260878520294" lon="9.964042128271764"><ele>490.0</ele><time>2026-04-26T16:40:48.001Z</time></trkpt><trkpt lat="45.63256304563732" lon="9.96397763424733"><ele>489.5</ele><time>2026-04-26T16:40:49.001Z</time></trkpt><trkpt lat="45.63249987805239" lon="9.963856155209838"><ele>489.0</ele><time>2026-04-26T16:40:51.001Z</time></trkpt><trkpt lat="45.632448904395126" lon="9.963753725824768"><ele>486.6666666666667</ele><time>2026-04-26T16:40:53.001Z</time></trkpt><trkpt lat="45.632405404133515" lon="9.963661425366274"><ele>484.33333333333337</ele><time>2026-04-26T16:40:56.001Z</time></trkpt><trkpt lat="45.63235033471027" lon="9.963566892880765"><ele>482.0</ele><time>2026-04-26T16:40:58.001Z</time></trkpt><trkpt lat="45.63230511779465" lon="9.96342046309448"><ele>479.6666666666667</ele><time>2026-04-26T16:41:00.001Z</time></trkpt><trkpt lat="45.63227282441715" lon="9.963333348482035"><ele>477.33333333333337</ele><time>2026-04-26T16:41:03.001Z</time></trkpt><trkpt lat="45.632206897997555" lon="9.963268019316663"><ele>475.0</ele><time>2026-04-26T16:41:05.001Z</time></trkpt><trkpt lat="45.63217895950721" lon="9.963187056778006"><ele>470.83333333333337</ele><time>2026-04-26T16:41:07.001Z</time></trkpt><trkpt lat="45.632138520697794" lon="9.96311425401379"><ele>466.6666666666667</ele><time>2026-04-26T16:41:09.001Z</time></trkpt><trkpt lat="45.632105280313645" lon="9.96302593429449"><ele>462.5</ele><time>2026-04-26T16:41:12.001Z</time></trkpt><trkpt lat="45.632052057201264" lon="9.962931840075141"><ele>458.33333333333337</ele><time>2026-04-26T16:41:15.001Z</time></trkpt><trkpt lat="45.6319797945798" lon="9.962868636744947"><ele>454.1666666666667</ele><time>2026-04-26T16:41:18.001Z</time></trkpt><trkpt lat="45.63191915621018" lon="9.962785508786327"><ele>450.0</ele><time>2026-04-26T16:41:21.001Z</time></trkpt><trkpt lat="45.631820025030734" lon="9.962732231098157"><ele>450.0</ele><time>2026-04-26T16:41:24.001Z</time></trkpt><trkpt lat="45.63175926068283" lon="9.96268486821819"><ele>450.0</ele><time>2026-04-26T16:41:25.001Z</time></trkpt><trkpt lat="45.63165253840893" lon="9.96263204588819"><ele>450.0</ele><time>2026-04-26T16:41:27.001Z</time></trkpt><trkpt lat="45.631586000399444" lon="9.962623933198634"><ele>450.0</ele><time>2026-04-26T16:41:28.001Z</time></trkpt><trkpt lat="45.631476831193375" lon="9.962574301282306"><ele>450.0</ele><time>2026-04-26T16:41:30.001Z</time></trkpt><trkpt lat="45.63145136302507" lon="9.962490492460322"><ele>450.0</ele><time>2026-04-26T16:41:31.001Z</time></trkpt><trkpt lat="45.631321750034914" lon="9.962404882308293"><ele>445.0</ele><time>2026-04-26T16:41:33.001Z</time></trkpt><trkpt lat="45.631241385770686" lon="9.96237139328438"><ele>440.0</ele><time>2026-04-26T16:41:34.001Z</time></trkpt><trkpt lat="45.63114725740421" lon="9.962347463724178"><ele>435.0</ele><time>2026-04-26T16:41:35Z</time></trkpt><trkpt lat="45.63106133793457" lon="9.962310103627678"><ele>430.0</ele><time>2026-04-26T16:41:36Z</time></trkpt><trkpt lat="45.63098446654474" lon="9.96227502276031"><ele>425.0</ele><time>2026-04-26T16:41:37Z</time></trkpt><trkpt lat="45.63088483367084" lon="9.962307273540771"><ele>423.16666666666663</ele><time>2026-04-26T16:41:39Z</time></trkpt><trkpt lat="45.63083556571341" lon="9.962390423246825"><ele>421.3333333333333</ele><time>2026-04-26T16:41:41Z</time></trkpt><trkpt lat="45.63075887874724" lon="9.96240320353211"><ele>419.5</ele><time>2026-04-26T16:41:45Z</time></trkpt><trkpt lat="45.63066735237462" lon="9.962370893115237"><ele>417.66666666666663</ele><time>2026-04-26T16:41:48Z</time></trkpt><trkpt lat="45.630603503488096" lon="9.962356622813283"><ele>415.8333333333333</ele><time>2026-04-26T16:41:51Z</time></trkpt><trkpt lat="45.63053267589038" lon="9.962345146556151"><ele>414.0</ele><time>2026-04-26T16:41:54Z</time></trkpt><trkpt lat="45.63044215703936" lon="9.96231045305788"><ele>414.0</ele><time>2026-04-26T16:41:57Z</time></trkpt><trkpt lat="45.630339808322006" lon="9.962373108260994"><ele>414.0</ele><time>2026-04-26T16:42:00Z</time></trkpt><trkpt lat="45.630262190685066" lon="9.962366589731076"><ele>414.0</ele><time>2026-04-26T16:42:03Z</time></trkpt><trkpt lat="45.62963862597598" lon="9.962337403092857"><ele>414.6666666666667</ele><time>2026-04-26T16:42:05Z</time></trkpt><trkpt lat="45.629580386136865" lon="9.96242197698059"><ele>415.33333333333337</ele><time>2026-04-26T16:42:06Z</time></trkpt><trkpt lat="45.62953433687884" lon="9.96252835817522"><ele>416.0</ele><time>2026-04-26T16:42:07Z</time></trkpt><trkpt lat="45.629482513134064" lon="9.962601435831452"><ele>416.6666666666667</ele><time>2026-04-26T16:42:08Z</time></trkpt><trkpt lat="45.62940365352279" lon="9.962663555935457"><ele>417.33333333333337</ele><time>2026-04-26T16:42:10Z</time></trkpt><trkpt lat="45.62931897595932" lon="9.962686084655887"><ele>418.0</ele><time>2026-04-26T16:42:12Z</time></trkpt><trkpt lat="45.629207887800995" lon="9.96265009263856"><ele>414.0</ele><time>2026-04-26T16:42:14Z</time></trkpt><trkpt lat="45.629090072158924" lon="9.962613370061217"><ele>410.0</ele><time>2026-04-26T16:42:16Z</time></trkpt><trkpt lat="45.62901867421674" lon="9.962575302444646"><ele>406.0</ele><time>2026-04-26T16:42:17Z</time></trkpt><trkpt lat="45.628948291725415" lon="9.96256349176929"><ele>402.0</ele><time>2026-04-26T16:42:18Z</time></trkpt><trkpt lat="45.62882811498556" lon="9.962543544937647"><ele>398.0</ele><time>2026-04-26T16:42:20Z</time></trkpt><trkpt lat="45.62872500955126" lon="9.962545226131374"><ele>397.99999999999994</ele><time>2026-04-26T16:42:22Z</time></trkpt><trkpt lat="45.628694562447386" lon="9.962651377836192"><ele>398.0</ele><time>2026-04-26T16:42:24Z</time></trkpt><trkpt lat="45.628619759317615" lon="9.962618480864169"><ele>398.0</ele><time>2026-04-26T16:42:26Z</time></trkpt><trkpt lat="45.628612205894896" lon="9.962467332195237"><ele>398.0</ele><time>2026-04-26T16:42:27Z</time></trkpt><trkpt lat="45.6285519115918" lon="9.962404629392243"><ele>397.99999999999994</ele><time>2026-04-26T16:42:28Z</time></trkpt><trkpt lat="45.628512855615874" lon="9.962314748765388"><ele>398.0</ele><time>2026-04-26T16:42:29Z</time></trkpt><trkpt lat="45.62848413068352" lon="9.962211267239702"><ele>391.59999999999997</ele><time>2026-04-26T16:42:30Z</time></trkpt><trkpt lat="45.62843095137512" lon="9.962055017955683"><ele>385.2</ele><time>2026-04-26T16:42:32.001Z</time></trkpt><trkpt lat="45.628381859631006" lon="9.961998181824521"><ele>378.8</ele><time>2026-04-26T16:42:33.001Z</time></trkpt><trkpt lat="45.628269231129835" lon="9.961971880964656"><ele>372.4</ele><time>2026-04-26T16:42:35.001Z</time></trkpt><trkpt lat="45.628189491367344" lon="9.961985122023176"><ele>366.0</ele><time>2026-04-26T16:42:36.001Z</time></trkpt><trkpt lat="45.6280863043382" lon="9.96193192725988"><ele>366.0</ele><time>2026-04-26T16:42:38.001Z</time></trkpt><trkpt lat="45.62803884441256" lon="9.961852441818161"><ele>366.0</ele><time>2026-04-26T16:42:39.001Z</time></trkpt><trkpt lat="45.62798108560117" lon="9.961764926324918"><ele>366.0</ele><time>2026-04-26T16:42:40.001Z</time></trkpt><trkpt lat="45.627882115381276" lon="9.961654285286519"><ele>366.0</ele><time>2026-04-26T16:42:42.001Z</time></trkpt><trkpt lat="45.62783435572358" lon="9.961575537529948"><ele>366.0</ele><time>2026-04-26T16:42:43.001Z</time></trkpt><trkpt lat="45.62778432359558" lon="9.961518202513899"><ele>366.0</ele><time>2026-04-26T16:42:44.001Z</time></trkpt><trkpt lat="45.62767988531457" lon="9.961415630740435"><ele>362.8333333333333</ele><time>2026-04-26T16:42:46.001Z</time></trkpt><trkpt lat="45.627625000989205" lon="9.961337867298747"><ele>359.6666666666667</ele><time>2026-04-26T16:42:47.001Z</time></trkpt><trkpt lat="45.62756917550557" lon="9.961269059705474"><ele>356.5</ele><time>2026-04-26T16:42:48.001Z</time></trkpt><trkpt lat="45.62751986746794" lon="9.961205579191997"><ele>353.33333333333337</ele><time>2026-04-26T16:42:49.001Z</time></trkpt><trkpt lat="45.62745874560675" lon="9.961155616074238"><ele>350.1666666666667</ele><time>2026-04-26T16:42:50.001Z</time></trkpt><trkpt lat="45.6273925815173" lon="9.961092183670273"><ele>347.0</ele><time>2026-04-26T16:42:51.001Z</time></trkpt><trkpt lat="45.62732457364492" lon="9.961025692367635"><ele>347.0</ele><time>2026-04-26T16:42:52.001Z</time></trkpt><trkpt lat="45.627246374352374" lon="9.960955645132548"><ele>347.0</ele><time>2026-04-26T16:42:53.001Z</time></trkpt><trkpt lat="45.62718136588674" lon="9.960902609391722"><ele>347.0</ele><time>2026-04-26T16:42:54.001Z</time></trkpt><trkpt lat="45.627095865340465" lon="9.960756268536738"><ele>347.0</ele><time>2026-04-26T16:42:56.001Z</time></trkpt><trkpt lat="45.62703541592993" lon="9.960657487559658"><ele>347.0</ele><time>2026-04-26T16:42:57.001Z</time></trkpt><trkpt lat="45.62699149860941" lon="9.960571870822553"><ele>344.5</ele><time>2026-04-26T16:42:58.001Z</time></trkpt><trkpt lat="45.62695906374806" lon="9.96047068616871"><ele>342.0</ele><time>2026-04-26T16:42:59.001Z</time></trkpt><trkpt lat="45.62691899533704" lon="9.960389173437425"><ele>339.5</ele><time>2026-04-26T16:43:00.001Z</time></trkpt><trkpt lat="45.626869473505494" lon="9.960287852053048"><ele>337.0</ele><time>2026-04-26T16:43:01.001Z</time></trkpt><trkpt lat="45.626806086389955" lon="9.960193512422356"><ele>334.5</ele><time>2026-04-26T16:43:02.001Z</time></trkpt><trkpt lat="45.62676282816858" lon="9.960079988045623"><ele>332.0</ele><time>2026-04-26T16:43:03.001Z</time></trkpt><trkpt lat="45.62672683801035" lon="9.95998727319641"><ele>331.83333333333337</ele><time>2026-04-26T16:43:04.001Z</time></trkpt><trkpt lat="45.62669653434382" lon="9.959903558261558"><ele>331.6666666666667</ele><time>2026-04-26T16:43:05.001Z</time></trkpt><trkpt lat="45.62668857082981" lon="9.959810435148151"><ele>331.5</ele><time>2026-04-26T16:43:10.001Z</time></trkpt><trkpt lat="45.626642377193306" lon="9.959717125498546"><ele>331.3333333333333</ele><time>2026-04-26T16:43:14.001Z</time></trkpt><trkpt lat="45.62660950662164" lon="9.959636700171098"><ele>331.16666666666663</ele><time>2026-04-26T16:43:16.001Z</time></trkpt><trkpt lat="45.62668352297365" lon="9.959418321739852"><ele>331.0</ele><time>2026-04-26T16:43:18.001Z</time></trkpt><trkpt lat="45.626672872246694" lon="9.959294586169722"><ele>327.8333333333333</ele><time>2026-04-26T16:43:20.001Z</time></trkpt><trkpt lat="45.626649877347106" lon="9.959191973484403"><ele>324.66666666666663</ele><time>2026-04-26T16:43:22.001Z</time></trkpt><trkpt lat="45.626595906002755" lon="9.959073627694481"><ele>321.5</ele><time>2026-04-26T16:43:24.001Z</time></trkpt><trkpt lat="45.62652568256504" lon="9.958974280652772"><ele>318.3333333333333</ele><time>2026-04-26T16:43:26.001Z</time></trkpt><trkpt lat="45.62645843010901" lon="9.958877546651001"><ele>315.1666666666667</ele><time>2026-04-26T16:43:29.001Z</time></trkpt><trkpt lat="45.62646768758161" lon="9.95876490155952"><ele>312.0</ele><time>2026-04-26T16:43:33.001Z</time></trkpt><trkpt lat="45.62652142902376" lon="9.95868851507501"><ele>312.0</ele><time>2026-04-26T16:43:38.001Z</time></trkpt><trkpt lat="45.62655822438581" lon="9.958581300077556"><ele>312.0</ele><time>2026-04-26T16:43:42Z</time></trkpt><trkpt lat="45.62658071795628" lon="9.958485270222626"><ele>312.0</ele><time>2026-04-26T16:43:47Z</time></trkpt><trkpt lat="45.62657676667942" lon="9.958386657053653"><ele>312.0</ele><time>2026-04-26T16:43:51Z</time></trkpt><trkpt lat="45.626565109438545" lon="9.958284634036357"><ele>312.0</ele><time>2026-04-26T16:43:55Z</time></trkpt><trkpt lat="45.62658665309775" lon="9.958160659018949"><ele>312.0</ele><time>2026-04-26T16:43:59Z</time></trkpt><trkpt lat="45.62662657409205" lon="9.958061156823229"><ele>308.8333333333333</ele><time>2026-04-26T16:44:03Z</time></trkpt><trkpt lat="45.62669309022864" lon="9.958019094017684"><ele>305.6666666666667</ele><time>2026-04-26T16:44:05Z</time></trkpt><trkpt lat="45.62678656548673" lon="9.957980369624424"><ele>302.5</ele><time>2026-04-26T16:44:08Z</time></trkpt><trkpt lat="45.62686610372623" lon="9.95789527577906"><ele>299.33333333333337</ele><time>2026-04-26T16:44:10Z</time></trkpt><trkpt lat="45.62691044864207" lon="9.957785223273591"><ele>296.1666666666667</ele><time>2026-04-26T16:44:13Z</time></trkpt><trkpt lat="45.62686398402928" lon="9.95769252160661"><ele>293.0</ele><time>2026-04-26T16:44:17Z</time></trkpt><trkpt lat="45.62680520710597" lon="9.957609655758919"><ele>292.99999999999994</ele><time>2026-04-26T16:44:20Z</time></trkpt><trkpt lat="45.62685662178326" lon="9.957553072327995"><ele>293.0</ele><time>2026-04-26T16:44:25Z</time></trkpt><trkpt lat="45.62692598277958" lon="9.957534064631124"><ele>293.0</ele><time>2026-04-26T16:44:29Z</time></trkpt><trkpt lat="45.62699120755311" lon="9.957526390333964"><ele>293.0</ele><time>2026-04-26T16:44:32Z</time></trkpt><trkpt lat="45.62697208233362" lon="9.957434434951857"><ele>293.0</ele><time>2026-04-26T16:44:35Z</time></trkpt><trkpt lat="45.626917409116324" lon="9.957339003299563"><ele>292.99999999999994</ele><time>2026-04-26T16:44:37Z</time></trkpt><trkpt lat="45.626897671417375" lon="9.957232689887793"><ele>293.0</ele><time>2026-04-26T16:44:42Z</time></trkpt><trkpt lat="45.626854836331766" lon="9.957146606222231"><ele>289.33333333333337</ele><time>2026-04-26T16:44:45.001Z</time></trkpt><trkpt lat="45.626778155134836" lon="9.957114816497338"><ele>285.6666666666667</ele><time>2026-04-26T16:44:49.001Z</time></trkpt><trkpt lat="45.626708559566175" lon="9.957050187653872"><ele>282.0</ele><time>2026-04-26T16:44:52.001Z</time></trkpt><trkpt lat="45.626614788825485" lon="9.95699468083105"><ele>278.3333333333333</ele><time>2026-04-26T16:44:56.001Z</time></trkpt><trkpt lat="45.62653854844992" lon="9.956943189790183"><ele>274.66666666666663</ele><time>2026-04-26T16:45:00.001Z</time></trkpt><trkpt lat="45.6265010835293" lon="9.9568699201645"><ele>271.0</ele><time>2026-04-26T16:45:03.001Z</time></trkpt><trkpt lat="45.62643579747004" lon="9.95680609625833"><ele>267.16666666666663</ele><time>2026-04-26T16:45:06.001Z</time></trkpt><trkpt lat="45.626370625633854" lon="9.956692774097588"><ele>263.3333333333333</ele><time>2026-04-26T16:45:10.001Z</time></trkpt><trkpt lat="45.626348410124805" lon="9.956562110336705"><ele>259.5</ele><time>2026-04-26T16:45:13.001Z</time></trkpt><trkpt lat="45.62632253333787" lon="9.956464684296025"><ele>255.66666666666669</ele><time>2026-04-26T16:45:14.001Z</time></trkpt><trkpt lat="45.6262926937439" lon="9.956380736309526"><ele>251.83333333333334</ele><time>2026-04-26T16:45:15.001Z</time></trkpt><trkpt lat="45.62629775730173" lon="9.956287139406523"><ele>248.0</ele><time>2026-04-26T16:45:16.001Z</time></trkpt><trkpt lat="45.62634438047774" lon="9.956213643375495"><ele>248.0</ele><time>2026-04-26T16:45:17.001Z</time></trkpt><trkpt lat="45.62626995496917" lon="9.956024683152446"><ele>248.0</ele><time>2026-04-26T16:45:19.001Z</time></trkpt><trkpt lat="45.62617149950611" lon="9.9559191197821"><ele>248.0</ele><time>2026-04-26T16:45:20.001Z</time></trkpt><trkpt lat="45.62608310016798" lon="9.955824131655218"><ele>248.0</ele><time>2026-04-26T16:45:21.001Z</time></trkpt><trkpt lat="45.62602063474585" lon="9.955750358211644"><ele>245.2</ele><time>2026-04-26T16:45:22.001Z</time></trkpt><trkpt lat="45.62596006468678" lon="9.955679069447045"><ele>242.4</ele><time>2026-04-26T16:45:23.001Z</time></trkpt><trkpt lat="45.62589914408276" lon="9.955637833600242"><ele>239.59999999999997</ele><time>2026-04-26T16:45:24.001Z</time></trkpt><trkpt lat="45.62579624971624" lon="9.955540485297913"><ele>236.79999999999998</ele><time>2026-04-26T16:45:25.001Z</time></trkpt><trkpt lat="45.62572581067812" lon="9.955456857453258"><ele>234.0</ele><time>2026-04-26T16:45:26.001Z</time></trkpt><trkpt lat="45.624761584903155" lon="9.955785210990614"><ele>234.0</ele><time>2026-04-26T16:45:27.001Z</time></trkpt><trkpt lat="45.62470334913588" lon="9.955701632129312"><ele>234.0</ele><time>2026-04-26T16:45:28.001Z</time></trkpt><trkpt lat="45.624635860865986" lon="9.955640137020865"><ele>234.0</ele><time>2026-04-26T16:45:29.001Z</time></trkpt><trkpt lat="45.62454013844837" lon="9.955594746567797"><ele>234.0</ele><time>2026-04-26T16:45:31.001Z</time></trkpt><trkpt lat="45.62436654551549" lon="9.955925229921792"><ele>234.39999999999998</ele><time>2026-04-26T16:45:36.001Z</time></trkpt><trkpt lat="45.62427841727133" lon="9.955879582283629"><ele>234.79999999999998</ele><time>2026-04-26T16:45:38.001Z</time></trkpt><trkpt lat="45.62421452848612" lon="9.955778204416344"><ele>235.20000000000002</ele><time>2026-04-26T16:45:40.001Z</time></trkpt><trkpt lat="45.624104938493524" lon="9.955674491795"><ele>235.60000000000002</ele><time>2026-04-26T16:45:42.001Z</time></trkpt><trkpt lat="45.624069200343975" lon="9.95558051302264"><ele>236.0</ele><time>2026-04-26T16:45:43.001Z</time></trkpt><trkpt lat="45.62400257879533" lon="9.955536138190183"><ele>236.0</ele><time>2026-04-26T16:45:44.001Z</time></trkpt><trkpt lat="45.623912994034924" lon="9.9554777236172"><ele>236.0</ele><time>2026-04-26T16:45:45.001Z</time></trkpt><trkpt lat="45.6238262492413" lon="9.95536095871214"><ele>236.0</ele><time>2026-04-26T16:45:46.001Z</time></trkpt><trkpt lat="45.62372414648627" lon="9.955232647106891"><ele>236.0</ele><time>2026-04-26T16:45:47Z</time></trkpt><trkpt lat="45.623610932378476" lon="9.95509271856782"><ele>236.5</ele><time>2026-04-26T16:45:48Z</time></trkpt><trkpt lat="45.62348973338416" lon="9.954946279013337"><ele>237.0</ele><time>2026-04-26T16:45:49Z</time></trkpt><trkpt lat="45.62337899212759" lon="9.954812594635998"><ele>237.5</ele><time>2026-04-26T16:45:50Z</time></trkpt><trkpt lat="45.62328405178725" lon="9.9546933990965"><ele>238.0</ele><time>2026-04-26T16:45:51Z</time></trkpt><trkpt lat="45.623184379974504" lon="9.954584620682011"><ele>237.99999999999997</ele><time>2026-04-26T16:45:52Z</time></trkpt><trkpt lat="45.62310564985788" lon="9.954514560025011"><ele>238.0</ele><time>2026-04-26T16:45:53Z</time></trkpt><trkpt lat="45.62305078800364" lon="9.954469041587359"><ele>238.0</ele><time>2026-04-26T16:45:54Z</time></trkpt><trkpt lat="45.62305841688601" lon="9.954311324233442"><ele>238.0</ele><time>2026-04-26T16:45:56Z</time></trkpt><trkpt lat="45.623064402524506" lon="9.95419414696434"><ele>237.99999999999997</ele><time>2026-04-26T16:45:57Z</time></trkpt><trkpt lat="45.62306946634276" lon="9.954083073012663"><ele>238.0</ele><time>2026-04-26T16:45:58Z</time></trkpt><trkpt lat="45.62307323962524" lon="9.953961705136013"><ele>237.2</ele><time>2026-04-26T16:45:59Z</time></trkpt><trkpt lat="45.62307758215896" lon="9.953822027295876"><ele>236.4</ele><time>2026-04-26T16:46:00Z</time></trkpt><trkpt lat="45.623083234732235" lon="9.953668353687778"><ele>235.59999999999997</ele><time>2026-04-26T16:46:01Z</time></trkpt><trkpt lat="45.623075119420385" lon="9.953498227201834"><ele>234.79999999999998</ele><time>2026-04-26T16:46:02Z</time></trkpt><trkpt lat="45.62308754556552" lon="9.95334397623971"><ele>234.0</ele><time>2026-04-26T16:46:03Z</time></trkpt><trkpt lat="45.62310491187504" lon="9.953186891915962"><ele>233.79999999999998</ele><time>2026-04-26T16:46:04Z</time></trkpt><trkpt lat="45.62314743253937" lon="9.95303583570661"><ele>233.59999999999997</ele><time>2026-04-26T16:46:05Z</time></trkpt><trkpt lat="45.62317540656006" lon="9.95287948490726"><ele>233.4</ele><time>2026-04-26T16:46:06Z</time></trkpt><trkpt lat="45.62322595404099" lon="9.95272417441051"><ele>233.2</ele><time>2026-04-26T16:46:07Z</time></trkpt><trkpt lat="45.62325667523858" lon="9.952589249293444"><ele>233.0</ele><time>2026-04-26T16:46:08Z</time></trkpt><trkpt lat="45.6232802457983" lon="9.952457606029865"><ele>232.4</ele><time>2026-04-26T16:46:09Z</time></trkpt><trkpt lat="45.62330214056651" lon="9.9523174265009"><ele>231.8</ele><time>2026-04-26T16:46:10Z</time></trkpt><trkpt lat="45.62333911711801" lon="9.95220076250247"><ele>231.2</ele><time>2026-04-26T16:46:11Z</time></trkpt><trkpt lat="45.6233685389677" lon="9.952090008823095"><ele>230.6</ele><time>2026-04-26T16:46:12Z</time></trkpt><trkpt lat="45.623413204863745" lon="9.952004710495176"><ele>230.0</ele><time>2026-04-26T16:46:13Z</time></trkpt><trkpt lat="45.62329594196695" lon="9.95190190566957"><ele>230.0</ele><time>2026-04-26T16:46:15Z</time></trkpt><trkpt lat="45.62327308771241" lon="9.952058841212413"><ele>230.0</ele><time>2026-04-26T16:46:16Z</time></trkpt><trkpt lat="45.62304308190088" lon="9.951949717891779"><ele>230.0</ele><time>2026-04-26T16:46:18Z</time></trkpt><trkpt lat="45.622913688759894" lon="9.951874664433234"><ele>230.0</ele><time>2026-04-26T16:46:19Z</time></trkpt><trkpt lat="45.622793130199874" lon="9.95181981077527"><ele>230.0</ele><time>2026-04-26T16:46:20Z</time></trkpt><trkpt lat="45.62267836845916" lon="9.951771178295964"><ele>230.0</ele><time>2026-04-26T16:46:21Z</time></trkpt><trkpt lat="45.62257095092108" lon="9.951736207636062"><ele>230.0</ele><time>2026-04-26T16:46:22Z</time></trkpt><trkpt lat="45.62245789291414" lon="9.951697782280707"><ele>229.0</ele><time>2026-04-26T16:46:23Z</time></trkpt><trkpt lat="45.622328405319294" lon="9.951660570768457"><ele>228.0</ele><time>2026-04-26T16:46:24Z</time></trkpt><trkpt lat="45.62220760185546" lon="9.951618029682294"><ele>227.0</ele><time>2026-04-26T16:46:25Z</time></trkpt><trkpt lat="45.62208121999586" lon="9.951578805584075"><ele>226.0</ele><time>2026-04-26T16:46:26Z</time></trkpt><trkpt lat="45.62195736157046" lon="9.951533470492956"><ele>226.0</ele><time>2026-04-26T16:46:27Z</time></trkpt><trkpt lat="45.62184255504362" lon="9.95149759559037"><ele>226.0</ele><time>2026-04-26T16:46:28Z</time></trkpt><trkpt lat="45.62173468580726" lon="9.951478340891699"><ele>226.0</ele><time>2026-04-26T16:46:29Z</time></trkpt><trkpt lat="45.621625582652825" lon="9.951459482347852"><ele>226.0</ele><time>2026-04-26T16:46:30Z</time></trkpt><trkpt lat="45.62150670792376" lon="9.951429009629036"><ele>226.0</ele><time>2026-04-26T16:46:31Z</time></trkpt><trkpt lat="45.62136406132962" lon="9.951398186692339"><ele>226.0</ele><time>2026-04-26T16:46:32Z</time></trkpt><trkpt lat="45.621225190442644" lon="9.951352072303608"><ele>226.0</ele><time>2026-04-26T16:46:33Z</time></trkpt><trkpt lat="45.62109922615499" lon="9.951282716969246"><ele>226.0</ele><time>2026-04-26T16:46:34Z</time></trkpt><trkpt lat="45.62097183882368" lon="9.951217589772362"><ele>225.75</ele><time>2026-04-26T16:46:35Z</time></trkpt><trkpt lat="45.62083739237523" lon="9.951169748582988"><ele>225.5</ele><time>2026-04-26T16:46:36Z</time></trkpt><trkpt lat="45.62070789429571" lon="9.951096700738265"><ele>225.25</ele><time>2026-04-26T16:46:37Z</time></trkpt><trkpt lat="45.62056648384672" lon="9.95099909721372"><ele>225.0</ele><time>2026-04-26T16:46:38Z</time></trkpt><trkpt lat="45.620424096741075" lon="9.950892917686268"><ele>225.0</ele><time>2026-04-26T16:46:39Z</time></trkpt><trkpt lat="45.62026259692465" lon="9.950766010403719"><ele>225.0</ele><time>2026-04-26T16:46:40Z</time></trkpt><trkpt lat="45.62009423722759" lon="9.950635922107992"><ele>225.0</ele><time>2026-04-26T16:46:41Z</time></trkpt><trkpt lat="45.61996089128945" lon="9.950535941848942"><ele>225.0</ele><time>2026-04-26T16:46:42Z</time></trkpt><trkpt lat="45.61984854613947" lon="9.950423074473568"><ele>225.0</ele><time>2026-04-26T16:46:43Z</time></trkpt><trkpt lat="45.61974064800224" lon="9.950344881223849"><ele>225.0</ele><time>2026-04-26T16:46:44Z</time></trkpt><trkpt lat="45.619665698599576" lon="9.950226172813297"><ele>225.0</ele><time>2026-04-26T16:46:45Z</time></trkpt><trkpt lat="45.61960039872564" lon="9.950129833154683"><ele>224.4</ele><time>2026-04-26T16:46:46Z</time></trkpt><trkpt lat="45.619536158537265" lon="9.95003612856791"><ele>223.8</ele><time>2026-04-26T16:46:47Z</time></trkpt><trkpt lat="45.61945163487244" lon="9.94999443107553"><ele>223.2</ele><time>2026-04-26T16:46:48Z</time></trkpt><trkpt lat="45.61936106304635" lon="9.949966026007013"><ele>222.6</ele><time>2026-04-26T16:46:49Z</time></trkpt><trkpt lat="45.61926685471171" lon="9.949951663967372"><ele>222.0</ele><time>2026-04-26T16:46:50Z</time></trkpt><trkpt lat="45.619175558262896" lon="9.949895675822535"><ele>222.0</ele><time>2026-04-26T16:46:51Z</time></trkpt><trkpt lat="45.61909248237963" lon="9.949797177450078"><ele>222.0</ele><time>2026-04-26T16:46:52Z</time></trkpt><trkpt lat="45.619035320920304" lon="9.94969910226596"><ele>222.0</ele><time>2026-04-26T16:46:53Z</time></trkpt><trkpt lat="45.61898650468708" lon="9.94957743403162"><ele>222.0</ele><time>2026-04-26T16:46:55Z</time></trkpt><trkpt lat="45.61893371074454" lon="9.949510343335792"><ele>222.0</ele><time>2026-04-26T16:46:56Z</time></trkpt><trkpt lat="45.61886196792491" lon="9.949372332745517"><ele>221.33333333333331</ele><time>2026-04-26T16:46:57.001Z</time></trkpt><trkpt lat="45.6187720727009" lon="9.949197460923783"><ele>220.66666666666666</ele><time>2026-04-26T16:46:58.001Z</time></trkpt><trkpt lat="45.618673772254276" lon="9.9490061560228"><ele>220.0</ele><time>2026-04-26T16:46:59.001Z</time></trkpt><trkpt lat="45.6185921624112" lon="9.948847333080487"><ele>220.0</ele><time>2026-04-26T16:47:00.001Z</time></trkpt><trkpt lat="45.61852227037036" lon="9.948711314375377"><ele>220.0</ele><time>2026-04-26T16:47:01.001Z</time></trkpt><trkpt lat="45.618459354166255" lon="9.948588871612325"><ele>220.0</ele><time>2026-04-26T16:47:02.001Z</time></trkpt><trkpt lat="45.61840075417935" lon="9.948474828764708"><ele>220.0</ele><time>2026-04-26T16:47:03.001Z</time></trkpt><trkpt lat="45.61833593897751" lon="9.948348690323435"><ele>220.0</ele><time>2026-04-26T16:47:04.001Z</time></trkpt><trkpt lat="45.6182709455921" lon="9.948222205098846"><ele>219.6</ele><time>2026-04-26T16:47:05.001Z</time></trkpt><trkpt lat="45.61821256578867" lon="9.948105020167505"><ele>219.2</ele><time>2026-04-26T16:47:06.001Z</time></trkpt><trkpt lat="45.618163651824105" lon="9.948005607798612"><ele>218.8</ele><time>2026-04-26T16:47:07.001Z</time></trkpt><trkpt lat="45.61811130256262" lon="9.947889385568297"><ele>218.4</ele><time>2026-04-26T16:47:08.001Z</time></trkpt><trkpt lat="45.61806324943856" lon="9.94776439218913"><ele>218.0</ele><time>2026-04-26T16:47:09.001Z</time></trkpt><trkpt lat="45.618017618100495" lon="9.947635865277327"><ele>217.5</ele><time>2026-04-26T16:47:10.001Z</time></trkpt><trkpt lat="45.61798587475465" lon="9.947474651270031"><ele>217.0</ele><time>2026-04-26T16:47:11.001Z</time></trkpt><trkpt lat="45.61793574517887" lon="9.947306880993265"><ele>216.5</ele><time>2026-04-26T16:47:12.001Z</time></trkpt><trkpt lat="45.61790434765128" lon="9.947117271224021"><ele>216.0</ele><time>2026-04-26T16:47:13.001Z</time></trkpt><trkpt lat="45.61786671481511" lon="9.946949739479036"><ele>216.0</ele><time>2026-04-26T16:47:14.001Z</time></trkpt><trkpt lat="45.617822067637285" lon="9.946811375562918"><ele>216.0</ele><time>2026-04-26T16:47:15.001Z</time></trkpt><trkpt lat="45.617792350530245" lon="9.946648683071878"><ele>216.0</ele><time>2026-04-26T16:47:16.001Z</time></trkpt><trkpt lat="45.617758207204126" lon="9.946461758310665"><ele>216.0</ele><time>2026-04-26T16:47:17.001Z</time></trkpt><trkpt lat="45.61772476718771" lon="9.946278684019193"><ele>215.75</ele><time>2026-04-26T16:47:18.001Z</time></trkpt><trkpt lat="45.617674163567244" lon="9.946090971253387"><ele>215.5</ele><time>2026-04-26T16:47:19.001Z</time></trkpt><trkpt lat="45.61763569936996" lon="9.9458828571538"><ele>215.25</ele><time>2026-04-26T16:47:20.001Z</time></trkpt><trkpt lat="45.61761740235222" lon="9.945689987623723"><ele>215.0</ele><time>2026-04-26T16:47:21.001Z</time></trkpt><trkpt lat="45.61758510387169" lon="9.945512489912621"><ele>215.0</ele><time>2026-04-26T16:47:22.001Z</time></trkpt><trkpt lat="45.61754884281603" lon="9.945313706124274"><ele>215.0</ele><time>2026-04-26T16:47:23.001Z</time></trkpt><trkpt lat="45.61751333491256" lon="9.945118963687902"><ele>215.0</ele><time>2026-04-26T16:47:24.001Z</time></trkpt><trkpt lat="45.61748210532997" lon="9.944947685660567"><ele>215.0</ele><time>2026-04-26T16:47:25.001Z</time></trkpt><trkpt lat="45.6174552029117" lon="9.94480013982304"><ele>215.0</ele><time>2026-04-26T16:47:26.001Z</time></trkpt><trkpt lat="45.61742841556848" lon="9.944654651248563"><ele>215.0</ele><time>2026-04-26T16:47:27.001Z</time></trkpt><trkpt lat="45.6174023336293" lon="9.944513848012628"><ele>215.0</ele><time>2026-04-26T16:47:28.001Z</time></trkpt><trkpt lat="45.617376639849084" lon="9.944375140300531"><ele>215.0</ele><time>2026-04-26T16:47:29.001Z</time></trkpt><trkpt lat="45.61735315201711" lon="9.944248341293989"><ele>215.0</ele><time>2026-04-26T16:47:30.001Z</time></trkpt><trkpt lat="45.617327184851455" lon="9.944108157658086"><ele>214.6</ele><time>2026-04-26T16:47:31.001Z</time></trkpt><trkpt lat="45.617299874702255" lon="9.94396072393158"><ele>214.2</ele><time>2026-04-26T16:47:32.001Z</time></trkpt><trkpt lat="45.61727364698794" lon="9.943819133689868"><ele>213.8</ele><time>2026-04-26T16:47:33.001Z</time></trkpt><trkpt lat="45.61724937651312" lon="9.943688109613957"><ele>213.4</ele><time>2026-04-26T16:47:34.001Z</time></trkpt><trkpt lat="45.6172270135476" lon="9.94356738328449"><ele>213.0</ele><time>2026-04-26T16:47:35.001Z</time></trkpt><trkpt lat="45.617205826508375" lon="9.94345300590014"><ele>212.75</ele><time>2026-04-26T16:47:36.001Z</time></trkpt><trkpt lat="45.61718324121034" lon="9.943334030482033"><ele>212.5</ele><time>2026-04-26T16:47:37.001Z</time></trkpt><trkpt lat="45.616986219721795" lon="9.94330177398183"><ele>212.25</ele><time>2026-04-26T16:47:38.001Z</time></trkpt><trkpt lat="45.61689997614223" lon="9.94323684025313"><ele>212.0</ele><time>2026-04-26T16:47:39.001Z</time></trkpt><trkpt lat="45.61683426880221" lon="9.943158134558177"><ele>212.0</ele><time>2026-04-26T16:47:40.001Z</time></trkpt><trkpt lat="45.616752443213166" lon="9.943065597950318"><ele>212.0</ele><time>2026-04-26T16:47:41.001Z</time></trkpt><trkpt lat="45.616650294877665" lon="9.942970918897368"><ele>212.0</ele><time>2026-04-26T16:47:42.001Z</time></trkpt><trkpt lat="45.6165680810238" lon="9.942883131426589"><ele>212.0</ele><time>2026-04-26T16:47:43.001Z</time></trkpt><trkpt lat="45.61649338822575" lon="9.942810494835726"><ele>212.0</ele><time>2026-04-26T16:47:44.001Z</time></trkpt><trkpt lat="45.61642780875659" lon="9.94273703404632"><ele>212.0</ele><time>2026-04-26T16:47:45.001Z</time></trkpt><trkpt lat="45.61637141251595" lon="9.942660552842732"><ele>212.0</ele><time>2026-04-26T16:47:46.001Z</time></trkpt><trkpt lat="45.61631444843485" lon="9.942596951451108"><ele>212.0</ele><time>2026-04-26T16:47:47.001Z</time></trkpt><trkpt lat="45.616225350180436" lon="9.942551058234558"><ele>212.0</ele><time>2026-04-26T16:47:49.001Z</time></trkpt><trkpt lat="45.61615921111402" lon="9.942634330145484"><ele>212.0</ele><time>2026-04-26T16:47:51.001Z</time></trkpt><trkpt lat="45.61607867156047" lon="9.942855087077564"><ele>210.5</ele><time>2026-04-26T16:47:53Z</time></trkpt><trkpt lat="45.61603175192244" lon="9.943068352032808"><ele>209.0</ele><time>2026-04-26T16:47:54Z</time></trkpt><trkpt lat="45.61600335061719" lon="9.943233988656601"><ele>207.5</ele><time>2026-04-26T16:47:55Z</time></trkpt><trkpt lat="45.61597604114041" lon="9.943349234804428"><ele>206.0</ele><time>2026-04-26T16:47:56Z</time></trkpt><trkpt lat="45.61594227652607" lon="9.94347628671413"><ele>206.00000000000003</ele><time>2026-04-26T16:47:57Z</time></trkpt><trkpt lat="45.615917131310034" lon="9.943585527589033"><ele>206.0</ele><time>2026-04-26T16:47:58Z</time></trkpt><trkpt lat="45.615899327853505" lon="9.943686631801636"><ele>206.0</ele><time>2026-04-26T16:47:59Z</time></trkpt><trkpt lat="45.61587483668952" lon="9.94377758052596"><ele>206.0</ele><time>2026-04-26T16:48:00Z</time></trkpt><trkpt lat="45.6158909862586" lon="9.943922525636566"><ele>206.00000000000003</ele><time>2026-04-26T16:48:02Z</time></trkpt><trkpt lat="45.61599143078822" lon="9.943995810029465"><ele>206.0</ele><time>2026-04-26T16:48:04Z</time></trkpt><trkpt lat="45.616098105154016" lon="9.9438852654241"><ele>206.0</ele><time>2026-04-26T16:48:06Z</time></trkpt><trkpt lat="45.616149238483544" lon="9.943730868557921"><ele>206.0</ele><time>2026-04-26T16:48:07Z</time></trkpt><trkpt lat="45.61621495212387" lon="9.943575174602232"><ele>206.0</ele><time>2026-04-26T16:48:08Z</time></trkpt><trkpt lat="45.616282057979646" lon="9.943447476766602"><ele>206.0</ele><time>2026-04-26T16:48:09Z</time></trkpt><trkpt lat="45.616333316973666" lon="9.943357582785355"><ele>206.0</ele><time>2026-04-26T16:48:10Z</time></trkpt><trkpt lat="45.61638753267328" lon="9.94329635686427"><ele>207.00000000000003</ele><time>2026-04-26T16:48:11Z</time></trkpt><trkpt lat="45.616474936150674" lon="9.943214535839306"><ele>208.0</ele><time>2026-04-26T16:48:13Z</time></trkpt><trkpt lat="45.61648243896303" lon="9.943086554398919"><ele>209.0</ele><time>2026-04-26T16:48:15Z</time></trkpt><trkpt lat="45.61648254169869" lon="9.942976742021763"><ele>210.0</ele><time>2026-04-26T16:48:17Z</time></trkpt><trkpt lat="45.616446879202144" lon="9.942898308367106"><ele>211.00000000000003</ele><time>2026-04-26T16:48:18Z</time></trkpt><trkpt lat="45.616439424533986" lon="9.942785214093602"><ele>212.0</ele><time>2026-04-26T16:48:19Z</time></trkpt><trkpt lat="45.616315734835275" lon="9.942983221166928"><ele>212.0</ele><time>2026-04-26T16:48:24Z</time></trkpt><trkpt lat="45.61633457580946" lon="9.943095039545156"><ele>212.0</ele><time>2026-04-26T16:48:27Z</time></trkpt><trkpt lat="45.61633453968388" lon="9.943298637115614"><ele>212.0</ele><time>2026-04-26T16:48:35Z</time></trkpt><trkpt lat="45.61632957801263" lon="9.943428567007809"><ele>212.0</ele><time>2026-04-26T16:48:36Z</time></trkpt><trkpt lat="45.616307416021534" lon="9.943516841083998"><ele>212.0</ele><time>2026-04-26T16:48:37Z</time></trkpt><trkpt lat="45.616243308615545" lon="9.94341005897275"><ele>212.0</ele><time>2026-04-26T16:48:40Z</time></trkpt><trkpt lat="45.616227819489005" lon="9.943286128130683"><ele>212.0</ele><time>2026-04-26T16:48:41Z</time></trkpt><trkpt lat="45.61621412894183" lon="9.943152451024908"><ele>212.0</ele><time>2026-04-26T16:48:43Z</time></trkpt><trkpt lat="45.616234019335785" lon="9.94300453260603"><ele>212.0</ele><time>2026-04-26T16:48:45Z</time></trkpt><trkpt lat="45.616257054295225" lon="9.942903125915315"><ele>212.0</ele><time>2026-04-26T16:48:47Z</time></trkpt><trkpt lat="45.61633524893042" lon="9.942825338907655"><ele>212.00000000000003</ele><time>2026-04-26T16:48:49Z</time></trkpt><trkpt lat="45.61636935429388" lon="9.942933211495157"><ele>212.0</ele><time>2026-04-26T16:48:53Z</time></trkpt><trkpt lat="45.616307104129184" lon="9.942982471525184"><ele>212.0</ele><time>2026-04-26T16:48:55Z</time></trkpt><trkpt lat="45.616318205436556" lon="9.943077805651184"><ele>212.0</ele><time>2026-04-26T16:48:57Z</time></trkpt><trkpt lat="45.616326806708884" lon="9.943167632765467"><ele>212.00000000000003</ele><time>2026-04-26T16:48:59Z</time></trkpt><trkpt lat="45.61629295385796" lon="9.943275133237549"><ele>212.0</ele><time>2026-04-26T16:49:02Z</time></trkpt><trkpt lat="45.6162579600293" lon="9.943418687191445"><ele>212.00000000000003</ele><time>2026-04-26T16:49:04Z</time></trkpt><trkpt lat="45.616305480388114" lon="9.943493932492256"><ele>212.0</ele><time>2026-04-26T16:49:07Z</time></trkpt><trkpt lat="45.61636246083875" lon="9.94342762678061"><ele>212.0</ele><time>2026-04-26T16:49:09Z</time></trkpt><trkpt lat="45.61638464373003" lon="9.94332924332457"><ele>212.0</ele><time>2026-04-26T16:49:12Z</time></trkpt><trkpt lat="45.616418932896224" lon="9.943201044358238"><ele>212.00000000000003</ele><time>2026-04-26T16:49:15Z</time></trkpt><trkpt lat="45.61642828686779" lon="9.943093268752836"><ele>212.0</ele><time>2026-04-26T16:49:17Z</time></trkpt><trkpt lat="45.61639317294008" lon="9.943008196910787"><ele>212.0</ele><time>2026-04-26T16:49:20Z</time></trkpt><trkpt lat="45.61635297852531" lon="9.942913916969866"><ele>212.0</ele><time>2026-04-26T16:49:22.001Z</time></trkpt><trkpt lat="45.61628353745821" lon="9.942942980831079"><ele>212.0</ele><time>2026-04-26T16:49:26.001Z</time></trkpt><trkpt lat="45.616303787052125" lon="9.943037317576428"><ele>212.0</ele><time>2026-04-26T16:49:28.001Z</time></trkpt><trkpt lat="45.61632240914439" lon="9.943141040651255"><ele>212.0</ele><time>2026-04-26T16:49:31.001Z</time></trkpt><trkpt lat="45.61630339277867" lon="9.943234765086284"><ele>212.0</ele><time>2026-04-26T16:49:33.001Z</time></trkpt><trkpt lat="45.616314634547884" lon="9.943325451386976"><ele>212.0</ele><time>2026-04-26T16:49:35.001Z</time></trkpt><trkpt lat="45.61633098271251" lon="9.943443670108797"><ele>212.00000000000003</ele><time>2026-04-26T16:49:38.001Z</time></trkpt><trkpt lat="45.61639722180173" lon="9.943418554147756"><ele>212.0</ele><time>2026-04-26T16:49:40.001Z</time></trkpt><trkpt lat="45.61643096989159" lon="9.943330711117463"><ele>212.0</ele><time>2026-04-26T16:49:42.001Z</time></trkpt><trkpt lat="45.61645707179606" lon="9.94322091017446"><ele>212.0</ele><time>2026-04-26T16:49:44.001Z</time></trkpt><trkpt lat="45.61645169297155" lon="9.94306492225183"><ele>212.00000000000003</ele><time>2026-04-26T16:49:46.001Z</time></trkpt><trkpt lat="45.61644561520434" lon="9.942972661363521"><ele>212.0</ele><time>2026-04-26T16:49:48.001Z</time></trkpt><trkpt lat="45.61636875216115" lon="9.942957355592776"><ele>212.00000000000003</ele><time>2026-04-26T16:50:22Z</time></trkpt><trkpt lat="45.616318002175014" lon="9.94287664674324"><ele>212.0</ele><time>2026-04-26T16:50:24Z</time></trkpt><trkpt lat="45.616248627927725" lon="9.942839181535442"><ele>212.0</ele><time>2026-04-26T16:50:27Z</time></trkpt><trkpt lat="45.61618740807136" lon="9.942738471076128"><ele>212.0</ele><time>2026-04-26T16:50:29Z</time></trkpt><trkpt lat="45.616200505746185" lon="9.942635055451456"><ele>212.00000000000003</ele><time>2026-04-26T16:50:31Z</time></trkpt><trkpt lat="45.61627902083507" lon="9.942601832920163"><ele>212.0</ele><time>2026-04-26T16:50:36Z</time></trkpt><trkpt lat="45.61632046588129" lon="9.942685309347564"><ele>212.00000000000003</ele><time>2026-04-26T16:50:38Z</time></trkpt><trkpt lat="45.61638882299422" lon="9.942748914832608"><ele>212.0</ele><time>2026-04-26T16:50:41Z</time></trkpt><trkpt lat="45.616452329310114" lon="9.94282858092617"><ele>212.0</ele><time>2026-04-26T16:50:44Z</time></trkpt><trkpt lat="45.61652257713008" lon="9.942901285268725"><ele>212.0</ele><time>2026-04-26T16:50:47Z</time></trkpt><trkpt lat="45.61659385030916" lon="9.942978908831401"><ele>212.00000000000003</ele><time>2026-04-26T16:50:50Z</time></trkpt><trkpt lat="45.61665000067304" lon="9.943041994545391"><ele>212.0</ele><time>2026-04-26T16:50:52Z</time></trkpt><trkpt lat="45.61670755693677" lon="9.943096114009471"><ele>212.0</ele><time>2026-04-26T16:50:53Z</time></trkpt><trkpt lat="45.61674507915921" lon="9.943168941264927"><ele>212.0</ele><time>2026-04-26T16:50:55Z</time></trkpt><trkpt lat="45.61666095730349" lon="9.94330562923238"><ele>212.0</ele><time>2026-04-26T16:50:57Z</time></trkpt><trkpt lat="45.61658474736748" lon="9.943441003165573"><ele>212.0</ele><time>2026-04-26T16:50:58Z</time></trkpt><trkpt lat="45.6165354336125" lon="9.943541254129746"><ele>212.0</ele><time>2026-04-26T16:50:59Z</time></trkpt><trkpt lat="45.616497970684115" lon="9.943618564740932"><ele>212.0</ele><time>2026-04-26T16:51:01Z</time></trkpt><trkpt lat="45.6165792862573" lon="9.943834972013702"><ele>212.0</ele><time>2026-04-26T16:51:02Z</time></trkpt><trkpt lat="45.61663918614034" lon="9.943905434938891"><ele>212.0</ele><time>2026-04-26T16:51:03Z</time></trkpt><trkpt lat="45.61672741870217" lon="9.944006763798766"><ele>212.0</ele><time>2026-04-26T16:51:05Z</time></trkpt><trkpt lat="45.61681501288348" lon="9.944097039129415"><ele>212.0</ele><time>2026-04-26T16:51:07Z</time></trkpt><trkpt lat="45.61688934223082" lon="9.944151079986517"><ele>212.0</ele><time>2026-04-26T16:51:09Z</time></trkpt><trkpt lat="45.61696064940835" lon="9.944160628258619"><ele>212.0</ele><time>2026-04-26T16:51:12Z</time></trkpt><trkpt lat="45.6170259590115" lon="9.944181929074896"><ele>213.0</ele><time>2026-04-26T16:51:14Z</time></trkpt><trkpt lat="45.61713817033151" lon="9.944186613020475"><ele>213.0</ele><time>2026-04-26T16:53:40Z</time></trkpt></trkseg></trk></gpx>